[[{"header":{"parameterUnit":"m.s-1","parameterCategory":1,"la1":30.6,"la2":29.2853,"lo1":-89.7004,"lo2":-87.6739,"dy":0.0162,"dx":0.0183,"nx":112,"ny":82,"refTime":"2023-08-26T12:00:00:Z","depth":0,"parameterNumber":2,"parameterNumberName":"U-component_of_WINDS"},"data":[0.0,0.0,0.0,0.0,0.0,0.0,0.0,0.0,0.0,0.0,0.0,0.0,0.0,0.0,0.0,0.0,0.0,0.0,0.0,0.0,0.0,0.0,0.0,0.0,0.0,0.0,0.0,0.0,0.0,0.0,0.0,0.0,0.0,0.0,0.0,0.0,0.0,0.0,0.0,0.0,0.0,0.0,0.0,0.0,0.0,0.0,0.0,0.0,0.0,0.0,0.0,0.0,0.0,0.0,0.0,0.0,0.0,0.0,0.0,0.0,0.0,0.0,0.0,0.0,0.0,0.0,0.0,0.0,0.0,0.0,0.0,0.0,0.0,0.0,0.0,0.0,0.0,0.0,0.0,0.0,0.0,0.0,0.0,0.0,0.0,0.0,0.0,0.0,0.0,0.0,5.173,5.4262,5.7881,6.0114,6.0114,5.9438,5.6689,5.1329,0.0,0.0,0.0,0.0,0.0,0.0,0.0,0.0,0.0,0.0,0.0,0.0,0.0,0.0,0.0,0.0,0.0,0.0,0.0,0.0,0.0,0.0,0.0,0.0,0.0,0.0,0.0,0.0,0.0,0.0,0.0,0.0,0.0,0.0,0.0,0.0,0.0,0.0,0.0,0.0,0.0,0.0,0.0,0.0,0.0,0.0,0.0,0.0,0.0,0.0,0.0,0.0,0.0,0.0,0.0,0.0,0.0,0.0,0.0,0.0,0.0,0.0,0.0,0.0,0.0,0.0,0.0,0.0,0.0,0.0,0.0,0.0,0.0,0.0,0.0,0.0,0.0,0.0,0.0,0.0,0.0,0.0,0.0,0.0,0.0,0.0,0.0,0.0,0.0,0.0,0.0,0.0,0.0,0.0,0.0,0.0,0.0,0.0,0.0,0.0,0.0,0.0,0.0,0.0,5.227,5.8457,5.9708,6.0114,6.0114,5.9438,5.6925,5.2068,0.0,0.0,0.0,0.0,0.0,0.0,0.0,0.0,0.0,0.0,0.0,0.0,0.0,0.0,0.0,0.0,0.0,0.0,0.0,0.0,0.0,0.0,0.0,0.0,0.0,0.0,0.0,0.0,0.0,0.0,0.0,0.0,0.0,0.0,0.0,0.0,0.0,0.0,0.0,0.0,0.0,0.0,0.0,0.0,0.0,0.0,0.0,0.0,0.0,0.0,0.0,0.0,0.0,0.0,0.0,0.0,0.0,0.0,0.0,0.0,0.0,0.0,0.0,0.0,0.0,0.0,0.0,0.0,0.0,0.0,0.0,0.0,0.0,0.0,0.0,0.0,0.0,0.0,0.0,0.0,0.0,0.0,0.0,0.0,0.0,0.0,0.0,0.0,0.0,0.0,0.0,0.0,0.0,0.0,0.0,0.0,0.0,0.0,0.0,0.0,0.0,0.0,0.0,5.0419,5.3988,6.0114,6.1018,6.1177,6.1143,6.0314,5.7674,5.2494,4.9559,0.0,0.0,0.0,0.0,0.0,0.0,0.0,0.0,0.0,0.0,0.0,0.0,0.0,0.0,0.0,0.0,0.0,0.0,0.0,0.0,0.0,0.0,0.0,0.0,0.0,0.0,0.0,0.0,0.0,0.0,0.0,0.0,0.0,0.0,0.0,0.0,0.0,0.0,0.0,0.0,0.0,0.0,0.0,0.0,0.0,0.0,0.0,0.0,0.0,0.0,0.0,0.0,0.0,0.0,0.0,0.0,0.0,0.0,0.0,0.0,0.0,0.0,0.0,0.0,0.0,0.0,0.0,0.0,0.0,0.0,0.0,0.0,0.0,0.0,0.0,0.0,0.0,0.0,0.0,0.0,0.0,0.0,0.0,0.0,0.0,0.0,0.0,0.0,0.0,0.0,0.0,0.0,0.0,0.0,0.0,0.0,0.0,0.0,0.0,0.0,0.0,0.0,5.3954,5.666,6.1095,6.1886,6.1963,6.1761,6.0427,5.7339,5.2213,4.9125,0.0,0.0,0.0,0.0,0.0,0.0,0.0,0.0,0.0,0.0,0.0,0.0,0.0,0.0,0.0,0.0,0.0,0.0,0.0,0.0,0.0,0.0,0.0,0.0,0.0,0.0,0.0,0.0,0.0,0.0,0.0,0.0,0.0,0.0,0.0,0.0,0.0,0.0,0.0,0.0,0.0,0.0,0.0,0.0,0.0,0.0,0.0,0.0,0.0,0.0,0.0,0.0,0.0,0.0,0.0,0.0,0.0,0.0,0.0,0.0,0.0,0.0,0.0,0.0,0.0,0.0,0.0,0.0,0.0,0.0,0.0,0.0,0.0,0.0,0.0,0.0,0.0,0.0,0.0,0.0,0.0,0.0,0.0,0.0,0.0,0.0,0.0,0.0,0.0,0.0,0.0,0.0,0.0,0.0,0.0,0.0,0.0,0.0,0.0,0.0,0.0,0.0,5.6082,6.0317,6.211,6.2347,6.2032,6.1122,5.8203,5.4734,5.0722,4.5993,0.0,0.0,0.0,0.0,0.0,0.0,0.0,0.0,0.0,0.0,0.0,0.0,0.0,0.0,0.0,0.0,0.0,0.0,0.0,0.0,0.0,0.0,0.0,0.0,0.0,0.0,0.0,0.0,0.0,0.0,0.0,0.0,0.0,0.0,0.0,0.0,0.0,0.0,0.0,0.0,0.0,0.0,0.0,0.0,0.0,0.0,0.0,0.0,0.0,0.0,0.0,0.0,0.0,0.0,0.0,0.0,0.0,0.0,0.0,0.0,0.0,0.0,0.0,0.0,0.0,0.0,0.0,0.0,0.0,0.0,0.0,0.0,0.0,0.0,0.0,0.0,0.0,0.0,0.0,0.0,0.0,0.0,0.0,0.0,0.0,0.0,0.0,0.0,0.0,0.0,0.0,0.0,0.0,0.0,0.0,0.0,0.0,0.0,0.0,0.0,0.0,0.0,5.4455,5.8437,6.2042,6.2144,6.1648,6.083,5.8931,5.5596,5.0278,0.0,0.0,0.0,0.0,0.0,0.0,0.0,0.0,0.0,0.0,0.0,0.0,0.0,0.0,0.0,0.0,0.0,0.0,0.0,0.0,0.0,0.0,0.0,0.0,0.0,0.0,0.0,0.0,0.0,0.0,0.0,0.0,0.0,0.0,0.0,0.0,0.0,0.0,0.0,0.0,0.0,0.0,0.0,0.0,0.0,0.0,0.0,0.0,0.0,0.0,0.0,0.0,0.0,0.0,0.0,0.0,0.0,0.0,0.0,0.0,0.0,0.0,0.0,0.0,0.0,0.0,0.0,0.0,0.0,0.0,0.0,0.0,0.0,0.0,0.0,0.0,0.0,0.0,0.0,0.0,0.0,0.0,0.0,0.0,0.0,0.0,0.0,0.0,0.0,0.0,0.0,0.0,0.0,0.0,0.0,0.0,0.0,0.0,0.0,0.0,0.0,0.0,4.9823,5.3811,5.7749,6.1593,6.1614,6.104,6.0303,5.8341,5.4708,4.8981,0.0,0.0,0.0,0.0,0.0,0.0,0.0,0.0,0.0,0.0,0.0,0.0,0.0,0.0,0.0,0.0,0.0,0.0,0.0,0.0,0.0,0.0,0.0,0.0,0.0,0.0,0.0,0.0,0.0,0.0,0.0,0.0,0.0,0.0,0.0,0.0,0.0,0.0,0.0,0.0,0.0,0.0,0.0,0.0,0.0,0.0,0.0,0.0,0.0,0.0,0.0,0.0,0.0,0.0,0.0,0.0,0.0,0.0,0.0,0.0,0.0,0.0,0.0,0.0,0.0,0.0,0.0,0.0,0.0,0.0,0.0,0.0,0.0,0.0,0.0,0.0,0.0,0.0,0.0,0.0,0.0,0.0,0.0,0.0,0.0,0.0,0.0,0.0,0.0,0.0,0.0,0.0,0.0,0.0,0.0,0.0,0.0,0.0,0.0,0.0,0.0,0.0,4.9091,5.4816,5.9271,6.0819,6.0763,6.0269,5.9533,5.5671,5.1295,0.0,0.0,0.0,0.0,0.0,0.0,0.0,0.0,0.0,0.0,0.0,0.0,0.0,0.0,0.0,0.0,0.0,0.0,0.0,0.0,0.0,0.0,0.0,0.0,0.0,0.0,0.0,0.0,0.0,0.0,0.0,0.0,0.0,0.0,0.0,0.0,0.0,0.0,0.0,0.0,0.0,0.0,0.0,0.0,0.0,0.0,0.0,0.0,0.0,0.0,0.0,0.0,0.0,0.0,0.0,0.0,0.0,0.0,0.0,0.0,0.0,0.0,0.0,0.0,0.0,0.0,0.0,0.0,0.0,0.0,0.0,0.0,0.0,0.0,0.0,0.0,0.0,0.0,0.0,0.0,0.0,0.0,0.0,0.0,0.0,0.0,0.0,0.0,0.0,0.0,0.0,0.0,0.0,0.0,0.0,0.0,0.0,0.0,0.0,0.0,0.0,0.0,0.0,4.9287,5.4205,5.8193,5.9977,5.9834,5.9376,5.8796,5.6412,5.2726,4.7671,0.0,0.0,0.0,0.0,0.0,0.0,0.0,0.0,0.0,0.0,0.0,0.0,0.0,0.0,0.0,0.0,0.0,0.0,0.0,0.0,0.0,0.0,0.0,0.0,0.0,0.0,0.0,0.0,0.0,0.0,0.0,0.0,0.0,0.0,0.0,0.0,0.0,0.0,0.0,0.0,0.0,0.0,0.0,0.0,0.0,0.0,0.0,0.0,0.0,0.0,0.0,0.0,0.0,0.0,0.0,0.0,0.0,0.0,0.0,0.0,0.0,0.0,0.0,0.0,0.0,0.0,0.0,0.0,0.0,0.0,0.0,0.0,0.0,0.0,0.0,0.0,0.0,0.0,0.0,0.0,0.0,0.0,0.0,0.0,0.0,0.0,0.0,0.0,0.0,0.0,0.0,0.0,0.0,0.0,0.0,0.0,0.0,0.0,0.0,0.0,0.0,0.0,4.8821,5.3603,5.7499,5.9203,5.8986,5.8664,5.8428,5.6412,5.3162,4.8429,0.0,0.0,0.0,0.0,0.0,0.0,0.0,0.0,0.0,0.0,0.0,0.0,0.0,0.0,0.0,0.0,0.0,0.0,0.0,0.0,0.0,0.0,0.0,0.0,0.0,0.0,0.0,0.0,0.0,0.0,0.0,0.0,0.0,0.0,0.0,0.0,0.0,0.0,0.0,0.0,0.0,0.0,0.0,0.0,0.0,0.0,0.0,0.0,0.0,0.0,0.0,0.0,0.0,0.0,0.0,0.0,0.0,0.0,0.0,0.0,0.0,0.0,0.0,0.0,0.0,0.0,0.0,0.0,0.0,0.0,0.0,0.0,0.0,0.0,0.0,0.0,0.0,0.0,0.0,0.0,0.0,0.0,0.0,0.0,0.0,0.0,0.0,0.0,0.0,0.0,0.0,0.0,0.0,0.0,0.0,0.0,0.0,0.0,0.0,0.0,0.0,0.0,4.8189,5.3073,5.6982,5.8463,5.8217,5.8063,5.8294,5.6012,5.303,4.9184,0.0,0.0,0.0,0.0,0.0,0.0,0.0,0.0,0.0,0.0,0.0,0.0,0.0,0.0,0.0,0.0,0.0,0.0,0.0,0.0,0.0,0.0,0.0,0.0,0.0,0.0,0.0,0.0,0.0,0.0,0.0,0.0,0.0,0.0,0.0,0.0,0.0,0.0,0.0,0.0,0.0,0.0,0.0,0.0,0.0,0.0,0.0,0.0,0.0,0.0,0.0,0.0,0.0,0.0,0.0,0.0,0.0,0.0,0.0,0.0,4.2056,0.0,0.0,0.0,0.0,0.0,0.0,0.0,0.0,0.0,0.0,0.0,0.0,0.0,0.0,0.0,0.0,0.0,0.0,0.0,0.0,0.0,0.0,0.0,0.0,0.0,0.0,0.0,0.0,0.0,0.0,0.0,0.0,0.0,0.0,0.0,0.0,0.0,0.0,0.0,0.0,0.0,4.9144,5.3008,5.6029,5.7655,5.7599,5.7448,5.7524,5.6363,5.421,5.0982,4.833,0.0,0.0,0.0,0.0,0.0,0.0,0.0,0.0,0.0,0.0,0.0,0.0,0.0,0.0,0.0,0.0,0.0,0.0,0.0,0.0,0.0,0.0,0.0,0.0,0.0,0.0,0.0,0.0,0.0,0.0,0.0,0.0,0.0,0.0,0.0,0.0,0.0,0.0,0.0,0.0,0.0,0.0,0.0,0.0,0.0,0.0,0.0,0.0,0.0,0.0,0.0,0.0,0.0,0.0,0.0,0.0,0.0,0.0,0.0,0.0,4.4354,0.0,0.0,0.0,0.0,0.0,0.0,0.0,0.0,0.0,0.0,0.0,0.0,0.0,0.0,0.0,0.0,0.0,0.0,0.0,0.0,0.0,0.0,0.0,0.0,0.0,0.0,0.0,0.0,0.0,0.0,0.0,0.0,0.0,0.0,0.0,0.0,0.0,0.0,0.0,0.0,4.9379,5.3043,5.5972,5.7419,5.7439,5.7289,5.7139,5.6321,5.4899,5.2937,5.0542,0.0,0.0,0.0,0.0,0.0,0.0,0.0,0.0,0.0,0.0,0.0,0.0,0.0,0.0,0.0,0.0,0.0,0.0,0.0,0.0,0.0,0.0,0.0,0.0,0.0,0.0,0.0,0.0,0.0,0.0,0.0,0.0,0.0,0.0,0.0,0.0,0.0,0.0,0.0,0.0,0.0,0.0,0.0,0.0,0.0,0.0,0.0,0.0,0.0,0.0,0.0,0.0,0.0,4.9978,5.054,5.1246,5.1352,5.1458,5.1509,4.9936,4.9374,4.9431,4.6931,0.0,0.0,0.0,0.0,0.0,0.0,0.0,0.0,0.0,0.0,0.0,0.0,0.0,0.0,0.0,0.0,0.0,0.0,0.0,0.0,0.0,0.0,0.0,0.0,4.8232,4.8473,4.4222,0.0,0.0,0.0,0.0,0.0,0.0,0.0,0.0,0.0,0.0,0.0,4.9984,5.3517,5.6187,5.7493,5.7514,5.7289,5.7063,5.6378,5.5563,5.4759,5.2726,5.0603,0.0,0.0,0.0,0.0,0.0,0.0,0.0,0.0,0.0,0.0,0.0,0.0,0.0,0.0,0.0,0.0,0.0,0.0,0.0,0.0,0.0,0.0,0.0,0.0,0.0,0.0,0.0,0.0,0.0,0.0,0.0,0.0,3.8864,3.95,0.0,0.0,0.0,0.0,0.0,0.0,0.0,0.0,0.0,0.0,0.0,0.0,0.0,4.5999,4.8381,5.1228,5.3014,5.3788,5.6007,5.7034,5.694,5.7233,5.7463,5.754,5.7199,0.0,4.9256,4.9159,0.0,0.0,0.0,0.0,0.0,0.0,0.0,0.0,0.0,0.0,0.0,0.0,0.0,0.0,0.0,0.0,0.0,0.0,0.0,0.0,0.0,0.0,5.2323,5.1861,5.1899,5.2006,0.0,4.847,4.5076,4.3731,4.3459,0.0,0.0,0.0,0.0,0.0,0.0,0.0,5.2369,5.4565,5.6258,5.7746,5.7808,5.7662,5.7289,5.7114,5.6629,5.5521,5.4518,5.3254,5.1559,4.9272,0.0,0.0,0.0,0.0,0.0,0.0,0.0,0.0,0.0,0.0,0.0,0.0,0.0,0.0,0.0,0.0,0.0,0.0,0.0,0.0,0.0,0.0,0.0,0.0,0.0,0.0,0.0,0.0,0.0,3.8713,4.013,4.0365,3.9919,3.8946,0.0,0.0,0.0,0.0,0.0,0.0,0.0,0.0,0.0,4.6575,4.8564,5.0338,5.1915,5.467,5.6282,5.6694,5.8053,5.8545,5.8234,5.8703,5.8697,5.8296,5.8449,5.7,5.4403,5.296,5.0509,4.759,0.0,0.0,0.0,0.0,4.698,4.7342,4.9851,5.0773,0.0,4.8847,0.0,0.0,0.0,0.0,0.0,0.0,0.0,0.0,0.0,0.0,5.3492,5.3905,5.4205,5.4429,5.467,5.2783,5.0279,0.0,4.6493,4.5005,4.1731,0.0,0.0,0.0,0.0,4.9396,5.2876,5.5072,5.666,5.7634,5.7735,5.7588,5.7289,5.7214,5.693,5.6402,5.5994,5.518,5.408,5.2112,4.9763,0.0,0.0,0.0,0.0,0.0,0.0,0.0,0.0,0.0,0.0,0.0,0.0,0.0,0.0,0.0,0.0,0.0,0.0,0.0,0.0,0.0,0.0,0.0,0.0,0.0,0.0,0.0,0.0,4.054,4.167,4.1378,4.2073,4.1592,0.0,0.0,0.0,0.0,0.0,0.0,4.5998,4.6534,4.7818,5.0188,5.2375,5.401,5.5098,5.7032,5.8246,5.8781,5.9137,5.9201,5.8975,5.939,5.9258,5.8719,5.8934,5.897,5.8774,5.6115,5.3957,5.2197,5.0931,5.0173,5.001,5.1257,5.1601,5.1819,5.4454,5.5156,5.4573,5.3008,5.1972,5.0766,4.7134,0.0,0.0,0.0,0.0,4.9424,5.1563,5.2996,5.4168,5.5133,5.5537,5.5745,5.5786,5.5215,5.3894,0.0,4.9642,4.7933,4.4403,0.0,0.0,0.0,4.8361,5.1315,5.3653,5.5579,5.693,5.7325,5.756,5.7588,5.7364,5.7214,5.7072,5.672,5.6734,5.6425,5.5653,5.4245,5.2408,5.0118,0.0,0.0,0.0,0.0,0.0,0.0,0.0,0.0,0.0,0.0,0.0,0.0,0.0,0.0,0.0,0.0,0.0,0.0,0.0,0.0,0.0,0.0,0.0,0.0,0.0,0.0,0.0,0.0,0.0,4.3943,4.5579,0.0,0.0,0.0,0.0,4.475,4.6266,4.8039,5.0102,5.1215,5.2573,5.4449,5.4973,5.5948,5.7332,5.7781,5.8589,5.9744,6.0065,6.0352,6.0477,6.0512,6.0564,6.0615,6.0529,6.02,5.9526,5.7495,5.6685,5.6551,5.5147,5.4146,5.3639,5.5124,5.5269,5.4798,5.5631,5.6527,5.6939,5.5281,5.3168,5.1249,5.0995,4.9872,0.0,0.0,5.1932,5.3275,5.4943,5.5812,5.624,5.6311,5.5776,5.5347,5.5816,5.4656,5.3549,0.0,5.348,5.2502,5.0011,0.0,4.9948,5.139,5.1458,5.2493,5.5485,5.6433,5.6799,5.6867,5.7476,5.7808,5.7588,5.7588,5.7137,5.6021,5.6621,5.6578,5.5653,5.4632,5.3437,5.1987,4.8605,0.0,0.0,0.0,0.0,0.0,0.0,0.0,0.0,0.0,0.0,0.0,0.0,0.0,0.0,0.0,0.0,0.0,0.0,0.0,0.0,0.0,0.0,0.0,0.0,0.0,0.0,0.0,0.0,4.5556,4.7316,0.0,4.4887,4.6186,4.7434,4.8019,5.0128,5.2101,5.3828,5.4323,5.4625,5.4863,5.6466,5.714,5.6772,5.8367,5.9319,5.9652,6.0008,6.0234,6.0297,6.0297,6.036,6.0547,6.0547,6.0494,6.0285,5.9316,5.868,5.8232,5.7801,5.7562,5.7485,5.8079,5.8166,5.7985,5.8442,5.8369,5.8006,5.6866,5.5547,5.4327,5.4327,5.3603,5.2987,5.4037,5.4677,5.523,5.6248,5.6597,5.66,5.6437,5.615,5.5842,5.5922,5.5786,5.5648,5.5634,5.4122,5.2458,5.1083,5.1847,5.2317,5.1356,5.3058,5.4771,5.5859,5.6501,5.6968,5.7442,5.7712,5.7881,5.7808,5.7223,5.6633,5.6144,5.5796,5.5414,5.4924,5.4585,5.361,5.1941,5.0216,4.7326,0.0,0.0,0.0,0.0,0.0,0.0,0.0,0.0,0.0,0.0,0.0,0.0,0.0,0.0,0.0,0.0,0.0,0.0,0.0,0.0,0.0,0.0,0.0,0.0,0.0,4.5522,4.7248,4.6817,4.9084,4.9574,4.6961,4.901,5.076,5.1344,5.3243,5.4869,5.6118,5.6176,5.6077,5.581,5.7114,5.761,5.7095,5.866,5.9504,5.9652,6.0043,6.0171,6.0171,6.0171,6.0234,6.0396,6.0547,6.0432,6.0271,6.0415,6.0017,5.9302,5.9562,5.9816,6.0142,6.0251,5.9979,5.9526,5.9496,5.8827,5.8,5.7796,5.7143,5.6391,5.6391,5.6066,5.5776,5.6283,5.6342,5.6386,5.6825,5.6812,5.66,5.6437,5.6364,5.6253,5.6049,5.648,5.6929,5.6751,5.5104,5.3628,5.329,5.3804,5.3857,5.2585,5.4319,5.5656,5.569,5.6331,5.7002,5.7476,5.7746,5.7881,5.7881,5.6858,5.614,5.5923,5.5074,5.4456,5.4162,5.3592,5.2752,5.1434,5.0151,4.7716,4.4136,0.0,0.0,0.0,0.0,0.0,0.0,0.0,0.0,0.0,0.0,0.0,0.0,0.0,0.0,0.0,0.0,0.0,0.0,0.0,0.0,0.0,0.0,0.0,4.4632,4.7267,4.88,4.7921,5.0929,5.2155,4.9761,5.2081,5.4037,5.4798,5.5595,5.6342,5.6948,5.6917,5.7012,5.7433,5.7046,5.7464,5.866,5.8695,5.908,5.9779,6.0199,6.036,6.0325,6.036,6.036,6.0325,6.0512,6.0026,5.9294,6.0594,6.0629,5.9938,6.0296,6.0875,6.1595,6.1595,6.0699,5.933,5.8658,5.781,5.7216,5.8079,5.784,5.7188,5.7188,5.7188,5.7188,5.7188,5.6984,5.6812,5.6812,5.66,5.6383,5.6383,5.6383,5.6328,5.6253,5.6688,5.7081,5.6964,5.658,5.6391,5.6859,5.5692,5.4839,5.5529,5.5341,0.0,5.5176,5.6062,5.6731,5.6765,5.7408,5.7814,5.7848,5.6528,5.5646,5.54,5.4481,5.3795,5.34,5.19,5.0961,5.0713,4.8302,4.6565,4.5479,0.0,0.0,0.0,0.0,0.0,0.0,0.0,0.0,0.0,0.0,0.0,0.0,0.0,0.0,0.0,0.0,0.0,0.0,0.0,0.0,0.0,4.4058,4.6083,4.6202,4.831,4.9895,5.0158,5.1956,5.303,5.2652,5.3826,5.4919,5.5568,5.6477,5.7071,5.7138,5.7526,5.7353,5.6502,5.773,5.8308,5.7891,5.845,5.8899,5.9236,5.939,5.9294,5.8921,5.9451,5.9441,5.9005,5.9425,5.9531,5.9416,6.0194,6.0235,5.987,6.0617,6.1207,6.1595,6.1444,6.0855,6.0051,5.9437,5.8642,5.7867,5.7608,5.7369,5.7188,5.7188,5.7138,5.7087,5.7188,5.7087,5.6969,5.6969,5.6812,5.6653,5.6546,5.6492,5.6328,5.6253,5.7149,5.7895,5.7716,5.7447,5.7032,5.6495,5.6725,5.6667,5.577,5.5884,0.0,5.5928,5.5587,5.5517,5.5953,5.619,5.6528,5.707,5.6258,5.5576,5.5152,5.4481,5.3833,5.34,5.2964,5.2356,5.1499,4.9648,4.8194,0.0,0.0,0.0,0.0,0.0,0.0,0.0,0.0,0.0,0.0,0.0,0.0,0.0,0.0,0.0,0.0,0.0,0.0,0.0,0.0,0.0,0.0,4.6086,4.8213,4.8739,5.0182,5.1417,5.2044,5.2766,5.3353,5.3845,5.4553,5.5257,5.5894,5.6853,5.7338,5.7188,5.7742,5.7783,5.7234,5.8401,5.8765,5.8191,5.8549,5.871,5.8677,5.8764,5.8673,5.8426,5.8733,5.8814,5.8648,5.902,5.9135,5.917,6.0008,5.9814,0.0,0.0,0.0,0.0,0.0,5.9973,5.9274,5.9042,5.8408,5.765,5.7282,5.7188,5.7188,5.7188,5.7138,5.7087,5.7188,5.7087,5.6984,5.6933,5.6561,5.6276,5.6474,5.6187,5.599,5.6237,5.7384,5.8249,5.8154,5.8316,0.0,5.6899,5.6923,5.6733,5.5736,5.6091,5.6335,5.596,5.5553,5.5519,5.5822,5.6128,5.643,5.6765,5.6122,0.0,0.0,0.0,5.377,5.3042,5.2825,0.0,0.0,0.0,5.0326,5.031,5.0025,0.0,0.0,4.8978,4.9053,0.0,0.0,0.0,0.0,0.0,0.0,0.0,0.0,0.0,0.0,0.0,0.0,0.0,0.0,0.0,0.0,4.7891,5.0295,5.1697,5.2344,5.2902,5.338,5.3285,5.3433,5.4082,5.461,5.5232,5.6115,5.6939,5.7375,5.7333,0.0,0.0,0.0,0.0,5.9011,5.8808,5.8808,5.8571,5.8096,5.819,5.8213,5.8316,5.832,5.8507,5.873,5.9003,5.9046,5.8829,5.9819,5.9382,5.821,5.9207,5.9322,5.9,5.9219,5.8625,5.7872,5.8214,0.0,0.0,5.7138,5.7188,5.7188,5.7188,5.7188,5.7188,5.7188,5.7087,5.6933,5.6776,5.624,5.5758,5.6295,5.5919,5.5633,5.6221,5.7277,5.8202,5.8213,5.894,5.9149,5.7666,5.6779,5.6171,5.577,5.626,5.6368,5.5647,5.5891,5.6031,5.5859,0.0,0.0,5.687,5.6224,5.6122,5.6765,5.5336,5.3975,5.281,5.2554,5.2335,5.2163,5.2113,5.2692,5.4022,5.4384,5.4727,5.4854,5.121,5.0807,0.0,0.0,0.0,0.0,0.0,0.0,0.0,0.0,0.0,0.0,0.0,0.0,0.0,0.0,0.0,4.753,5.0417,5.269,5.3491,5.3572,5.3347,5.2713,5.3034,5.3781,5.4984,5.4647,5.5103,5.7024,5.7266,5.7615,5.7975,5.9059,5.9316,5.8566,5.9678,5.9637,5.8401,5.8401,5.8131,5.749,0.0,0.0,5.6992,5.811,5.8223,5.7694,5.8571,5.8948,5.892,5.9628,5.9545,5.895,5.8697,5.865,5.8866,5.9509,5.8831,5.7779,5.8699,5.8052,5.6829,5.6984,5.7087,5.7188,5.7188,5.7138,0.0,5.7036,5.6933,5.6812,5.6707,5.7012,5.7154,5.658,5.6775,5.6934,5.612,5.6702,5.7435,5.7806,5.8035,5.8227,5.838,5.8511,5.8178,5.6771,5.7152,5.7292,5.6268,5.5754,5.5347,5.4941,5.5111,5.5757,5.691,5.6735,5.663,5.6765,5.6241,5.5643,5.5214,5.5746,5.5554,5.4656,5.5172,5.5226,5.4776,5.5292,5.5864,5.6385,5.5458,5.5263,0.0,0.0,0.0,0.0,0.0,0.0,0.0,0.0,0.0,0.0,0.0,4.0703,4.2265,0.0,4.7258,4.9556,5.139,5.2878,5.394,5.3907,5.3567,5.3006,5.3142,5.3713,5.47,5.4444,5.4838,5.6306,5.6637,5.684,5.6948,5.8646,5.9245,5.8391,5.9586,5.9657,5.8426,5.8059,5.7569,5.6954,5.6989,5.6989,5.6989,5.7605,5.7729,5.7444,5.8297,5.845,5.8227,5.8191,5.8167,5.8083,5.7246,5.76,5.8659,5.9224,5.8709,5.7798,5.8412,5.7836,5.6933,5.7036,5.7087,5.7087,5.7087,5.7036,5.6984,5.6881,5.6881,5.6829,5.6653,5.66,5.6546,5.6437,5.6364,5.6217,5.6106,5.6595,5.7258,5.7832,5.8229,5.8554,5.8689,5.916,5.9102,5.7728,5.8045,5.8117,5.7259,5.6745,5.6234,5.5587,5.586,5.6302,5.7015,5.7281,5.7509,5.7881,5.7588,5.7566,5.7706,5.763,5.7233,5.6402,5.6402,5.6204,5.5686,5.609,5.6531,5.6972,5.7223,5.7409,0.0,0.0,0.0,0.0,0.0,0.0,0.0,3.6249,3.7714,3.934,4.1357,4.333,4.4945,4.6762,4.8793,5.1102,5.1843,5.2582,5.3903,5.3907,5.3716,5.36,5.344,5.3608,5.4202,5.4166,5.4488,5.5487,5.5957,5.6187,5.6176,5.7945,5.8887,5.8639,5.9336,5.9322,5.8566,5.7982,5.7382,5.6706,5.6775,5.7056,5.7433,5.7317,5.7374,5.7541,5.8044,5.7974,5.7534,5.7026,5.7022,5.7188,5.6294,5.6999,5.8508,5.8595,5.8244,5.7782,5.7891,5.7513,5.6984,5.7087,5.7087,5.6984,5.7036,5.6984,5.6984,5.6865,5.6917,5.6933,5.6653,5.6241,5.5973,5.6509,5.6185,5.5806,5.6304,5.6901,5.7471,5.7892,5.8607,5.9143,5.8997,5.9459,5.9404,5.838,5.8699,5.8737,5.7945,5.7774,5.7398,5.6712,5.7056,5.7327,5.7287,5.7823,5.8428,5.8964,5.8984,5.9127,5.9499,5.8775,5.8163,5.7767,5.7206,5.6876,5.6909,5.6988,5.7233,5.756,5.8097,5.83,3.3191,3.3761,3.48,3.547,3.6265,3.7702,0.0,4.1523,4.2162,4.3812,4.4915,4.6003,4.7488,4.8375,4.9563,5.1746,5.258,5.3253,5.3977,5.4055,5.4018,5.387,5.3639,5.3732,5.4417,5.3912,5.4259,5.5982,5.6104,5.6609,5.7693,5.8371,5.9023,5.9715,5.9109,5.8752,5.8681,5.8494,5.7974,5.7228,5.7903,5.8142,5.8001,5.8096,5.7952,5.7658,5.7576,5.7674,5.7728,5.7719,5.7771,5.7892,5.7786,5.8036,5.8436,5.761,5.7463,5.7652,5.7782,5.7353,5.6829,5.6984,5.6984,5.7036,5.7138,5.7087,5.6984,5.6865,5.6917,5.6933,5.6653,5.7065,5.7531,5.7639,5.7938,5.811,5.7356,5.7717,5.8142,5.7998,5.8545,5.9194,5.9861,5.9873,5.9404,5.838,5.8834,5.8907,5.7844,5.7808,5.7672,5.7121,5.7225,5.7462,5.7785,5.8749,5.9298,5.8998,5.9607,5.9785,5.9499,5.9354,5.9164,5.8767,5.8701,5.8668,5.8668,5.8216,5.8412,5.9067,5.8722,5.8475,3.7283,3.6721,3.6279,3.7739,3.9162,4.0564,4.2041,4.2772,4.3618,4.5318,4.6224,4.7045,4.8075,4.876,4.987,5.1982,5.2439,5.2902,5.4048,5.3753,5.3381,5.3309,5.3163,5.3271,5.3927,5.3665,5.3944,5.5021,5.5301,5.5726,5.6489,5.7512,5.8146,5.841,5.8315,5.8136,5.7911,5.7968,5.7519,5.6489,5.7326,5.7447,5.7148,5.7208,5.7333,5.7409,5.6659,5.658,5.6965,5.6606,5.6515,5.6658,5.6575,5.7035,5.7646,5.7326,5.7391,5.7652,5.7727,5.7334,5.6778,5.7405,5.7277,5.6881,5.6933,5.6984,5.6933,5.676,5.6812,5.6812,5.6546,5.6742,5.6992,5.6992,5.7132,5.7107,5.673,5.7149,5.7683,5.7928,5.8607,5.9354,5.9966,6.0008,5.9774,5.9199,5.9245,5.9147,5.8531,5.8428,5.829,5.7941,5.7941,5.7973,5.8065,5.8812,5.9349,5.9607,6.0198,6.065,6.0772,6.0211,5.9771,5.9366,5.9051,5.8819,5.8738,5.8807,5.9002,5.9296,5.9123,5.8912,3.8981,3.8489,3.8083,3.9621,4.1356,4.2688,4.2733,4.3434,4.4327,4.5294,4.6279,4.7095,4.7526,4.8333,4.9652,5.1722,5.2143,5.2686,5.4149,5.3559,5.3075,5.33,5.3008,5.305,5.372,5.36,5.3801,5.4407,5.4755,5.5184,5.579,5.6815,5.7476,5.758,5.764,5.764,5.7377,5.7525,5.7071,5.6082,5.6917,5.7068,5.6641,5.6554,5.6659,5.6718,5.5879,5.5764,5.6099,5.5718,5.5625,5.5706,5.5625,5.6059,5.675,5.6808,5.7121,5.7525,5.7476,5.7065,5.6761,5.7442,5.728,5.676,5.6829,5.6917,5.6881,5.6707,5.676,5.6812,5.6546,5.6437,5.6509,5.6723,5.6684,5.6573,5.6573,5.7384,5.8036,5.8058,5.902,5.9917,6.0352,6.0358,6.0294,6.0128,5.9832,5.9493,5.9115,5.9081,5.901,5.8798,5.904,5.9003,5.8511,5.9287,5.9994,6.0461,6.1052,6.1379,6.1676,6.1046,6.0503,6.0076,5.9712,5.9448,5.9284,5.9727,5.9971,5.9919,6.0031,5.9813,3.5868,3.751,3.9663,4.0615,4.2206,4.3578,4.3651,4.4327,4.472,4.386,4.4954,4.5997,4.5891,4.7062,4.875,5.0886,5.1831,5.2779,5.4312,5.3828,5.3602,5.4355,5.3587,5.3337,5.4161,5.3831,5.386,5.4807,5.4942,5.5473,5.651,5.6865,5.7381,5.8175,5.7454,5.7225,5.771,5.7412,5.7104,5.6596,5.7403,5.7569,5.7254,5.6675,5.6064,5.5578,5.5543,5.5507,5.5543,5.5683,5.5706,5.5706,5.5706,5.5764,5.5936,5.5799,5.6432,5.7249,5.6778,5.66,5.6653,5.676,5.6707,5.6653,5.6917,5.6917,5.6776,5.6812,5.6881,5.6933,5.6653,5.66,5.6779,5.7567,5.7672,5.756,5.756,5.9112,6.0078,5.8591,5.9902,6.123,6.1265,6.1099,6.0967,6.0967,6.0667,6.0185,5.9423,5.9598,5.9764,5.9549,6.0343,6.048,5.9366,6.0734,6.1695,6.1537,6.2096,6.2189,6.1709,6.1676,6.1465,6.1086,6.1053,6.1053,6.1053,6.1495,6.1653,6.1426,6.1881,6.1458,3.845,4.041,4.211,4.251,4.3553,4.4345,4.3812,4.3933,4.4023,4.3659,4.3557,4.3665,4.4008,4.4893,4.6417,4.91,5.1158,5.2929,5.4446,5.4802,5.4651,5.3887,5.4296,5.438,5.3691,5.3609,5.4142,5.5339,5.5259,5.5668,5.6912,5.6984,5.7129,5.7381,5.7025,5.6761,5.6517,5.6936,5.6646,5.5644,5.5924,5.6064,5.6099,5.5724,5.5539,5.5507,5.5625,5.5566,5.5507,5.5566,5.5566,5.5566,5.5413,5.5472,5.5648,5.5648,5.5941,5.6303,5.6893,5.6811,5.6599,5.7154,5.6975,5.6653,5.6776,5.6865,5.6812,5.6812,5.676,5.6707,5.6492,5.6437,5.6509,5.6849,5.6866,5.6811,5.67,5.832,5.9451,5.8305,5.9812,6.13,6.13,6.0714,6.0307,6.0597,6.0531,6.0289,5.991,6.032,6.0553,6.0335,6.0467,6.0183,5.9214,6.0536,6.1215,6.0596,6.1436,6.187,6.1709,6.1417,6.1252,6.1119,6.1119,6.1119,6.1119,6.156,6.1719,6.1751,6.2003,6.1613,4.1277,4.3033,4.4292,4.4732,4.485,4.4642,4.3885,4.3456,4.3124,4.2759,4.2247,4.1926,4.2252,4.2932,4.4303,4.6991,4.981,5.2275,5.408,5.4937,5.5244,5.4818,5.5262,5.531,5.4627,5.4652,5.4936,5.5681,5.5742,5.615,5.7216,5.7289,5.7188,5.7087,5.7273,5.6904,5.607,5.6794,5.6564,5.5378,5.5378,5.5378,5.5354,5.5354,5.5354,5.5413,5.5531,5.5472,5.5329,5.5448,5.5448,5.5329,5.5294,5.5354,5.5507,5.5625,5.5648,5.5835,5.6617,5.6644,5.6435,5.6989,5.6866,5.6546,5.6707,5.676,5.676,5.676,5.6653,5.6546,5.6437,5.6383,5.6383,5.6383,5.6383,5.649,5.6664,5.8107,5.9239,5.8648,6.0199,6.1621,6.1687,6.1345,6.0904,6.0565,6.0913,6.1189,6.1013,6.1284,6.1448,6.1155,6.1286,6.1,6.0028,6.1037,6.1545,6.1037,6.1604,6.187,6.1709,6.1499,6.1252,6.1119,6.1119,6.1119,6.1119,6.156,6.1719,6.1665,6.2003,6.1703,4.3901,4.5163,4.6176,4.6964,4.5949,4.4596,4.3746,4.2896,4.1991,4.1012,4.0799,4.0721,4.0483,4.1196,4.2556,4.4763,4.7952,5.1014,5.3433,5.4352,5.5422,5.7105,5.6451,5.6165,5.6847,5.6669,5.6323,5.5923,5.6353,5.6885,5.7401,5.7679,5.7667,5.7261,5.7861,5.7637,5.6383,5.6908,5.668,5.5706,5.5706,5.5531,5.5199,5.5413,5.5413,5.5199,5.5413,5.5329,5.4992,5.5329,5.5234,5.4992,5.5329,5.5448,5.5507,5.5507,5.5566,5.5706,5.6085,5.6197,5.6197,5.6364,5.6383,5.6437,5.6546,5.66,5.66,5.66,5.66,5.6546,5.6437,5.6383,5.6383,5.6383,5.6383,5.6633,5.7418,5.852,5.938,5.9476,6.0873,6.2153,6.2252,6.2851,6.2613,6.0808,6.1744,6.2608,6.2427,6.2496,6.2385,6.2015,6.2741,6.2843,6.1639,6.2285,6.2693,6.2659,6.2459,6.2223,6.1709,6.1709,6.1499,6.1119,6.1119,6.1119,6.1119,6.156,6.1719,6.1491,6.2035,6.1703,4.5208,4.6865,4.8183,4.6693,4.5551,4.4261,4.2163,4.1046,4.0029,3.8473,3.8185,3.7918,3.7045,3.917,4.1692,4.3861,4.8113,5.1955,5.4267,5.633,5.751,5.7295,5.8065,5.8189,5.7105,5.7829,5.797,5.7215,5.7038,5.7169,5.7642,5.8006,5.817,5.821,5.7746,5.7349,5.7036,5.6316,5.586,5.5706,5.5625,5.5507,5.5448,5.5507,5.5448,5.5448,5.5354,5.5174,5.4992,5.493,5.4834,5.4772,5.4965,5.5113,5.5259,5.5259,5.5413,5.5566,5.5764,5.6028,5.6197,5.6253,5.6308,5.6437,5.6546,5.6546,5.6492,5.66,5.6546,5.6437,5.6383,5.6383,5.6383,5.6383,5.6328,5.6466,5.71,5.8284,5.9373,5.9812,6.1195,6.2147,6.1453,6.1879,6.1848,6.0704,6.1154,6.1671,6.1599,6.2454,6.3028,6.2726,6.2939,6.2616,6.152,6.2208,6.2411,6.168,6.1964,6.1997,6.1917,6.1628,6.1383,6.1334,6.1169,6.1119,6.1119,6.173,6.1976,6.1751,6.2212,6.197,4.7047,4.8546,4.9583,4.7572,4.623,4.469,4.2136,4.0344,3.8856,3.7494,3.6577,3.5959,3.5689,3.7569,3.9804,4.1972,4.6643,5.0773,5.2997,5.6118,5.806,5.799,5.8992,5.9273,5.8156,5.8728,5.8798,5.7951,5.7788,5.7795,5.8051,5.8179,5.8327,5.845,5.7949,5.7601,5.7412,5.6325,5.5799,5.5822,5.5648,5.5472,5.5354,5.5354,5.5354,5.5354,0.0,5.4896,5.4745,5.4683,5.4523,5.4523,5.4717,5.493,5.5199,5.5199,5.5354,5.5507,5.5625,5.5764,5.5993,5.6141,5.6253,5.6364,5.6492,5.6383,5.6364,5.6492,5.6437,5.6383,5.6383,5.6383,5.6383,5.6383,5.6558,5.6958,5.8,5.8779,5.953,6.0744,6.2007,6.2603,6.1564,6.223,6.2231,6.0254,6.1327,6.2048,6.1392,6.2286,6.3033,6.3117,6.3152,6.2829,6.2115,6.2455,6.2445,6.1961,6.2066,6.211,6.1997,6.1709,6.1465,6.1383,6.1169,6.1119,6.1119,6.1399,6.1429,6.1172,6.1426,6.1131,4.9006,4.999,5.0417,4.8924,4.7412,4.5562,4.29,4.0317,3.8197,3.7084,3.5671,3.4782,3.5427,3.65,3.8016,4.029,4.4722,4.874,5.1281,5.4952,5.7726,5.8684,5.9457,5.9748,5.9399,5.9327,5.9024,5.8363,5.8449,5.8443,5.8349,5.8305,5.8244,5.8232,5.8223,5.7998,5.7382,5.6573,5.6049,5.5879,5.5706,5.5531,5.5199,5.5199,5.5199,5.5199,5.4834,5.4586,5.4494,5.4494,5.4367,5.4205,5.4655,5.493,5.5139,5.5199,5.5294,5.5448,5.5507,5.5625,5.5764,5.6028,5.6141,5.6197,5.6273,5.6273,5.6253,5.6364,5.6383,5.6383,5.6383,5.6383,5.6418,5.6525,5.6893,5.7704,5.9301,5.9557,5.9988,6.1663,6.2746,6.3129,6.202,6.3067,6.2996,5.9976,6.1776,6.2979,6.1634,6.2151,6.2802,6.3233,6.3302,6.3227,6.3,6.2847,6.2693,6.2727,6.2537,6.2302,6.2076,6.187,6.1628,6.1465,6.1252,6.1119,6.1119,6.0919,6.0633,6.0463,6.0239,6.0011,4.993,5.0329,5.0468,4.9688,4.8316,4.6325,4.3044,4.033,3.7851,3.5532,3.4818,3.4627,3.4706,3.6612,3.9131,4.2063,4.5115,4.8548,5.2767,5.5347,5.7225,5.847,5.9355,5.9753,5.9364,5.914,5.8905,5.8492,5.8492,5.8363,5.8088,5.84,5.8393,5.7898,5.797,5.7622,5.6761,5.638,5.5971,5.5566,5.5566,5.5389,5.5053,5.5139,5.5199,5.5199,5.4834,0.0,5.4494,5.4494,5.4303,5.4045,5.4431,5.4717,5.4904,5.4992,5.5174,5.5259,5.5448,5.5648,5.5879,5.5822,5.5879,5.5993,5.5957,5.6106,5.6197,5.6253,5.6273,5.6383,5.6383,5.6383,5.6506,5.7036,5.7114,5.7529,5.9001,6.0192,6.102,6.134,6.2073,6.2354,6.1551,6.2402,6.2614,6.0736,6.1743,6.2565,6.2324,6.2944,6.3388,6.3302,6.3452,6.3377,6.3076,6.3,6.2847,6.2727,6.2537,6.2381,6.2302,6.211,6.1837,6.1628,6.1465,6.1252,6.1119,6.1002,6.0919,6.0633,6.0463,6.0533,5.1307,5.1398,5.1143,5.054,4.8882,4.6512,4.3119,4.0344,3.7773,3.5174,3.4618,3.4594,3.4505,3.63,3.8377,4.0192,4.3413,4.6992,5.0811,5.3989,5.6633,5.8524,5.945,5.9853,5.9543,5.929,5.9063,5.8784,5.8661,5.8486,5.8223,5.8492,5.84,5.781,5.7778,5.7388,5.66,5.6217,5.5822,5.5507,5.5507,5.5354,5.5079,5.5199,5.5199,5.5199,5.4772,5.462,5.462,5.4367,5.4239,5.4239,5.4303,5.4529,5.4842,5.493,5.5079,5.5259,5.5448,5.5566,5.5648,5.5625,5.5764,5.6049,5.6049,5.6106,5.6197,5.6197,5.6308,5.6435,5.6715,5.6878,5.7148,5.7704,5.8308,5.8941,5.953,6.0838,6.1757,6.1371,6.2213,6.2635,6.1345,6.2193,6.2405,6.0842,6.1638,6.2496,6.2496,6.3117,6.36,6.3452,6.3526,6.3526,6.3302,6.3152,6.3,6.2847,6.2537,6.2381,6.2381,6.203,6.179,6.1709,6.1417,6.1169,6.1119,6.1119,6.1002,6.0717,6.0857,6.1044,5.2094,5.2257,5.1991,5.1431,4.9582,4.6995,4.3453,4.0662,3.8042,3.5506,3.4759,3.464,3.4761,3.597,3.7286,3.8316,4.1419,4.4976,4.8606,5.2403,5.5797,5.8339,5.9467,5.9912,5.9744,5.9436,5.914,5.8984,5.8739,5.8566,5.8393,5.8396,5.8166,5.7554,5.7526,5.7137,5.6402,5.6055,5.5764,5.5448,5.5448,5.5294,5.5079,5.5139,5.5199,5.5079,5.4745,5.462,5.4648,5.4239,5.4239,5.4431,5.4239,5.4431,5.478,5.493,5.5053,5.5139,5.5448,5.5507,5.5507,5.5507,5.5799,5.6085,5.6085,5.6085,5.6177,5.6319,5.6502,5.67,5.7198,5.7583,5.7911,5.8379,5.9399,6.0199,6.0135,6.1055,6.1722,6.116,6.2283,6.2778,6.1002,6.1952,6.2405,6.0947,6.1776,6.253,6.2703,6.322,6.36,6.36,6.36,6.36,6.36,6.3227,6.3,6.3,6.2751,6.255,6.2381,6.2119,6.1958,6.179,6.1417,6.1169,6.1169,6.1169,6.1069,6.1066,6.1369,6.1568,5.1218,5.2196,5.2761,5.2307,5.0906,4.8574,4.4429,4.1523,3.8932,3.6338,3.5176,3.4834,3.5539,3.5878,3.6766,3.9112,4.0429,4.3014,4.8452,5.1497,5.4393,5.751,5.9155,5.9944,5.9809,5.9326,5.8984,5.8825,5.8486,5.8305,5.8393,5.807,5.7554,5.6712,5.7048,5.6732,5.5734,5.5826,5.5671,5.5259,5.5259,5.4957,5.4557,5.5018,5.5113,5.4842,5.493,5.4807,0.0,5.4431,5.4367,5.4239,5.4239,5.4303,5.4592,5.4869,5.493,5.4904,5.5329,5.5507,5.5507,5.5507,5.5625,5.5706,5.5625,5.5706,5.6078,5.667,5.7056,5.737,5.8048,5.8284,5.8556,5.8976,5.9636,6.0107,6.0107,6.0212,6.0282,6.0212,6.131,6.1736,6.0163,6.15,6.2437,6.164,6.2087,6.2737,6.3393,6.3565,6.36,6.36,6.36,6.36,6.36,6.3227,6.3,6.3,6.326,6.3091,6.2415,6.2818,6.2737,6.1997,6.179,6.1547,6.1383,6.1383,6.1584,6.208,6.1719,6.2179,5.227,5.3298,5.3664,5.3135,5.1088,4.8214,4.4507,4.164,3.9083,3.6508,3.5655,3.5476,3.5781,3.5872,3.6216,3.7194,3.8882,4.1344,4.4977,4.8529,5.2104,5.5794,5.7654,5.8935,5.9804,5.9128,5.8503,5.8236,5.7872,5.7661,5.774,5.7361,5.6813,5.6095,5.5848,5.5663,5.5502,5.5182,5.5097,5.5199,5.5199,5.5079,5.4896,5.5139,5.5079,5.493,5.4904,5.4842,0.0,5.4431,5.4431,5.4529,5.4303,5.4303,5.4494,5.478,5.4842,5.4842,5.5174,5.5354,5.5354,5.5448,5.5625,5.5812,5.6212,5.6152,5.602,5.6717,5.7104,5.7419,5.7917,5.8738,5.9514,5.9867,6.0023,6.0107,6.0107,6.0107,6.0107,6.0107,6.1204,6.1631,6.0058,6.1431,6.2264,6.1086,6.1811,6.2599,6.2875,6.3324,6.36,6.36,6.36,6.3526,6.3452,6.3152,6.2923,6.2847,6.2809,6.2719,6.2415,6.2333,6.2173,6.1997,6.1547,6.1417,6.1547,6.1767,6.1965,6.2179,6.2519,6.2974,5.2068,5.3336,5.3877,5.3576,5.1074,4.7812,4.4471,4.1679,3.9083,3.6516,3.5938,3.5917,3.5917,3.5889,3.5899,3.5899,3.7585,3.982,4.2623,4.6022,4.9719,5.3671,5.521,5.6605,5.8372,5.8267,5.789,5.7492,5.7223,5.6989,5.6603,5.6399,5.5975,5.5423,5.4994,5.4907,5.5036,5.4455,5.4323,5.477,5.4594,5.4535,5.4475,5.4594,5.4475,5.427,5.4209,5.4087,0.0,5.3954,5.4121,5.4344,5.4235,5.4303,5.4529,5.4655,5.4717,5.4842,5.5079,5.5199,5.5259,5.5448,5.5566,5.5824,5.6564,5.6364,5.5963,5.6717,5.7364,5.7883,5.8184,5.9186,6.0234,6.0297,6.0171,6.0107,6.0008,6.0107,6.0107,6.0008,6.0963,6.1285,5.9993,6.0946,6.1605,6.0532,6.136,6.222,6.2461,6.3117,6.36,6.36,6.3526,6.3452,6.3302,6.3152,6.2923,6.2693,6.2696,6.2618,6.2302,6.2307,6.2326,6.2253,6.1949,6.2,6.2297,6.2498,6.261,6.267,6.3308,6.3538,4.9778,5.171,5.3167,5.3436,5.1092,4.7827,4.4471,4.1679,3.9049,3.6434,3.5899,3.5883,3.5905,3.5894,3.5914,3.5914,3.6599,3.851,4.2535,4.4616,4.7216,5.1267,5.1759,5.2709,5.5084,5.6548,5.7121,5.6668,5.6667,0.0,5.4973,5.5133,5.5057,5.47,5.4964,5.4692,5.3927,5.3547,5.347,5.3635,5.3155,5.2846,5.2729,5.3077,5.2962,5.2493,5.2671,5.2552,0.0,5.286,5.3266,5.3432,5.3836,5.4175,5.4494,5.4494,5.4655,5.4842,5.5079,5.5199,5.5259,5.5448,5.5507,5.5648,5.6385,5.6188,5.5883,5.6658,5.7998,5.9162,5.9162,5.9796,6.0333,6.0171,6.0107,6.0043,5.9879,5.9943,6.0008,5.9879,6.0311,6.0491,5.9725,5.9977,6.022,6.0185,6.084,6.1599,6.2393,6.3117,6.36,6.36,6.3452,6.3302,6.3302,6.3152,6.2923,6.2693,6.317,6.3045,6.203,6.3165,6.3551,6.2848,6.3299,6.3581,6.3581,6.3581,6.3723,6.3979,6.3711,6.3741,4.7114,4.8579,4.9412,4.8512,4.7173,4.5156,4.18,3.9921,3.8348,3.6378,3.5919,3.5894,3.5958,3.5935,3.6091,3.6684,3.7442,3.8772,4.1092,4.4414,4.7692,5.0478,5.3722,5.5832,5.6099,5.6793,5.6922,5.6187,5.6086,5.573,5.5135,5.4764,5.4429,5.4044,5.3949,5.3873,5.3753,5.3232,5.3087,5.347,5.3098,5.2869,5.2869,5.2811,5.2636,5.2339,5.2339,5.2157,5.1981,5.2922,5.3232,5.3238,5.3866,5.4175,5.4303,5.4303,5.4367,5.4431,5.493,5.5018,5.5113,5.5389,5.5507,5.5543,5.5871,5.5801,5.5848,5.7233,5.755,5.7842,5.9585,5.9734,5.9538,5.9966,6.0107,6.0008,5.9879,5.9943,6.0043,5.9718,6.0212,6.0563,6.0184,6.0566,6.0944,6.0944,6.1599,6.2186,6.2461,6.3117,6.36,6.36,6.3452,6.3227,6.3076,6.2923,6.2693,6.2459,6.2618,6.2618,6.2302,6.281,6.3131,6.2978,6.3215,6.353,6.3784,6.4029,6.4311,6.4465,6.4099,6.3952,4.4903,4.6051,4.6485,4.6035,4.4598,4.2719,4.0348,3.8902,3.7653,3.6274,3.5978,3.5962,3.6009,3.5981,3.6095,3.6635,3.7423,3.8663,4.0797,4.4045,4.7133,4.9739,5.3441,5.5401,5.4396,5.5635,5.6025,5.4781,5.5163,5.5174,5.4462,5.4348,5.4166,5.383,5.3563,5.3584,5.3763,5.2858,5.26,5.2874,5.2443,5.2166,5.2018,5.1939,5.1709,5.1321,5.1356,5.1176,0.0,5.2035,5.2578,5.2729,5.321,5.3724,5.4269,5.3896,5.4063,5.4494,5.4869,5.5053,5.5113,5.5389,5.5507,5.5578,5.5942,5.5836,5.5742,5.6786,5.6892,5.7138,5.8932,5.9186,5.9159,5.9931,5.9978,5.9914,5.9748,5.9849,5.9849,5.952,5.9835,6.0252,6.0427,6.0704,6.0978,6.1325,6.205,6.2496,6.2423,6.3078,6.3526,6.3377,6.3227,6.3076,6.2923,6.277,6.2615,6.2381,6.2381,6.2381,6.2268,6.2878,6.3249,6.3299,6.3829,6.4241,6.45,6.4531,6.4548,6.4702,6.4179,6.4024,0.0,4.379,4.4135,4.5041,4.2956,4.0493,3.9724,3.8385,0.0,3.6168,3.6001,3.6027,3.6083,3.6044,3.6005,3.6089,3.6757,3.8383,4.148,4.3775,4.6267,4.9409,5.1694,5.2411,5.0909,5.3545,5.4599,5.2843,5.4204,5.4524,5.3188,5.3812,5.4125,5.387,5.3608,5.3569,5.3756,5.2571,5.197,5.1922,5.1327,5.0858,5.0624,5.057,5.0328,0.0,4.9942,4.9767,4.9539,5.0506,5.1287,5.1905,5.1974,5.2991,5.4293,5.341,5.3776,5.478,5.493,5.5079,5.5199,5.5448,5.5507,5.5648,5.6315,5.6153,5.5648,5.5578,5.6188,5.6916,5.7579,5.8316,5.9018,5.9826,5.9814,5.9621,5.9621,5.9656,5.969,5.9319,5.9388,5.9768,6.0597,6.0463,6.06,6.1606,6.2191,6.2423,6.2272,6.3039,6.3452,6.3076,6.3,6.2923,6.2727,6.2727,6.2615,6.2381,6.2381,6.2268,6.1997,6.3165,6.3718,6.3615,6.4785,6.5425,6.5425,6.4976,6.4702,6.4702,6.4179,6.4024,3.9871,0.0,4.0236,3.925,3.9015,3.8624,0.0,3.7089,3.7063,3.6171,3.601,3.6189,3.686,3.645,3.6421,3.7687,3.8054,3.9123,4.1743,4.6293,5.0317,5.2935,5.3678,5.3574,5.2598,5.3728,5.4066,5.2953,5.4282,5.4372,5.2545,5.3208,5.3268,5.2432,5.2323,5.2641,5.3404,5.2454,5.1828,5.1475,5.0642,5.0354,5.061,5.0358,5.0294,5.0285,5.0171,4.9825,4.9358,5.0566,5.1004,5.1028,5.1795,5.2681,5.341,5.3266,5.3679,5.4431,5.4869,5.5053,5.5113,5.5389,5.5507,5.5543,5.5718,5.5553,5.5459,5.6174,5.5974,5.5914,5.7289,5.7744,5.7961,5.8636,5.9264,5.9683,5.9586,6.0272,6.0583,5.949,6.0391,6.1259,6.1119,6.1118,6.1496,6.2914,6.2664,6.2483,6.2993,6.3124,6.3076,6.3,6.2847,6.277,6.2693,6.2537,6.2459,6.2381,6.2381,6.2268,6.1997,6.2662,6.3183,6.3615,6.4785,6.5425,6.5425,6.4976,6.4702,6.4702,6.4179,6.4024,3.7832,3.8108,3.8407,3.7655,3.7618,3.7545,3.6684,3.6606,3.6472,3.5584,3.5391,3.5545,3.6005,3.6381,3.6868,3.7776,3.9223,4.1266,4.4142,4.7829,5.1099,5.3551,5.4139,5.4019,5.3217,5.3848,5.3656,5.2022,5.3283,5.3467,5.1934,5.2513,5.2598,5.1931,5.1893,5.2143,5.2642,5.1931,5.1437,5.103,5.0387,5.0118,5.0091,4.9936,4.9867,5.0006,4.982,4.9631,4.9505,5.0154,5.0798,5.1321,5.1666,5.2658,5.3839,5.3521,5.3839,5.4367,5.4745,5.493,5.5122,5.5774,5.5694,5.5424,5.5894,5.5634,5.5269,5.5809,5.5669,5.5704,5.7192,5.7541,5.7723,5.8776,5.9648,6.0206,5.9974,6.07,6.1115,5.9909,6.0428,6.1086,6.0912,6.0876,6.1323,6.2952,6.2591,6.2404,6.3049,6.3076,6.2923,6.277,6.2693,6.2615,6.2537,6.2459,6.2381,6.2189,6.2189,6.211,6.1837,6.233,6.2933,6.3411,6.4453,6.4763,6.4432,6.4647,6.4538,6.4211,6.4017,6.4024,3.6748,3.7163,3.7955,3.7758,3.7334,3.6992,3.7001,3.6469,3.5762,3.5037,3.4916,3.4995,3.5263,3.6389,3.7396,3.7752,4.0549,4.387,4.7222,4.8991,5.0769,5.2955,5.3776,5.3848,5.3087,5.3643,5.3105,5.0894,5.2077,5.2432,5.1318,5.1836,5.2,5.1613,5.155,5.1523,5.1424,5.1154,5.0898,5.0745,5.0244,4.9834,4.9541,4.9441,4.9434,4.9574,0.0,0.0,4.9708,4.9708,5.0582,5.1804,5.1464,5.2597,5.4364,5.381,5.4025,5.4529,5.4717,5.4904,5.5157,5.6169,5.6019,5.5539,5.636,5.6089,5.5514,5.5409,5.5529,5.5939,5.7114,5.7541,5.8031,5.926,6.0105,6.0632,6.0427,6.112,6.1502,6.0427,6.0566,6.0669,6.0531,6.0566,6.1047,6.2297,6.235,6.2398,6.2761,6.2855,6.277,6.2459,6.2537,6.2537,6.2381,6.2381,6.2302,6.1997,6.2076,6.1917,6.1709,6.2382,6.2864,6.3272,6.4188,6.432,6.3603,6.4383,6.4374,6.3785,6.3887,6.4024,3.7205,3.8079,3.8333,3.6381,3.645,3.6859,3.6242,3.6011,3.5888,3.5837,3.581,3.6247,3.7734,3.7606,3.8017,4.0145,4.2744,4.5683,4.9127,5.0906,5.2259,5.3232,5.3397,5.3109,5.2262,5.2338,5.1953,5.0778,5.212,5.228,5.0725,5.1217,5.1125,5.0241,5.0099,4.992,4.9701,5.0272,5.0511,5.0375,4.9666,4.9453,4.9661,4.93,4.9496,5.0075,0.0,4.9611,4.9708,4.986,4.9997,5.0145,5.12,5.1939,5.2693,5.3454,5.4087,5.4529,5.4717,5.4904,5.5131,5.5924,5.616,5.6213,5.6414,5.6737,5.7017,5.6388,5.6213,5.6344,5.6528,5.7541,5.8526,5.8446,5.9624,6.0632,6.0427,6.1675,6.2336,6.0774,6.1985,6.2678,6.06,6.1662,6.2483,6.1384,6.2084,6.2429,6.1885,6.2208,6.2459,6.2381,6.2459,6.2459,6.2381,6.2381,6.2302,6.1997,6.2189,6.2144,6.1709,6.3015,6.3566,6.3272,6.4773,6.5404,6.5094,6.4844,6.4636,6.4538,6.4114,6.4024,3.4908,3.5886,3.6856,3.6276,3.7974,3.9665,3.9373,3.9012,3.8467,3.7546,3.7011,3.7102,3.8359,3.8629,3.9945,4.3924,4.4748,4.5928,4.8872,4.9886,5.0765,5.1949,5.242,5.2507,5.2121,5.2067,5.1683,5.0778,5.1375,5.1348,5.0451,5.0711,5.0583,4.9862,4.9835,4.9692,4.939,4.9765,4.9856,4.966,4.9351,4.9182,4.9085,4.8818,4.8914,4.9446,0.0,4.9328,4.966,4.9919,5.0218,5.069,5.1661,5.2181,5.2442,5.3264,5.3963,5.4529,5.4717,5.478,5.4814,5.5348,5.5792,5.614,5.6326,5.6632,5.6842,5.658,5.6388,5.6439,5.7402,5.7856,5.8247,5.8824,5.9934,6.0839,6.0878,6.1917,6.2438,6.1154,6.1811,6.1843,5.9875,6.063,6.1242,6.0487,6.132,6.1945,6.1605,6.2096,6.2381,6.2381,6.2381,6.2381,6.2381,6.2381,6.2302,6.1997,6.203,6.187,6.1547,6.2181,6.2582,6.2676,6.3823,6.4353,6.4266,6.4581,6.4505,6.4112,6.3984,6.4024,3.3298,3.4116,3.553,3.6469,3.88,4.108,4.176,4.1299,4.0496,3.9607,3.8921,3.8702,3.9375,4.0156,4.214,4.6504,4.6417,4.6621,4.9013,4.942,4.997,5.1166,5.1788,5.215,5.2189,5.191,5.1452,5.074,5.0721,5.0624,5.0396,5.044,5.0306,4.9906,4.9879,4.9741,4.949,4.9459,4.9364,4.9168,4.9164,4.8959,4.8569,4.8382,4.8429,4.8728,4.8663,4.8988,4.9573,4.9743,5.0264,5.1083,5.1904,5.232,5.2597,5.3176,5.377,5.4287,5.4586,5.4655,5.4592,5.5077,5.5529,5.5987,5.6474,5.6745,5.6885,5.7035,5.685,5.6808,5.8072,5.8275,5.8288,5.9342,6.0244,6.0909,6.098,6.1776,6.2124,6.1185,6.1185,6.0806,5.9219,5.9768,6.0244,5.9795,6.0904,6.1698,6.1529,6.2019,6.2381,6.2381,6.2381,6.2381,6.2302,6.2302,6.2189,6.1917,6.187,6.1709,6.1465,6.1799,6.2183,6.2411,6.3391,6.3856,6.3769,6.4416,6.4407,6.3883,6.3919,6.4024,3.4604,3.5013,3.5446,3.6521,3.7049,3.7947,4.0412,4.0392,4.0247,4.1783,4.2056,4.2065,4.2095,4.2812,4.4054,4.5987,4.7557,4.9133,5.094,5.1754,5.2158,5.2278,5.2225,5.2182,5.2103,5.1426,5.0906,5.0701,5.0738,5.0738,5.0682,5.0547,5.0402,5.0183,4.9974,4.9741,4.9415,4.9321,4.9289,4.9257,4.9094,4.889,4.8605,4.8343,4.8307,4.8425,4.8222,4.8629,4.9431,4.9318,4.9582,5.0149,5.1049,5.1835,5.2597,5.3176,5.3425,5.3563,5.4287,5.4494,5.4632,5.5513,5.5854,5.6091,5.6947,5.7677,5.8168,5.8491,5.8133,5.7731,5.7625,5.8532,5.9415,5.9351,5.9908,6.0497,6.0324,6.0875,6.1151,6.0427,6.084,6.0735,5.9115,6.0412,6.1115,5.9604,6.1045,6.2076,6.14,6.1941,6.2381,6.2381,6.2381,6.2302,6.2076,6.1997,6.1917,6.1709,6.1837,6.1917,6.1709,6.3015,6.3533,6.3206,6.4827,6.5559,6.526,6.491,6.4669,6.4604,6.4146,6.4024,3.2669,3.3903,3.5377,3.5867,3.687,3.8535,4.179,4.2719,4.3278,4.4562,4.4826,4.4487,4.339,4.4375,4.554,4.6158,4.7229,4.8605,5.036,5.0782,5.1103,5.1608,5.1579,5.1488,5.1409,5.1138,5.0681,5.0023,5.052,5.058,4.9932,5.0375,5.0507,5.0283,5.0114,4.9852,4.9469,4.9352,4.9257,4.9262,4.9027,4.8785,4.8532,4.8304,4.8134,4.8085,4.811,4.8422,4.9046,4.9149,4.9513,5.0045,5.046,5.1326,5.2373,5.2684,5.2977,5.3335,5.419,5.4431,5.4402,5.5029,5.5444,5.5899,5.7016,5.7369,5.7617,5.8427,5.8372,5.821,5.8776,5.8851,5.8831,5.9215,5.9527,5.984,6.0151,6.0771,6.122,6.0944,6.1045,6.0902,6.0281,6.0574,6.0727,6.0075,6.1384,6.211,6.14,6.1941,6.2381,6.2381,6.2381,6.2302,6.1997,6.1997,6.1917,6.1709,6.179,6.1709,6.1547,6.2515,6.3115,6.3272,6.4353,6.4995,6.5189,6.4885,6.461,6.4426,6.4179,6.4024,3.261,3.3821,3.5392,3.5776,3.7051,3.9243,4.3052,4.4221,4.4967,4.6722,4.6672,4.5859,4.4375,4.4842,4.5737,4.6544,4.7147,4.8103,4.9859,4.9835,4.9831,5.0343,5.0597,5.0596,5.0259,5.0657,5.0558,4.9594,5.0146,5.0306,4.9874,4.9892,5.0067,5.0352,4.9959,4.9694,4.9588,4.9415,4.9225,4.9127,4.8925,4.8751,4.8494,4.8265,4.8174,4.8218,4.7958,4.8271,4.9025,4.8978,4.9382,5.0034,5.0092,5.0714,5.1622,5.2166,5.2563,5.2963,5.4086,5.4367,5.4239,5.4655,5.5,5.5524,5.6784,5.7097,5.727,5.8507,5.8755,5.8727,5.9412,5.9036,5.8594,5.9113,5.9251,5.9322,5.9702,6.015,6.0529,6.0529,6.0387,6.021,6.01,6.0257,6.0415,6.034,6.14,6.2099,6.1593,6.1964,6.2302,6.2381,6.2302,6.2189,6.1917,6.1837,6.1776,6.1881,6.1832,6.1832,6.175,6.2598,6.3278,6.3603,6.4277,6.4784,6.5099,6.4702,6.4518,6.4333,6.4085,6.4024,3.5247,3.519,3.5522,3.6454,3.7552,3.9451,4.3817,4.4214,4.4616,4.8106,4.7499,4.6027,4.5168,4.4292,4.4566,4.7055,4.7474,4.8108,4.9835,4.934,4.8769,4.8709,4.9382,4.9532,4.858,4.9945,5.0542,4.9628,4.9637,5.0024,5.0752,4.9191,4.8988,5.0423,4.9442,4.9201,4.9769,4.9446,4.9193,4.9027,4.8855,4.8642,4.8383,4.8151,4.8307,4.8815,4.7767,4.8129,4.9412,4.8776,4.9168,5.0206,5.0068,5.0126,5.0379,5.1726,5.2096,5.2276,5.3914,5.4367,5.4239,5.4655,5.4655,5.4805,5.6482,5.6997,5.7344,5.8868,5.9319,5.9319,5.9319,5.9149,5.9012,5.9012,5.9012,5.9012,5.9012,5.8909,5.8805,5.8805,5.8665,5.8419,5.8277,5.9429,6.034,6.0114,6.1211,6.1997,6.1997,6.1997,6.2076,6.2381,6.2189,6.1917,6.1709,6.1547,6.1634,6.2197,6.2179,6.2264,6.2516,6.3776,6.4365,6.4365,6.4827,6.5099,6.5099,6.4518,6.4333,6.4333,6.4085,6.4024,3.3515,3.4764,3.6334,3.6742,3.8914,4.1634,4.4197,4.5601,4.7145,5.0033,4.832,4.6403,4.6755,4.6129,4.5579,4.5721,4.6257,4.703,4.8113,4.803,4.8103,4.8644,4.8896,4.8924,4.8541,4.8968,4.8891,4.7913,4.8445,4.8856,4.9015,4.9062,4.9221,4.9562,4.909,4.8872,4.8899,4.8641,4.8727,4.9127,4.8927,4.8605,4.8344,4.8267,4.8218,4.8146,4.768,4.785,4.852,4.8872,4.9417,5.0103,5.0679,5.0887,5.1001,5.2581,5.3011,5.2963,5.4086,5.4367,5.4239,5.4655,5.478,5.4994,5.6547,5.6997,5.7344,5.8868,5.9183,5.9081,5.9251,5.9149,5.9012,5.9012,5.9012,5.9012,5.9012,5.9322,5.956,5.956,5.9347,5.9196,5.9701,5.9553,5.9783,6.0791,6.1255,6.1728,6.2201,6.211,6.1997,6.211,6.1951,6.1709,6.1465,6.1465,6.1401,6.1417,6.2378,6.3027,6.3027,6.3955,6.4365,6.4365,6.4827,6.5008,6.4793,6.4518,6.4146,6.377,6.3897,6.3835,3.5484,3.691,3.8484,3.9598,4.1505,4.3694,4.5905,4.6976,4.7957,4.9566,4.7968,4.6557,4.7455,4.6596,4.5929,4.6413,4.6366,4.6553,4.7367,4.7206,4.7167,4.7635,4.8008,4.801,4.7567,4.8114,4.8141,4.7168,4.7579,4.7944,4.8232,4.8315,4.8606,4.9094,4.8914,4.891,4.9012,4.888,4.8933,4.9197,4.8962,4.8642,4.8306,4.8229,4.8174,4.8206,4.7911,4.7803,4.7913,4.8592,4.9229,4.9803,5.0841,5.1198,5.1405,5.2926,5.3356,5.3272,5.4155,5.4367,5.4239,5.4592,5.4655,5.4931,5.6452,5.6967,5.7344,5.8801,5.9149,5.9149,5.9149,5.9081,5.9012,5.9012,5.8944,5.8978,5.9012,5.9114,5.9211,5.9316,5.9234,5.9287,5.9457,5.9445,5.9776,6.0689,6.1255,6.1717,6.2234,6.2076,6.1997,6.203,6.179,6.1628,6.1383,6.1334,6.1385,6.1516,6.2345,6.3107,6.3583,6.4255,6.4619,6.453,6.4425,6.444,6.4518,6.404,6.3667,6.3612,6.3897,6.3707,3.9218,4.0175,4.1084,4.3636,4.464,4.5589,4.8022,4.7971,4.745,4.7688,4.695,4.6577,4.7432,4.6315,4.5963,4.8215,4.7306,4.6566,4.7273,4.6683,4.6203,4.6196,4.6847,4.6951,4.6085,4.7327,4.785,4.7038,4.6924,4.7229,4.8066,4.7337,4.7549,4.8945,4.8953,4.9125,4.958,4.9523,4.9318,4.9006,4.8803,4.8529,4.8196,4.8075,4.8187,4.8568,4.8325,4.7926,4.7573,4.831,4.8872,4.9472,5.0645,5.1208,5.1533,5.29,5.3363,5.3376,5.419,5.4367,5.4303,5.4431,5.4494,5.4834,5.6253,5.6798,5.7175,5.8563,5.9045,5.9147,5.9012,5.9012,5.9012,5.9012,5.8909,5.884,5.8944,5.8597,5.8277,5.849,5.8749,5.8693,5.8017,5.8998,5.9945,6.008,6.1143,6.1929,6.1997,6.1997,6.1997,6.1997,6.179,6.1628,6.1383,6.1169,6.1384,6.2047,6.2146,6.269,6.3748,6.4572,6.4943,6.4702,6.3806,6.3681,6.4333,6.3404,6.3124,6.358,6.3738,6.3548,3.6189,3.7939,4.0226,4.2872,4.5187,4.6808,4.6755,4.6639,4.6939,4.8359,4.7381,4.6561,4.7455,4.7243,4.6913,4.68,4.7025,4.7045,4.6547,4.6326,4.6209,4.6193,4.6325,4.6289,4.6007,4.6278,4.6358,4.6119,4.602,4.6596,4.7953,4.7798,4.8056,4.8953,4.8871,4.8542,4.792,4.784,4.7702,4.7567,4.7379,4.7326,4.7426,4.7819,4.7777,4.7519,4.8038,4.827,4.8345,4.9153,4.9657,5.009,5.0794,5.1459,5.214,5.3046,5.377,5.4224,5.446,5.4592,5.4655,5.4529,5.4683,5.5043,5.5662,5.6003,5.6413,5.7769,5.815,5.8356,5.8875,5.9012,5.8978,5.8841,5.8841,5.8805,5.884,5.8631,5.8419,5.849,5.8379,5.8303,5.7988,5.8152,5.8761,5.9945,6.0705,6.1436,6.2201,6.1951,6.179,6.179,6.1547,6.1383,6.1169,6.1086,6.1185,6.1318,6.1679,6.1969,6.2005,6.3462,6.4416,6.4669,6.4262,6.417,6.4333,6.3703,6.3546,6.358,6.2938,6.2684,3.6612,3.8537,4.0668,4.3835,4.5735,4.6668,4.6343,4.6288,4.6546,4.7461,4.6911,4.6555,4.745,4.7541,4.7362,4.6908,4.7211,4.7195,4.6313,4.6196,4.619,4.6146,4.613,4.6056,4.6025,4.6293,4.6447,4.636,4.6651,4.7163,4.7933,4.829,4.8411,4.8357,4.9036,4.8745,4.7416,4.7753,4.7645,4.7127,4.6817,4.6709,4.6827,4.7347,4.7371,4.7088,4.7736,4.8055,4.8166,4.9223,4.9711,4.9868,5.0841,5.1381,5.177,5.2563,5.3322,5.3977,5.3977,5.4281,5.4655,5.4494,5.462,5.4884,5.5455,5.5939,5.6556,5.7564,5.815,5.853,5.8909,5.9012,5.8944,5.8668,5.8667,5.8631,5.877,5.849,5.8277,5.849,5.8549,5.8468,5.7949,5.8186,5.8795,5.9945,6.0603,6.1267,6.2279,6.203,6.179,6.1709,6.1628,6.1383,6.1119,6.1119,6.1035,6.0919,6.1165,6.1271,6.1284,6.2124,6.3007,6.3779,6.3362,6.3269,6.3627,6.3253,6.297,6.2875,6.278,6.2683,3.7363,3.9595,4.1661,4.5055,4.5974,4.613,4.627,4.6288,4.6303,4.6285,4.6284,4.6534,4.7237,4.7445,4.7462,4.7312,4.7379,4.7216,4.632,4.619,4.6169,4.6107,4.6083,4.6085,4.6003,4.6526,4.6907,4.6978,4.7507,4.7914,4.8199,4.8684,4.8671,4.7914,4.9125,4.8946,4.7174,4.7829,4.7645,4.6676,4.6396,4.6246,4.625,4.6708,4.6955,4.6987,4.7583,4.7815,4.7914,4.917,4.9625,4.9597,5.0679,5.1153,5.1183,5.1804,5.2597,5.3452,5.3391,5.3908,5.4592,5.4494,5.4494,5.4632,5.5253,5.5874,5.6598,5.746,5.815,5.8702,5.8944,5.9012,5.8944,5.8597,5.8561,5.849,5.8699,5.8277,5.8027,5.8419,5.8744,5.8795,5.8017,5.8524,5.9235,5.981,6.0324,6.1021,6.1998,6.2043,6.1837,6.1628,6.1628,6.1465,6.1119,6.1035,6.0919,6.0717,6.0633,6.0725,6.0913,6.0857,6.1386,6.2502,6.2048,6.2178,6.2797,6.2518,6.2394,6.23,6.2716,6.2712,3.4493,3.8299,4.2393,4.4463,4.5538,4.6123,4.6209,4.6265,4.6288,4.6287,4.6282,4.6339,4.6456,4.7055,4.7262,4.6521,4.7021,4.721,4.63,4.6222,4.6162,4.6122,4.6104,4.6066,4.6003,4.6048,4.6317,4.694,4.7003,4.7569,4.8966,4.899,4.8891,4.8669,4.8821,4.8007,4.621,4.6286,4.5854,4.4944,4.5084,4.5363,4.5732,4.6086,4.6453,4.6895,4.7666,4.8183,4.8604,4.9381,4.994,5.0293,5.0298,5.0726,5.1256,5.1277,5.2209,5.3541,5.3452,5.4033,5.4717,5.4592,5.4655,5.4752,5.4695,5.4736,5.5115,5.6529,5.7012,5.7391,5.8668,5.9012,5.8978,5.8841,5.8632,5.849,5.8277,5.8205,5.8205,5.8277,5.8637,5.8795,5.8017,5.8524,5.9032,5.9133,5.9506,6.0013,6.0987,6.1307,6.1465,6.1465,6.1465,6.1334,6.1119,6.0919,6.0717,6.0717,6.0378,6.0185,6.0196,6.0022,6.0235,6.1044,6.1562,6.2086,6.2518,6.2297,6.2428,6.3068,6.2075,6.2041,3.547,3.8512,4.1373,4.4167,4.5141,4.5553,4.6142,4.6275,4.6296,4.6317,4.6287,4.63,4.63,4.6972,4.7216,4.6332,4.6943,4.7196,4.6317,4.6208,4.6201,4.6104,4.6095,4.6076,4.6025,4.637,4.695,4.7743,4.8025,4.849,4.9116,4.8999,4.85,4.7476,4.777,4.7124,4.5382,4.5783,4.5434,4.4317,4.4867,4.5321,4.5698,4.615,4.6816,4.7618,4.8222,4.8856,4.9568,5.0189,5.0503,5.0509,5.0341,5.0436,5.0691,5.0552,5.1484,5.2796,5.2735,5.3591,5.4655,5.4529,5.4592,5.4655,5.4529,5.4805,5.5357,5.6495,5.7116,5.7667,5.8737,5.9012,5.8944,5.8702,5.8597,5.8419,5.8099,5.8099,5.8171,5.8171,5.871,5.9044,5.8592,5.8795,5.9227,5.9962,5.9722,5.9935,6.1153,6.1346,6.1383,6.1383,6.1383,6.1219,6.0919,6.0802,6.0633,6.0378,6.0239,6.0066,5.9892,5.9628,5.9669,5.9992,6.1148,6.1666,6.1326,6.2235,6.2397,6.1854,6.1946,6.213,3.5593,3.7559,3.9159,4.2688,4.3721,4.428,4.5645,4.598,4.5958,4.5963,4.6131,4.6222,4.6023,4.6616,4.6943,4.6298,4.6742,4.687,4.5998,4.6045,4.6076,4.5813,4.5987,4.6056,4.6007,4.6538,4.7196,4.799,4.8449,4.87,4.8809,4.8709,4.7919,4.6411,4.6846,4.6367,4.484,4.5353,4.5097,4.4109,4.4835,4.5278,4.5443,4.6157,4.7168,4.8304,4.8293,4.8997,5.0079,5.0347,5.0487,5.0585,5.0453,5.0341,5.0263,5.0034,5.0942,5.2244,5.2011,5.308,5.4494,5.4287,5.4356,5.4494,5.4494,5.4908,5.5495,5.6288,5.7047,5.7805,5.853,5.8875,5.8944,5.8701,5.8561,5.8419,5.7954,5.8196,5.8405,5.8405,5.9186,5.9689,5.9336,5.9363,5.9726,6.056,5.9946,5.9923,6.1274,6.1198,6.1102,6.1301,6.1301,6.1136,6.0802,6.0717,6.0463,6.0239,6.0066,5.9892,5.9716,5.9419,5.9331,5.9331,6.0644,6.1031,6.0243,6.182,6.1918,6.0805,6.1845,6.2022,3.2705,3.4098,3.5616,3.9084,4.0598,4.1863,4.447,4.5054,4.5074,4.5078,4.5731,4.6062,4.523,4.5728,4.6259,4.6209,4.6254,4.5959,4.5095,4.5679,4.5866,4.4958,4.5598,4.6056,4.6007,4.598,4.6306,4.7115,4.702,4.7261,4.8008,4.7876,4.7296,4.6364,4.629,4.5722,4.4605,4.4533,4.4362,4.4109,4.4835,4.4983,4.4602,4.5707,4.7039,4.8416,4.7251,4.7957,4.9854,4.8994,4.9398,5.0585,5.0453,5.0397,5.0341,5.0092,5.106,5.2389,5.1484,5.2632,5.4391,5.3701,5.3942,5.4494,5.4494,5.4529,5.4736,5.546,5.6253,5.7012,5.7771,5.8495,5.9012,5.9012,5.8736,5.8419,5.7954,5.8457,5.8964,5.8964,6.0148,6.0926,6.0182,6.0468,6.0661,6.0173,5.9611,5.9564,6.0537,6.027,6.0324,6.102,6.1119,6.1119,6.1119,6.0666,6.0378,6.0378,5.9979,5.9716,5.9716,5.9419,5.9331,5.9331,5.989,6.0,5.9691,6.0454,6.0931,6.1047,6.1671,6.1571,3.0824,3.2213,3.3621,3.6567,3.8805,4.0643,4.2147,4.3801,4.4993,4.4991,4.5672,4.6011,4.516,4.5221,4.5591,4.6131,4.528,4.4589,4.4806,4.5126,4.5235,4.4851,4.5589,4.6056,4.6025,4.5956,4.6228,4.7001,4.6891,4.6858,4.7044,4.6885,4.6592,4.619,4.5559,4.5014,4.4524,4.4383,4.4207,4.3992,4.4712,4.4918,4.4674,4.5863,4.7126,4.8416,4.7666,4.8629,5.0734,5.0242,5.0239,5.0585,5.0453,5.0341,5.0263,5.0068,5.069,5.1622,5.1735,5.2701,5.3839,5.4046,5.4287,5.4494,5.4494,5.4494,5.4667,5.5391,5.6184,5.6978,5.7702,5.8393,5.884,5.8701,5.8561,5.8556,5.8744,5.8976,5.918,5.918,6.0367,6.1316,6.0935,6.0849,6.1008,6.1301,6.0528,6.019,6.1046,6.0853,6.0821,6.1086,6.1119,6.1002,6.0666,6.0496,6.0292,5.9979,5.9596,5.9419,5.9419,5.9062,5.8882,5.8882,5.8864,5.8931,5.8991,6.0136,6.0329,5.9661,6.0352,6.0595,2.9272,3.0236,3.1359,3.4012,3.5966,3.7761,3.9802,4.1813,4.3354,4.3626,4.4621,4.5152,4.4298,4.4129,4.4382,4.524,4.4618,4.3997,4.3934,4.4487,4.4742,4.4383,4.5074,4.5686,4.5929,4.5906,4.6056,4.6513,4.6432,4.6302,4.6101,4.5986,4.5821,4.566,4.5213,4.4937,4.4824,4.4878,4.4777,4.4512,4.5219,4.5333,4.4967,4.6142,4.7291,4.8325,4.8139,4.9199,5.1052,5.0592,5.0519,5.0585,5.0453,5.0341,5.0228,5.0092,5.0517,5.1149,5.139,5.2149,5.308,5.3598,5.3908,5.4184,5.4425,5.4431,5.4534,5.5051,5.574,5.6532,5.7256,5.8084,5.8771,5.8561,5.849,5.8556,5.8744,5.9253,5.9701,5.9593,6.0536,6.1418,6.1341,6.1052,6.1099,6.1929,6.0985,6.0512,6.1283,6.1169,6.1002,6.1119,6.115,6.1014,6.0581,6.0378,6.0152,5.9892,5.9596,5.9419,5.9419,5.8972,5.8701,5.8701,5.8335,5.8243,5.8335,5.96,5.9728,5.8812,5.9533,5.9835,0.0,0.0,0.0,3.1265,3.2006,3.3171,3.744,3.9127,4.0039,4.0898,4.2414,4.3365,4.2563,4.2403,4.2676,4.3495,4.4273,4.4184,4.243,4.3665,4.4375,4.3513,4.4122,4.4924,4.5829,4.5824,4.575,4.5577,4.553,4.5438,4.5277,4.5208,4.5086,4.489,4.5388,4.5597,4.5401,4.586,4.5955,4.5698,4.6426,4.627,4.5341,4.6521,4.7537,4.8233,4.8423,4.9258,5.0515,4.9816,4.9955,5.0585,5.0453,5.0397,5.0341,5.0263,5.0541,5.0976,5.0287,5.1011,5.2218,5.2252,5.2804,5.3563,5.4287,5.4367,5.4239,5.4431,5.4952,5.5613,5.6368,5.7672,5.8735,5.8561,5.849,5.8419,5.7988,5.9214,6.0306,6.008,6.0723,6.1264,6.1298,6.0953,6.0918,6.1896,6.0865,6.0373,6.1283,6.0969,6.0802,6.1035,6.1291,6.125,6.0699,6.0292,6.0066,6.0066,5.9804,5.9716,5.9716,5.9274,5.9036,5.9036,5.8274,5.7903,5.7903,5.8844,5.8971,5.8494,5.9211,5.9259,2.4786,0.0,0.0,0.0,0.0,0.0,3.3469,3.5545,3.7656,3.975,4.1055,4.1935,4.227,4.2331,4.2202,4.1812,4.1894,4.2049,4.2196,4.2626,4.3052,4.3358,4.4122,4.4911,4.575,4.5727,4.5599,0.0,4.5381,4.5298,4.517,4.6125,4.6539,4.6261,4.6899,4.6829,4.5901,4.602,4.5956,4.5621,4.584,4.5685,4.5305,4.6068,4.6757,4.7446,4.8374,4.9186,4.9781,5.013,5.0355,5.0453,5.0509,5.0341,5.0092,5.0206,5.031,5.0495,5.0759,5.1484,5.2502,5.2969,5.3598,5.4253,5.446,5.4431,5.4431,5.4494,5.5396,5.6638,5.7672,5.8392,5.8701,5.8348,5.849,5.8768,5.8885,5.9253,5.9559,5.9302,5.9911,6.0622,6.124,6.0875,6.0939,6.1883,6.1332,6.0937,6.1383,6.0969,6.0717,6.0802,6.0745,6.0607,6.0325,6.0152,6.0066,5.9804,5.9452,5.9184,5.9184,5.9211,5.9219,5.9219,5.8814,5.8625,5.8625,5.8217,5.7871,5.749,5.8009,5.8251,2.4453,2.5312,2.6406,2.6289,0.0,0.0,3.1209,3.3315,3.5535,3.7776,3.916,4.0159,4.0571,4.0669,4.0602,4.0431,4.0663,4.1179,4.2062,4.2801,4.3419,4.3853,4.4279,4.4819,4.5634,4.5616,4.5512,4.5419,4.536,4.5256,4.5103,4.5848,4.6172,4.5951,4.6807,4.6921,4.6096,4.6581,4.6684,4.6327,4.6327,4.6205,4.6032,4.6327,4.6802,4.7533,4.8444,4.9132,4.9661,5.0325,5.0509,5.0341,5.053,5.0397,5.0092,5.0263,5.0206,5.0161,5.0576,5.1267,5.2027,5.2788,5.3425,5.4018,5.4391,5.4367,5.4303,5.4367,5.5163,5.6232,5.7295,5.7773,5.8114,5.8174,5.8419,5.8593,5.8676,5.8705,5.8773,5.8964,5.937,5.9776,6.0216,5.9967,6.0002,6.0784,6.0784,6.0622,6.0671,6.0868,6.0909,6.0581,6.0586,6.0478,6.0098,5.9979,5.9804,5.9508,5.9241,5.9062,5.9004,5.9023,5.9061,5.9061,5.8562,5.8183,5.7992,5.7683,5.737,5.7115,5.7228,5.7346,2.5503,2.5607,2.5952,2.6559,2.6903,0.0,2.9862,3.1643,3.3306,3.5073,3.6621,3.7692,3.7813,3.7916,3.8198,3.8935,3.9937,4.1003,4.2053,4.3546,4.4497,4.4446,4.4322,4.4553,4.5372,4.5396,4.5361,4.5418,4.5454,4.5447,4.5369,4.5228,4.5079,4.4949,4.5879,4.6342,4.6209,4.7158,4.7518,4.732,4.7212,4.7115,4.6998,4.7043,4.7344,4.7915,4.8473,4.9113,4.9818,5.0344,5.0453,5.0228,5.0564,5.0453,5.0263,5.0341,5.0263,5.0068,5.0253,5.0714,5.1415,5.2295,5.2934,5.341,5.4224,5.4303,5.408,5.4278,5.4561,5.5043,5.5962,5.6678,5.7253,5.7899,5.8137,5.8099,5.7954,5.7881,5.8084,5.8761,5.8896,5.893,5.8998,5.8623,5.8696,5.9533,5.9804,5.9944,5.9729,6.0627,6.1098,6.0476,6.0532,6.0518,6.0131,5.9804,5.9628,5.9331,5.9331,5.9152,5.8972,5.8765,5.8677,5.8741,5.8091,5.7366,5.6761,5.7211,5.7306,5.7084,5.6827,5.6761,2.4365,2.5109,2.6399,2.5194,2.6438,0.0,2.7722,2.845,2.9727,3.1447,3.207,3.2717,3.4068,3.4885,3.5376,3.5474,3.7938,4.0361,4.1811,4.2886,4.349,4.3472,4.3389,4.3689,4.4575,4.4533,4.471,4.5341,4.584,4.6388,4.6935,4.6845,4.6619,4.639,4.6514,4.6672,4.6912,4.6469,4.6593,4.7284,4.6758,4.6665,4.6998,4.7088,4.716,4.7273,4.8275,4.878,4.9027,5.0134,5.0509,5.0397,5.071,5.0599,5.0263,5.0341,5.0341,5.0389,5.0783,5.1568,5.2507,5.303,5.3825,5.4447,5.446,5.4431,5.4505,5.4995,5.4971,5.4975,5.5826,5.6609,5.708,5.7074,5.7691,5.8099,5.7954,5.7881,5.7915,5.8084,5.7938,5.814,5.8822,5.8547,5.8708,6.0169,5.9942,5.9828,6.0421,6.041,6.0315,6.0152,6.0022,5.9878,5.9804,5.9716,5.9628,5.9331,5.9152,5.8972,5.8701,5.878,5.9065,5.9631,5.9149,5.8133,5.6761,5.6858,5.6954,5.6858,5.6858,5.6664,2.4985,2.5235,2.6106,2.5651,2.6212,0.0,0.0,2.7851,2.8624,3.0341,3.0717,3.1086,3.2322,3.2904,3.3313,3.3684,3.6278,3.8523,3.9303,4.1635,4.3245,4.3217,4.3142,4.3256,4.3607,4.3905,4.4401,4.5218,4.5544,4.606,4.6822,4.6341,4.6172,4.6393,4.6127,4.5997,4.6133,4.6176,4.623,4.6302,4.6608,4.6613,4.6427,4.691,4.7043,4.7069,4.7913,4.8423,4.8882,4.9785,5.027,5.0397,5.0675,5.0453,5.0092,5.0263,5.0263,5.031,5.0956,5.1776,5.2537,5.3237,5.3936,5.4494,5.4494,5.4367,5.4244,5.4524,5.4362,5.433,5.5076,5.5856,5.6501,5.6731,5.7446,5.8027,5.7881,5.7881,5.7881,5.7881,5.7662,5.7648,5.8241,5.7859,5.7863,5.8675,5.8634,5.8725,5.9398,5.9539,5.9675,5.9859,5.9804,5.9628,5.9508,5.9628,5.954,5.8972,5.9324,5.9083,5.8243,5.8625,5.8969,5.9024,5.8421,5.7886,5.7254,5.6818,5.6751,5.7058,5.6721,5.6837,2.5979,2.5716,2.604,0.0,0.0,2.654,0.0,0.0,0.0,2.9373,2.9738,3.0062,3.0694,3.0955,3.1274,3.1929,3.4191,3.5801,3.5612,3.9032,4.166,4.1942,4.2341,4.2475,4.2197,4.2852,4.384,4.5255,4.4874,4.5095,4.6201,4.5647,4.5507,4.5903,4.5679,4.5504,4.5407,4.6066,4.6118,4.5486,4.6529,4.6668,4.6034,4.6757,4.7043,4.7033,4.7536,4.8169,4.8947,4.9468,4.992,5.0397,5.053,5.0397,5.0034,5.0149,5.0218,5.0379,5.1222,5.1924,5.2624,5.3506,5.3977,5.4303,5.4367,5.4239,5.398,5.3783,5.3686,5.389,5.4262,5.504,5.5852,5.6461,5.7137,5.7712,5.7848,5.7881,5.7881,5.7881,5.7588,5.7364,5.7588,5.7214,5.702,5.7187,5.733,5.7591,5.815,5.8619,5.9047,5.9457,5.9652,5.9628,5.9331,5.9508,5.9331,5.861,5.9334,5.9278,5.8091,5.8781,5.8743,5.7824,5.7669,5.7572,5.7562,5.6868,5.677,5.7167,5.664,5.6938,2.6069,2.6515,0.0,0.0,2.7198,0.0,0.0,0.0,2.6704,2.6173,0.0,2.7168,2.7245,0.0,0.0,2.8453,3.064,3.2004,3.1249,3.3506,3.579,3.7252,3.9384,4.0394,3.961,4.0194,4.2179,4.5978,4.4106,4.3748,4.5975,4.6598,4.6497,4.5677,4.6115,4.6261,4.6091,4.5846,4.5867,4.6194,4.6284,4.6506,4.6855,4.7098,4.7088,4.7033,4.7404,4.8035,4.8947,4.9346,4.9901,5.0397,5.053,5.0453,5.0206,5.0171,5.0587,5.1222,5.1899,5.2719,5.3541,5.4178,5.4425,5.4431,5.4303,5.4239,5.411,5.3783,5.4159,5.45,5.3822,5.4668,5.575,5.5818,5.6393,5.7103,5.7746,5.7881,5.7881,5.7881,5.7588,5.7364,5.7588,5.7139,5.6989,5.7886,5.747,5.7364,5.8117,5.8418,5.868,5.8745,5.9328,5.9628,5.9331,5.9331,5.9152,5.861,5.8673,5.8776,5.8782,5.9581,5.9098,5.7012,5.8646,5.8508,5.6592,5.7014,5.6984,5.6494,5.6785,5.6819,0.0,0.0,0.0,0.0,0.0,0.0,2.5639,0.0,2.589,0.0,0.0,0.0,0.0,0.0,0.0,0.0,2.9159,2.9902,2.8998,3.0637,3.2762,3.4927,3.6098,0.0,3.8764,3.9623,4.1178,4.3824,4.2957,4.3353,4.5806,4.613,4.6435,4.6912,4.6583,4.6342,4.6274,4.6324,4.6166,4.578,4.6513,4.6649,4.632,4.6829,4.7043,4.7033,4.7488,4.8169,4.8947,4.9416,4.9975,5.0509,5.0509,5.0285,5.0092,5.0092,5.0576,5.1242,5.1942,5.2796,5.3556,5.4253,5.4431,5.4303,5.411,5.411,5.4148,5.4194,5.4466,5.4669,5.4735,5.5243,5.5818,5.6258,5.6562,5.7002,5.7712,5.7808,5.7735,5.7735,5.7439,5.7139,5.7214,5.6911,5.6779,5.7111,5.6751,5.6693,5.7331,5.7716,5.8194,5.8583,5.9295,5.954,5.9152,5.9241,5.9062,5.8427,5.815,5.8091,5.8525,5.8324,5.7906,5.7346,5.7808,5.7709,5.6953,5.6732,5.6351,5.5979,5.6053,5.6395,2.5753,0.0,0.0,0.0,0.0,0.0,0.0,0.0,0.0,0.0,0.0,0.0,0.0,0.0,2.7439,2.7994,0.0,2.8694,2.7854,2.8977,3.0611,3.2492,3.3402,3.52,0.0,3.8626,3.9586,4.2044,4.158,4.2485,4.5566,4.5843,4.647,4.7793,4.7228,4.6759,4.65,4.6908,4.6637,4.5678,4.6758,4.6856,4.6141,4.6667,4.6998,4.7033,4.7536,4.8169,4.8947,4.9468,5.0082,5.0585,5.0453,5.0263,5.0034,5.0011,5.0597,5.1494,5.2046,5.2735,5.3494,5.4011,5.4058,5.3901,5.3977,5.4148,5.4322,5.4534,5.494,5.5312,5.5615,5.5852,5.6089,5.6427,5.6664,5.6934,5.7476,5.76,5.7588,5.7588,5.7289,5.6987,5.6987,5.6757,5.6525,5.6369,5.6165,5.6123,5.645,5.7001,5.7547,5.8259,5.8917,5.9226,5.8972,5.9062,5.8882,5.8274,5.7872,5.771,5.7859,5.7572,5.7377,5.75,5.7377,5.7279,5.7007,5.6503,5.5962,5.5411,5.5661,5.6161,0.0,0.0,0.0,2.4255,0.0,0.0,0.0,0.0,2.5953,0.0,0.0,0.0,0.0,2.8273,2.8845,2.8883,2.8841,0.0,0.0,2.8303,2.8932,2.9155,3.1851,3.5003,3.8315,3.6398,3.6955,4.1745,3.99,4.0578,4.5319,4.6215,4.6913,4.7664,4.8053,4.7865,4.7095,4.7474,4.7223,4.6266,4.6916,4.7133,4.6962,4.687,4.6906,4.7033,4.7439,4.807,4.8947,4.9468,5.0082,5.0585,5.0453,5.0285,5.0206,5.0068,5.0942,5.2183,5.2218,5.2735,5.3391,5.3425,5.3301,5.3278,5.3806,5.4518,5.4995,5.4703,5.579,5.6847,5.5956,5.6258,5.6596,5.5919,5.6292,5.6799,5.6833,5.7229,5.7588,5.7588,5.7289,5.6987,5.6987,5.668,5.6402,5.6402,5.6086,5.5799,5.5799,5.6254,5.6802,5.7547,5.8087,5.8534,5.894,5.8792,5.8427,5.7965,5.8024,5.7797,5.7146,5.8221,5.8116,5.6823,5.8054,5.7886,5.6009,5.6647,5.6214,5.4803,5.5735,5.6034,0.0,0.0,2.7028,2.4645,0.0,0.0,0.0,0.0,0.0,0.0,0.0,0.0,0.0,2.7728,2.8122,2.8632,2.7744,2.6948,0.0,2.7357,2.8305,2.9412,3.1476,3.3278,3.4396,3.507,3.6437,3.8696,3.9389,4.1166,4.4431,4.57,4.7159,4.8975,4.8491,4.8336,4.8593,4.8138,4.7638,4.7096,4.7299,4.7519,4.7783,4.7783,4.7939,4.839,4.8444,4.8862,4.9588,4.9679,5.0136,5.0764,5.0509,5.0341,5.032,5.0092,5.0631,5.1632,5.2632,5.3432,5.3925,5.3925,5.3798,5.3703,5.3781,5.4292,5.494,5.5072,5.595,5.6904,5.6925,5.6896,5.6867,5.7103,5.6596,5.6288,5.7161,5.6976,5.6794,5.7114,5.6987,5.6834,5.6834,5.648,5.6244,5.6244,5.6086,5.5927,5.5604,5.6561,5.7236,5.7291,5.8268,5.8895,5.876,5.8335,5.7965,5.7684,5.7492,5.7236,5.6954,5.7095,5.7027,5.6567,5.6831,5.6534,5.578,5.5992,5.5591,5.4803,5.5113,5.51,2.6489,2.6934,0.0,2.499,2.5611,0.0,2.4165,0.0,0.0,0.0,0.0,0.0,0.0,2.8164,2.8083,2.8898,2.7635,2.6669,0.0,2.7509,2.8326,2.9622,3.1278,3.2543,3.3147,3.4233,3.5784,3.7836,3.8689,4.0607,4.3899,4.5123,4.6724,4.8789,4.8375,4.8404,4.8916,4.8243,4.7747,4.7407,4.745,4.7751,4.8175,4.789,4.8271,4.9172,4.8926,4.925,4.9976,5.0101,5.0417,5.0908,5.0823,5.0815,5.0724,5.0195,5.0573,5.1606,5.2632,5.3272,5.3699,5.3764,5.3665,5.354,5.3681,5.433,5.5178,5.5441,5.6356,5.7239,5.7296,5.7268,5.7171,5.7137,5.6727,5.6453,5.6713,5.6627,5.6504,5.6554,5.6668,5.668,5.6603,5.6402,5.6165,5.6086,5.6006,5.5733,5.5409,5.6219,5.6912,5.7174,5.7956,5.8428,5.8395,5.7965,5.7684,5.7401,5.7115,5.6923,5.6761,5.6567,5.6372,5.6372,5.6176,5.588,5.5581,5.5481,5.5179,5.4671,5.4671,5.4436]},{"header":{"parameterUnit":"m.s-1","parameterCategory":1,"la1":30.6,"la2":29.2853,"lo1":-89.7004,"lo2":-87.6739,"dy":0.0162,"dx":0.0183,"nx":112,"ny":82,"refTime":"2023-08-26T12:00:00:Z","depth":0,"parameterNumber":3,"parameterNumberName":"V-component_of_WINDS"},"data":[0.0,0.0,0.0,0.0,0.0,0.0,0.0,0.0,0.0,0.0,0.0,0.0,0.0,0.0,0.0,0.0,0.0,0.0,0.0,0.0,0.0,0.0,0.0,0.0,0.0,0.0,0.0,0.0,0.0,0.0,0.0,0.0,0.0,0.0,0.0,0.0,0.0,0.0,0.0,0.0,0.0,0.0,0.0,0.0,0.0,0.0,0.0,0.0,0.0,0.0,0.0,0.0,0.0,0.0,0.0,0.0,0.0,0.0,0.0,0.0,0.0,0.0,0.0,0.0,0.0,0.0,0.0,0.0,0.0,0.0,0.0,0.0,0.0,0.0,0.0,0.0,0.0,0.0,0.0,0.0,0.0,0.0,0.0,0.0,0.0,0.0,0.0,0.0,0.0,0.0,-3.032,-3.1328,-3.3418,-3.4707,-3.4707,-3.4316,-3.306,-3.0538,0.0,0.0,0.0,0.0,0.0,0.0,0.0,0.0,0.0,0.0,0.0,0.0,0.0,0.0,0.0,0.0,0.0,0.0,0.0,0.0,0.0,0.0,0.0,0.0,0.0,0.0,0.0,0.0,0.0,0.0,0.0,0.0,0.0,0.0,0.0,0.0,0.0,0.0,0.0,0.0,0.0,0.0,0.0,0.0,0.0,0.0,0.0,0.0,0.0,0.0,0.0,0.0,0.0,0.0,0.0,0.0,0.0,0.0,0.0,0.0,0.0,0.0,0.0,0.0,0.0,0.0,0.0,0.0,0.0,0.0,0.0,0.0,0.0,0.0,0.0,0.0,0.0,0.0,0.0,0.0,0.0,0.0,0.0,0.0,0.0,0.0,0.0,0.0,0.0,0.0,0.0,0.0,0.0,0.0,0.0,0.0,0.0,0.0,0.0,0.0,0.0,0.0,0.0,0.0,-3.0789,-3.375,-3.4473,-3.4707,-3.4707,-3.4316,-3.3198,-3.0977,0.0,0.0,0.0,0.0,0.0,0.0,0.0,0.0,0.0,0.0,0.0,0.0,0.0,0.0,0.0,0.0,0.0,0.0,0.0,0.0,0.0,0.0,0.0,0.0,0.0,0.0,0.0,0.0,0.0,0.0,0.0,0.0,0.0,0.0,0.0,0.0,0.0,0.0,0.0,0.0,0.0,0.0,0.0,0.0,0.0,0.0,0.0,0.0,0.0,0.0,0.0,0.0,0.0,0.0,0.0,0.0,0.0,0.0,0.0,0.0,0.0,0.0,0.0,0.0,0.0,0.0,0.0,0.0,0.0,0.0,0.0,0.0,0.0,0.0,0.0,0.0,0.0,0.0,0.0,0.0,0.0,0.0,0.0,0.0,0.0,0.0,0.0,0.0,0.0,0.0,0.0,0.0,0.0,0.0,0.0,0.0,0.0,0.0,0.0,0.0,0.0,0.0,0.0,-2.9699,-3.1643,-3.4707,-3.5407,-3.5677,-3.5658,-3.5528,-3.4312,-3.2011,-3.0668,0.0,0.0,0.0,0.0,0.0,0.0,0.0,0.0,0.0,0.0,0.0,0.0,0.0,0.0,0.0,0.0,0.0,0.0,0.0,0.0,0.0,0.0,0.0,0.0,0.0,0.0,0.0,0.0,0.0,0.0,0.0,0.0,0.0,0.0,0.0,0.0,0.0,0.0,0.0,0.0,0.0,0.0,0.0,0.0,0.0,0.0,0.0,0.0,0.0,0.0,0.0,0.0,0.0,0.0,0.0,0.0,0.0,0.0,0.0,0.0,0.0,0.0,0.0,0.0,0.0,0.0,0.0,0.0,0.0,0.0,0.0,0.0,0.0,0.0,0.0,0.0,0.0,0.0,0.0,0.0,0.0,0.0,0.0,0.0,0.0,0.0,0.0,0.0,0.0,0.0,0.0,0.0,0.0,0.0,0.0,0.0,0.0,0.0,0.0,0.0,0.0,0.0,-3.1623,-3.2878,-3.5273,-3.6091,-3.6499,-3.638,-3.595,-3.4794,-3.2468,-3.0995,0.0,0.0,0.0,0.0,0.0,0.0,0.0,0.0,0.0,0.0,0.0,0.0,0.0,0.0,0.0,0.0,0.0,0.0,0.0,0.0,0.0,0.0,0.0,0.0,0.0,0.0,0.0,0.0,0.0,0.0,0.0,0.0,0.0,0.0,0.0,0.0,0.0,0.0,0.0,0.0,0.0,0.0,0.0,0.0,0.0,0.0,0.0,0.0,0.0,0.0,0.0,0.0,0.0,0.0,0.0,0.0,0.0,0.0,0.0,0.0,0.0,0.0,0.0,0.0,0.0,0.0,0.0,0.0,0.0,0.0,0.0,0.0,0.0,0.0,0.0,0.0,0.0,0.0,0.0,0.0,0.0,0.0,0.0,0.0,0.0,0.0,0.0,0.0,0.0,0.0,0.0,0.0,0.0,0.0,0.0,0.0,0.0,0.0,0.0,0.0,0.0,0.0,-3.2706,-3.4824,-3.5859,-3.5996,-3.5995,-3.6003,-3.4799,-3.3214,-3.1388,-2.9442,0.0,0.0,0.0,0.0,0.0,0.0,0.0,0.0,0.0,0.0,0.0,0.0,0.0,0.0,0.0,0.0,0.0,0.0,0.0,0.0,0.0,0.0,0.0,0.0,0.0,0.0,0.0,0.0,0.0,0.0,0.0,0.0,0.0,0.0,0.0,0.0,0.0,0.0,0.0,0.0,0.0,0.0,0.0,0.0,0.0,0.0,0.0,0.0,0.0,0.0,0.0,0.0,0.0,0.0,0.0,0.0,0.0,0.0,0.0,0.0,0.0,0.0,0.0,0.0,0.0,0.0,0.0,0.0,0.0,0.0,0.0,0.0,0.0,0.0,0.0,0.0,0.0,0.0,0.0,0.0,0.0,0.0,0.0,0.0,0.0,0.0,0.0,0.0,0.0,0.0,0.0,0.0,0.0,0.0,0.0,0.0,0.0,0.0,0.0,0.0,0.0,0.0,-3.2236,-3.425,-3.582,-3.6423,-3.6495,-3.619,-3.5936,-3.4572,-3.1876,0.0,0.0,0.0,0.0,0.0,0.0,0.0,0.0,0.0,0.0,0.0,0.0,0.0,0.0,0.0,0.0,0.0,0.0,0.0,0.0,0.0,0.0,0.0,0.0,0.0,0.0,0.0,0.0,0.0,0.0,0.0,0.0,0.0,0.0,0.0,0.0,0.0,0.0,0.0,0.0,0.0,0.0,0.0,0.0,0.0,0.0,0.0,0.0,0.0,0.0,0.0,0.0,0.0,0.0,0.0,0.0,0.0,0.0,0.0,0.0,0.0,0.0,0.0,0.0,0.0,0.0,0.0,0.0,0.0,0.0,0.0,0.0,0.0,0.0,0.0,0.0,0.0,0.0,0.0,0.0,0.0,0.0,0.0,0.0,0.0,0.0,0.0,0.0,0.0,0.0,0.0,0.0,0.0,0.0,0.0,0.0,0.0,0.0,0.0,0.0,0.0,0.0,-2.9937,-3.2173,-3.4187,-3.574,-3.6475,-3.6676,-3.6234,-3.5927,-3.4518,-3.1657,0.0,0.0,0.0,0.0,0.0,0.0,0.0,0.0,0.0,0.0,0.0,0.0,0.0,0.0,0.0,0.0,0.0,0.0,0.0,0.0,0.0,0.0,0.0,0.0,0.0,0.0,0.0,0.0,0.0,0.0,0.0,0.0,0.0,0.0,0.0,0.0,0.0,0.0,0.0,0.0,0.0,0.0,0.0,0.0,0.0,0.0,0.0,0.0,0.0,0.0,0.0,0.0,0.0,0.0,0.0,0.0,0.0,0.0,0.0,0.0,0.0,0.0,0.0,0.0,0.0,0.0,0.0,0.0,0.0,0.0,0.0,0.0,0.0,0.0,0.0,0.0,0.0,0.0,0.0,0.0,0.0,0.0,0.0,0.0,0.0,0.0,0.0,0.0,0.0,0.0,0.0,0.0,0.0,0.0,0.0,0.0,0.0,0.0,0.0,0.0,0.0,0.0,-2.9789,-3.2774,-3.4913,-3.5825,-3.615,-3.6214,-3.5771,-3.445,-3.2679,0.0,0.0,0.0,0.0,0.0,0.0,0.0,0.0,0.0,0.0,0.0,0.0,0.0,0.0,0.0,0.0,0.0,0.0,0.0,0.0,0.0,0.0,0.0,0.0,0.0,0.0,0.0,0.0,0.0,0.0,0.0,0.0,0.0,0.0,0.0,0.0,0.0,0.0,0.0,0.0,0.0,0.0,0.0,0.0,0.0,0.0,0.0,0.0,0.0,0.0,0.0,0.0,0.0,0.0,0.0,0.0,0.0,0.0,0.0,0.0,0.0,0.0,0.0,0.0,0.0,0.0,0.0,0.0,0.0,0.0,0.0,0.0,0.0,0.0,0.0,0.0,0.0,0.0,0.0,0.0,0.0,0.0,0.0,0.0,0.0,0.0,0.0,0.0,0.0,0.0,0.0,0.0,0.0,0.0,0.0,0.0,0.0,0.0,0.0,0.0,0.0,0.0,0.0,-2.9615,-3.2731,-3.4966,-3.5329,-3.5952,-3.603,-3.5328,-3.4739,-3.3267,-3.037,0.0,0.0,0.0,0.0,0.0,0.0,0.0,0.0,0.0,0.0,0.0,0.0,0.0,0.0,0.0,0.0,0.0,0.0,0.0,0.0,0.0,0.0,0.0,0.0,0.0,0.0,0.0,0.0,0.0,0.0,0.0,0.0,0.0,0.0,0.0,0.0,0.0,0.0,0.0,0.0,0.0,0.0,0.0,0.0,0.0,0.0,0.0,0.0,0.0,0.0,0.0,0.0,0.0,0.0,0.0,0.0,0.0,0.0,0.0,0.0,0.0,0.0,0.0,0.0,0.0,0.0,0.0,0.0,0.0,0.0,0.0,0.0,0.0,0.0,0.0,0.0,0.0,0.0,0.0,0.0,0.0,0.0,0.0,0.0,0.0,0.0,0.0,0.0,0.0,0.0,0.0,0.0,0.0,0.0,0.0,0.0,0.0,0.0,0.0,0.0,0.0,0.0,-2.948,-3.2367,-3.4378,-3.4873,-3.5618,-3.5773,-3.5107,-3.4739,-3.3381,-3.0853,0.0,0.0,0.0,0.0,0.0,0.0,0.0,0.0,0.0,0.0,0.0,0.0,0.0,0.0,0.0,0.0,0.0,0.0,0.0,0.0,0.0,0.0,0.0,0.0,0.0,0.0,0.0,0.0,0.0,0.0,0.0,0.0,0.0,0.0,0.0,0.0,0.0,0.0,0.0,0.0,0.0,0.0,0.0,0.0,0.0,0.0,0.0,0.0,0.0,0.0,0.0,0.0,0.0,0.0,0.0,0.0,0.0,0.0,0.0,0.0,0.0,0.0,0.0,0.0,0.0,0.0,0.0,0.0,0.0,0.0,0.0,0.0,0.0,0.0,0.0,0.0,0.0,0.0,0.0,0.0,0.0,0.0,0.0,0.0,0.0,0.0,0.0,0.0,0.0,0.0,0.0,0.0,0.0,0.0,0.0,0.0,0.0,0.0,0.0,0.0,0.0,0.0,-2.9242,-3.1732,-3.3565,-3.4437,-3.5154,-3.5407,-3.5027,-3.4493,-3.3298,-3.1485,0.0,0.0,0.0,0.0,0.0,0.0,0.0,0.0,0.0,0.0,0.0,0.0,0.0,0.0,0.0,0.0,0.0,0.0,0.0,0.0,0.0,0.0,0.0,0.0,0.0,0.0,0.0,0.0,0.0,0.0,0.0,0.0,0.0,0.0,0.0,0.0,0.0,0.0,0.0,0.0,0.0,0.0,0.0,0.0,0.0,0.0,0.0,0.0,0.0,0.0,0.0,0.0,0.0,0.0,0.0,0.0,0.0,0.0,0.0,0.0,-1.8286,0.0,0.0,0.0,0.0,0.0,0.0,0.0,0.0,0.0,0.0,0.0,0.0,0.0,0.0,0.0,0.0,0.0,0.0,0.0,0.0,0.0,0.0,0.0,0.0,0.0,0.0,0.0,0.0,0.0,0.0,0.0,0.0,0.0,0.0,0.0,0.0,0.0,0.0,0.0,0.0,0.0,-2.9092,-3.1536,-3.3334,-3.3961,-3.4438,-3.4689,-3.4564,-3.437,-3.3546,-3.1857,-3.079,0.0,0.0,0.0,0.0,0.0,0.0,0.0,0.0,0.0,0.0,0.0,0.0,0.0,0.0,0.0,0.0,0.0,0.0,0.0,0.0,0.0,0.0,0.0,0.0,0.0,0.0,0.0,0.0,0.0,0.0,0.0,0.0,0.0,0.0,0.0,0.0,0.0,0.0,0.0,0.0,0.0,0.0,0.0,0.0,0.0,0.0,0.0,0.0,0.0,0.0,0.0,0.0,0.0,0.0,0.0,0.0,0.0,0.0,0.0,0.0,-1.9171,0.0,0.0,0.0,0.0,0.0,0.0,0.0,0.0,0.0,0.0,0.0,0.0,0.0,0.0,0.0,0.0,0.0,0.0,0.0,0.0,0.0,0.0,0.0,0.0,0.0,0.0,0.0,0.0,0.0,0.0,0.0,0.0,0.0,0.0,0.0,0.0,0.0,0.0,0.0,0.0,-2.9232,-3.1401,-3.297,-3.3823,-3.4173,-3.4423,-3.4673,-3.4513,-3.4139,-3.3078,-3.2044,0.0,0.0,0.0,0.0,0.0,0.0,0.0,0.0,0.0,0.0,0.0,0.0,0.0,0.0,0.0,0.0,0.0,0.0,0.0,0.0,0.0,0.0,0.0,0.0,0.0,0.0,0.0,0.0,0.0,0.0,0.0,0.0,0.0,0.0,0.0,0.0,0.0,0.0,0.0,0.0,0.0,0.0,0.0,0.0,0.0,0.0,0.0,0.0,0.0,0.0,0.0,0.0,0.0,-2.4241,-2.4514,-2.458,-2.4356,-2.4132,-2.3746,-2.2103,-2.1341,-2.111,-1.98,0.0,0.0,0.0,0.0,0.0,0.0,0.0,0.0,0.0,0.0,0.0,0.0,0.0,0.0,0.0,0.0,0.0,0.0,0.0,0.0,0.0,0.0,0.0,0.0,-2.2363,-2.2861,-2.2048,0.0,0.0,0.0,0.0,0.0,0.0,0.0,0.0,0.0,0.0,0.0,-2.959,-3.121,-3.2603,-3.3697,-3.4047,-3.4423,-3.4797,-3.4718,-3.4551,-3.4217,-3.3267,-3.2238,0.0,0.0,0.0,0.0,0.0,0.0,0.0,0.0,0.0,0.0,0.0,0.0,0.0,0.0,0.0,0.0,0.0,0.0,0.0,0.0,0.0,0.0,0.0,0.0,0.0,0.0,0.0,0.0,0.0,0.0,0.0,0.0,-1.1697,-1.2549,0.0,0.0,0.0,0.0,0.0,0.0,0.0,0.0,0.0,0.0,0.0,0.0,0.0,-2.1328,-2.2689,-2.3888,-2.4862,-2.5512,-2.6116,-2.6595,-2.7159,-2.6536,-2.6036,-2.5769,-2.5766,0.0,-2.2188,-2.1248,0.0,0.0,0.0,0.0,0.0,0.0,0.0,0.0,0.0,0.0,0.0,0.0,0.0,0.0,0.0,0.0,0.0,0.0,0.0,0.0,0.0,0.0,-2.3845,-2.3634,-2.3926,-2.4251,0.0,-2.4034,-2.3216,-2.3008,-2.3352,0.0,0.0,0.0,0.0,0.0,0.0,0.0,-3.0388,-3.1662,-3.248,-3.334,-3.3544,-3.3796,-3.4423,-3.4487,-3.4533,-3.4693,-3.4232,-3.3601,-3.2847,-3.1997,0.0,0.0,0.0,0.0,0.0,0.0,0.0,0.0,0.0,0.0,0.0,0.0,0.0,0.0,0.0,0.0,0.0,0.0,0.0,0.0,0.0,0.0,0.0,0.0,0.0,0.0,0.0,0.0,0.0,-1.1101,-1.2365,-1.2921,-1.3648,-1.4175,0.0,0.0,0.0,0.0,0.0,0.0,0.0,0.0,0.0,-2.2215,-2.2388,-2.3206,-2.4901,-2.593,-2.6996,-2.8112,-2.8001,-2.8239,-2.8876,-2.8,-2.7371,-2.7029,-2.6791,-2.5826,-2.4364,-2.289,-2.157,-2.0446,0.0,0.0,0.0,0.0,-1.8862,-1.9008,-1.9888,-2.0,0.0,-1.9241,0.0,0.0,0.0,0.0,0.0,0.0,0.0,0.0,0.0,0.0,-2.3816,-2.4424,-2.4989,-2.5525,-2.593,-2.5887,-2.548,0.0,-2.4721,-2.4436,-2.3013,0.0,0.0,0.0,0.0,-2.8662,-3.0836,-3.1956,-3.2878,-3.3611,-3.367,-3.3922,-3.4423,-3.4548,-3.4716,-3.4903,-3.4819,-3.4648,-3.4122,-3.3359,-3.2317,0.0,0.0,0.0,0.0,0.0,0.0,0.0,0.0,0.0,0.0,0.0,0.0,0.0,0.0,0.0,0.0,0.0,0.0,0.0,0.0,0.0,0.0,0.0,0.0,0.0,0.0,0.0,0.0,-1.1816,-1.2939,-1.3345,-1.459,-1.5241,0.0,0.0,0.0,0.0,0.0,0.0,-2.048,-2.0233,-2.129,-2.3804,-2.3731,-2.4756,-2.7022,-2.7509,-2.8408,-2.9789,-2.9163,-2.9034,-2.9404,-2.8646,-2.8106,-2.7694,-2.7325,-2.6874,-2.6168,-2.4254,-2.3043,-2.2291,-2.0966,-2.0654,-2.0843,-2.0579,-2.0456,-2.0543,-2.1313,-2.1449,-2.1222,-2.0614,-2.0472,-2.0125,-1.8686,0.0,0.0,0.0,0.0,-2.0725,-2.1887,-2.2906,-2.3834,-2.4836,-2.5456,-2.5846,-2.6311,-2.6781,-2.6724,0.0,-2.6118,-2.5755,-2.4234,0.0,0.0,0.0,-2.7641,-2.9478,-3.1133,-3.225,-3.3034,-3.3598,-3.3737,-3.3922,-3.4298,-3.4548,-3.4632,-3.4758,-3.5108,-3.5088,-3.4776,-3.4226,-3.3549,-3.2703,0.0,0.0,0.0,0.0,0.0,0.0,0.0,0.0,0.0,0.0,0.0,0.0,0.0,0.0,0.0,0.0,0.0,0.0,0.0,0.0,0.0,0.0,0.0,0.0,0.0,0.0,0.0,0.0,0.0,-1.4172,-1.5806,0.0,0.0,0.0,0.0,-1.8536,-1.9164,-2.0391,-2.2307,-2.2004,-2.2996,-2.539,-2.4619,-2.5497,-2.8584,-2.8026,-2.8418,-2.9787,-2.9134,-2.8625,-2.8362,-2.8378,-2.8081,-2.7784,-2.8065,-2.7752,-2.6971,-2.5,-2.3915,-2.3424,-2.2421,-2.1876,-2.1672,-2.2271,-2.233,-2.214,-2.2476,-2.2552,-2.2572,-2.2195,-2.1481,-2.0706,-2.0603,-2.015,0.0,0.0,-2.1511,-2.2751,-2.3322,-2.4268,-2.504,-2.5071,-2.4833,-2.4932,-2.5879,-2.5777,-2.5829,0.0,-2.7544,-2.7477,-2.6591,0.0,-2.712,-2.7903,-2.8671,-2.9699,-3.1392,-3.2254,-3.2793,-3.2832,-3.3184,-3.3544,-3.3922,-3.3922,-3.3993,-3.433,-3.4697,-3.4841,-3.4776,-3.4637,-3.4043,-3.3119,-3.2018,0.0,0.0,0.0,0.0,0.0,0.0,0.0,0.0,0.0,0.0,0.0,0.0,0.0,0.0,0.0,0.0,0.0,0.0,0.0,0.0,0.0,0.0,0.0,0.0,0.0,0.0,0.0,0.0,-1.5022,-1.6756,0.0,-1.7569,-1.8427,-1.9406,-2.0136,-2.0764,-2.1714,-2.2849,-2.278,-2.3469,-2.5147,-2.5585,-2.6645,-2.8306,-2.8783,-2.9414,-3.023,-2.943,-2.9053,-2.8922,-2.8922,-2.879,-2.8395,-2.8395,-2.8048,-2.7473,-2.61,-2.5211,-2.4868,-2.4386,-2.3843,-2.3518,-2.3613,-2.3501,-2.3427,-2.3021,-2.2992,-2.2849,-2.2544,-2.2161,-2.195,-2.195,-2.1657,-2.1408,-2.1832,-2.223,-2.2736,-2.3442,-2.4024,-2.461,-2.498,-2.5146,-2.5448,-2.5928,-2.6311,-2.6692,-2.7436,-2.7576,-2.7308,-2.6734,-2.7713,-2.8406,-2.7884,-2.941,-3.0988,-3.1604,-3.2293,-3.2891,-3.3164,-3.332,-3.3418,-3.3544,-3.3539,-3.3693,-3.3902,-3.4024,-3.4124,-3.432,-3.4274,-3.3989,-3.3409,-3.2767,-3.1473,0.0,0.0,0.0,0.0,0.0,0.0,0.0,0.0,0.0,0.0,0.0,0.0,0.0,0.0,0.0,0.0,0.0,0.0,0.0,0.0,0.0,0.0,0.0,0.0,0.0,-1.3701,-1.5124,-1.5438,-1.7381,-1.8658,-1.838,-1.9677,-2.0766,-2.1399,-2.1918,-2.2587,-2.3245,-2.3412,-2.3948,-2.514,-2.633,-2.7479,-2.8622,-2.9247,-2.983,-3.023,-2.9447,-2.9185,-2.9185,-2.9185,-2.9053,-2.8807,-2.8395,-2.818,-2.7785,-2.6899,-2.6252,-2.5939,-2.5436,-2.5237,-2.5065,-2.4803,-2.4538,-2.4201,-2.3436,-2.3321,-2.3286,-2.3058,-2.2798,-2.2784,-2.2784,-2.2652,-2.2535,-2.274,-2.2907,-2.3212,-2.3683,-2.4115,-2.461,-2.498,-2.5242,-2.5488,-2.5839,-2.6487,-2.7001,-2.7373,-2.7624,-2.7768,-2.7741,-2.8608,-2.909,-2.8403,-2.9955,-3.1328,-3.1347,-3.2196,-3.291,-3.3184,-3.334,-3.3418,-3.3418,-3.3158,-3.3069,-3.3436,-3.3256,-3.337,-3.3844,-3.3651,-3.3445,-3.3402,-3.2724,-3.1733,-3.0334,0.0,0.0,0.0,0.0,0.0,0.0,0.0,0.0,0.0,0.0,0.0,0.0,0.0,0.0,0.0,0.0,0.0,0.0,0.0,0.0,0.0,0.0,0.0,-1.2273,-1.4001,-1.5269,-1.5455,-1.7785,-1.9112,-1.8605,-2.0515,-2.1832,-2.214,-2.2462,-2.2907,-2.3589,-2.3867,-2.4642,-2.5721,-2.6753,-2.7872,-2.9247,-2.9264,-2.9456,-2.9805,-2.9036,-2.879,-2.8774,-2.879,-2.879,-2.8774,-2.8378,-2.831,-2.8123,-2.7455,-2.6994,-2.653,-2.5905,-2.584,-2.6145,-2.6145,-2.5453,-2.4575,-2.3848,-2.3651,-2.3554,-2.3613,-2.3369,-2.3106,-2.3106,-2.3106,-2.3106,-2.3106,-2.3604,-2.4115,-2.4115,-2.461,-2.5103,-2.5103,-2.5103,-2.5226,-2.5488,-2.6133,-2.6769,-2.7018,-2.7902,-2.8888,-2.9599,-2.9301,-2.9159,-2.9525,-3.0204,0.0,-3.0585,-3.188,-3.2754,-3.2773,-3.3144,-3.3379,-3.3398,-3.2637,-3.2289,-3.2633,-3.2574,-3.2804,-3.3368,-3.2746,-3.2622,-3.2934,-3.2122,-3.1556,-3.155,0.0,0.0,0.0,0.0,0.0,0.0,0.0,0.0,0.0,0.0,0.0,0.0,0.0,0.0,0.0,0.0,0.0,0.0,0.0,0.0,0.0,-1.1394,-1.2888,-1.3467,-1.5001,-1.6332,-1.6904,-1.8398,-1.9564,-2.0343,-2.1203,-2.2049,-2.2734,-2.2675,-2.2769,-2.323,-2.3828,-2.4641,-2.5601,-2.7227,-2.8281,-2.8863,-2.9142,-2.9206,-2.9051,-2.8646,-2.8123,-2.7632,-2.7881,-2.7718,-2.7358,-2.8027,-2.8077,-2.7864,-2.8229,-2.7769,-2.6969,-2.683,-2.6455,-2.6145,-2.6398,-2.5988,-2.5181,-2.4316,-2.3991,-2.3821,-2.3422,-2.3179,-2.3106,-2.3106,-2.323,-2.3355,-2.3106,-2.3355,-2.3743,-2.3743,-2.4115,-2.4487,-2.4734,-2.4857,-2.5226,-2.5488,-2.6346,-2.7151,-2.7529,-2.8174,-2.8746,-2.8941,-2.9686,-3.013,-2.9654,-3.0185,0.0,-3.1001,-3.129,-3.1731,-3.2305,-3.2441,-3.2637,-3.2949,-3.248,-3.2411,-3.2975,-3.2574,-3.2666,-3.3368,-3.3256,-3.3194,-3.3444,-3.2706,-3.2354,0.0,0.0,0.0,0.0,0.0,0.0,0.0,0.0,0.0,0.0,0.0,0.0,0.0,0.0,0.0,0.0,0.0,0.0,0.0,0.0,0.0,0.0,-1.2133,-1.3825,-1.4669,-1.5822,-1.6955,-1.7667,-1.8685,-1.9815,-2.0939,-2.1489,-2.2045,-2.2867,-2.2682,-2.2731,-2.3106,-2.3918,-2.4826,-2.5782,-2.7544,-2.8503,-2.8697,-2.9032,-2.8793,-2.8145,-2.7872,-2.7516,-2.6935,-2.7388,-2.7582,-2.766,-2.8151,-2.8364,-2.8381,-2.8622,-2.821,0.0,0.0,0.0,0.0,0.0,-2.5766,-2.5313,-2.4456,-2.4044,-2.3732,-2.3289,-2.3106,-2.3106,-2.3106,-2.323,-2.3355,-2.3106,-2.3355,-2.3604,-2.3728,-2.4009,-2.4178,-2.4702,-2.4869,-2.4928,-2.5333,-2.6303,-2.7317,-2.7427,-2.8443,0.0,-2.8835,-2.9475,-3.0007,-2.9635,-3.0297,-3.0747,-3.0701,-3.0952,-3.1252,-3.1905,-3.208,-3.2416,-3.2773,-3.2402,0.0,0.0,0.0,-3.2468,-3.2984,-3.333,0.0,0.0,0.0,-3.331,-3.3616,-3.3901,0.0,0.0,-3.3977,-3.4347,0.0,0.0,0.0,0.0,0.0,0.0,0.0,0.0,0.0,0.0,0.0,0.0,0.0,0.0,0.0,0.0,-1.2944,-1.4779,-1.5682,-1.663,-1.7317,-1.7861,-1.8739,-1.9712,-2.076,-2.1237,-2.1896,-2.253,-2.2572,-2.2745,-2.3164,0.0,0.0,0.0,0.0,-2.8622,-2.8682,-2.8682,-2.8094,-2.709,-2.698,-2.6837,-2.6423,-2.6886,-2.7594,-2.8486,-2.8459,-2.8639,-2.9171,-2.9014,-2.8483,-2.7765,-2.7295,-2.6567,-2.5654,-2.5442,-2.5339,-2.5014,-2.4411,0.0,0.0,-2.323,-2.3106,-2.3106,-2.3106,-2.3106,-2.3106,-2.3106,-2.3355,-2.3728,-2.41,-2.4163,-2.4389,-2.4917,-2.4897,-2.477,-2.5178,-2.6254,-2.714,-2.73,-2.8588,-2.9491,-2.9224,-2.9243,-2.9397,-2.9654,-3.023,-3.0605,-3.0214,-3.0663,-3.1218,-3.1604,0.0,0.0,-3.2669,-3.2461,-3.2402,-3.2773,-3.2433,-3.2431,-3.2839,-3.332,-3.3663,-3.3713,-3.4005,-3.4547,-3.5082,-3.6167,-3.6568,-3.6307,-3.4867,-3.5246,0.0,0.0,0.0,0.0,0.0,0.0,0.0,0.0,0.0,0.0,0.0,0.0,0.0,0.0,0.0,-1.1521,-1.3627,-1.5358,-1.6226,-1.702,-1.7462,-1.7638,-1.8391,-1.9442,-2.0695,-2.0704,-2.1152,-2.2462,-2.2702,-2.2986,-2.3866,-2.5221,-2.61,-2.6536,-2.767,-2.8127,-2.7544,-2.7544,-2.7107,-2.6352,0.0,0.0,-2.5077,-2.6024,-2.6534,-2.675,-2.8094,-2.8751,-2.8897,-2.9405,-2.9042,-2.8118,-2.7371,-2.6728,-2.6055,-2.634,-2.6039,-2.5423,-2.5068,-2.4492,-2.3976,-2.3604,-2.3355,-2.3106,-2.3106,-2.323,0.0,-2.3479,-2.3728,-2.4115,-2.4363,-2.4642,-2.5,-2.5043,-2.5278,-2.5498,-2.5872,-2.629,-2.6935,-2.7882,-2.8306,-2.8714,-2.9107,-2.9974,-3.0447,-3.0185,-3.0549,-3.0784,-3.087,-3.0588,-3.0679,-3.1401,-3.1339,-3.1546,-3.2363,-3.2591,-3.2695,-3.2773,-3.3129,-3.3599,-3.4001,-3.4329,-3.4714,-3.4819,-3.5318,-3.5523,-3.5572,-3.6424,-3.6975,-3.732,-3.7231,-3.7451,0.0,0.0,0.0,0.0,0.0,0.0,0.0,0.0,0.0,0.0,0.0,-0.4727,-0.6317,0.0,-1.0261,-1.1783,-1.377,-1.5412,-1.6362,-1.7256,-1.7793,-1.7993,-1.8558,-1.9285,-2.0452,-2.0356,-2.064,-2.1614,-2.2167,-2.2821,-2.3589,-2.4894,-2.6068,-2.6918,-2.7312,-2.7344,-2.6935,-2.6612,-2.6084,-2.5357,-2.5373,-2.5373,-2.5373,-2.61,-2.6766,-2.7554,-2.8749,-2.9142,-2.8714,-2.8697,-2.8213,-2.7394,-2.7152,-2.6859,-2.6424,-2.6213,-2.5832,-2.5282,-2.4945,-2.4401,-2.3728,-2.3479,-2.3355,-2.3355,-2.3355,-2.3479,-2.3604,-2.3852,-2.3852,-2.3976,-2.4487,-2.461,-2.4734,-2.498,-2.5242,-2.5472,-2.5717,-2.6241,-2.6852,-2.7739,-2.8086,-2.8401,-2.9101,-2.9819,-3.0277,-3.0212,-3.0701,-3.1064,-3.0928,-3.081,-3.0851,-3.113,-3.1283,-3.1692,-3.2258,-3.2739,-3.3203,-3.3418,-3.3922,-3.4418,-3.5017,-3.5143,-3.5417,-3.5932,-3.5932,-3.5806,-3.5818,-3.6774,-3.724,-3.7352,-3.8597,-3.9088,0.0,0.0,0.0,0.0,0.0,0.0,0.0,-0.0237,-0.1235,-0.2406,-0.3709,-0.5128,-0.6617,-0.8561,-1.0371,-1.2033,-1.3891,-1.5451,-1.6351,-1.7256,-1.7843,-1.8064,-1.8532,-1.9115,-1.9996,-1.9983,-2.0237,-2.1022,-2.176,-2.2559,-2.3412,-2.4746,-2.5911,-2.7033,-2.6729,-2.6567,-2.6536,-2.6119,-2.5548,-2.4951,-2.5278,-2.5702,-2.6477,-2.6727,-2.752,-2.8689,-2.9256,-2.9221,-2.8529,-2.7968,-2.7351,-2.6819,-2.7153,-2.7035,-2.6663,-2.6088,-2.5628,-2.5124,-2.4872,-2.4265,-2.3604,-2.3355,-2.3355,-2.3604,-2.3479,-2.3604,-2.3604,-2.3991,-2.3867,-2.3728,-2.4487,-2.4454,-2.4483,-2.5012,-2.5162,-2.5432,-2.5659,-2.6232,-2.6952,-2.7613,-2.8111,-2.8527,-2.9094,-2.9483,-2.9942,-3.0229,-3.0883,-3.1231,-3.0972,-3.1043,-3.1164,-3.0953,-3.1464,-3.1941,-3.2411,-3.3049,-3.3564,-3.4043,-3.4398,-3.5002,-3.5751,-3.5666,-3.5992,-3.6624,-3.6269,-3.606,-3.6081,-3.7185,-3.7524,-3.738,-3.9187,-4.0069,0.5183,0.452,0.3734,0.2869,0.2139,0.1564,0.0,0.0091,-0.1472,-0.2872,-0.3831,-0.514,-0.7309,-0.9075,-1.0874,-1.3022,-1.4458,-1.5522,-1.6374,-1.6655,-1.6773,-1.7114,-1.7948,-1.8764,-1.9404,-1.8959,-1.9615,-2.1911,-2.2241,-2.2871,-2.4341,-2.5532,-2.6279,-2.6743,-2.6472,-2.6312,-2.628,-2.6503,-2.642,-2.608,-2.6388,-2.6804,-2.7201,-2.709,-2.7487,-2.8277,-2.8706,-2.8598,-2.8312,-2.8152,-2.7866,-2.7613,-2.7563,-2.7217,-2.6631,-2.6559,-2.6036,-2.5518,-2.5124,-2.4641,-2.3976,-2.3604,-2.3604,-2.3479,-2.323,-2.3355,-2.3604,-2.3991,-2.3867,-2.3728,-2.4487,-2.4813,-2.5015,-2.5062,-2.5644,-2.6024,-2.5988,-2.6608,-2.7267,-2.7664,-2.8239,-2.8871,-2.9196,-2.9526,-2.9942,-3.0229,-3.0627,-3.0992,-3.1243,-3.1062,-3.115,-3.1989,-3.1884,-3.218,-3.3194,-3.3239,-3.3379,-3.4062,-3.4414,-3.504,-3.5751,-3.584,-3.6078,-3.6722,-3.668,-3.666,-3.666,-3.7445,-3.7933,-3.8359,-3.9237,-3.9814,0.5822,0.5079,0.4214,0.3385,0.2738,0.2215,0.156,0.028,-0.1142,-0.2573,-0.3638,-0.4945,-0.7078,-0.8707,-1.0373,-1.272,-1.3929,-1.5045,-1.6138,-1.6306,-1.632,-1.6553,-1.7018,-1.7695,-1.8437,-1.8478,-1.9103,-2.0708,-2.1506,-2.2657,-2.3978,-2.5156,-2.604,-2.6312,-2.5659,-2.5581,-2.6087,-2.5961,-2.5911,-2.6191,-2.6428,-2.7094,-2.7719,-2.7594,-2.7963,-2.878,-2.8095,-2.7902,-2.8092,-2.7761,-2.7412,-2.7025,-2.7289,-2.7052,-2.6575,-2.6428,-2.6004,-2.5518,-2.525,-2.4781,-2.4394,-2.4219,-2.4018,-2.3852,-2.3728,-2.3604,-2.3728,-2.4239,-2.4115,-2.4115,-2.4734,-2.4967,-2.5077,-2.5077,-2.5437,-2.5875,-2.5853,-2.6346,-2.7051,-2.763,-2.8111,-2.8629,-2.9248,-2.943,-2.9639,-3.0001,-3.0513,-3.0954,-3.1285,-3.1394,-3.1649,-3.2283,-3.2283,-3.2467,-3.3019,-3.3444,-3.3921,-3.4414,-3.5107,-3.5726,-3.6515,-3.6537,-3.6807,-3.7457,-3.7078,-3.6933,-3.7061,-3.7826,-3.8316,-3.8508,-3.9692,-4.0489,0.6087,0.5409,0.4592,0.3815,0.3255,0.2704,0.1866,0.0569,-0.087,-0.2275,-0.3439,-0.4846,-0.6785,-0.8197,-0.9876,-1.2298,-1.3364,-1.4364,-1.5655,-1.5865,-1.5848,-1.5915,-1.6206,-1.6727,-1.7325,-1.8064,-1.892,-2.0342,-2.1293,-2.2436,-2.3825,-2.4704,-2.5141,-2.5486,-2.4764,-2.4764,-2.5846,-2.5612,-2.5859,-2.66,-2.6844,-2.7526,-2.8394,-2.8043,-2.8095,-2.8588,-2.7557,-2.7349,-2.7817,-2.7176,-2.683,-2.6571,-2.683,-2.6739,-2.6463,-2.6339,-2.6032,-2.5612,-2.5141,-2.4813,-2.4533,-2.4531,-2.4314,-2.4239,-2.3976,-2.3867,-2.3852,-2.4363,-2.4239,-2.4115,-2.4734,-2.498,-2.5012,-2.5107,-2.5386,-2.5633,-2.5633,-2.6303,-2.7217,-2.7537,-2.8151,-2.8901,-2.9436,-2.9602,-2.9733,-2.9979,-3.0651,-3.1135,-3.1267,-3.1746,-3.2206,-3.2592,-3.2558,-3.2706,-3.3104,-3.3714,-3.4289,-3.4731,-3.5426,-3.6336,-3.7059,-3.7044,-3.7258,-3.8089,-3.7494,-3.7328,-3.7587,-3.8418,-3.876,-3.8912,-4.0301,-4.1109,0.5761,0.5355,0.487,0.409,0.3414,0.2856,0.2288,0.087,-0.0781,-0.2011,-0.3341,-0.4834,-0.6348,-0.7981,-0.9808,-1.2099,-1.3163,-1.4019,-1.4935,-1.4928,-1.4865,-1.5074,-1.5492,-1.5926,-1.6172,-1.7491,-1.9338,-2.1589,-2.1781,-2.2554,-2.4425,-2.3991,-2.3768,-2.4097,-2.3798,-2.4143,-2.5093,-2.5862,-2.6628,-2.7604,-2.7997,-2.8546,-2.9172,-2.8412,-2.78,-2.7107,-2.709,-2.7073,-2.709,-2.6709,-2.6571,-2.6571,-2.6571,-2.6449,-2.6083,-2.6466,-2.6315,-2.5939,-2.4983,-2.461,-2.4487,-2.4239,-2.4363,-2.4487,-2.3867,-2.3867,-2.41,-2.4115,-2.3852,-2.3728,-2.4487,-2.461,-2.4688,-2.5031,-2.5376,-2.5628,-2.5628,-2.6939,-2.8015,-2.7322,-2.8572,-2.9864,-2.9881,-3.0131,-3.0397,-3.0397,-3.1078,-3.133,-3.0933,-3.1856,-3.2618,-3.3009,-3.3105,-3.3181,-3.3417,-3.4013,-3.4374,-3.4816,-3.5491,-3.6268,-3.7079,-3.7059,-3.7482,-3.8171,-3.815,-3.815,-3.815,-3.8988,-3.9467,-3.989,-4.0764,-4.1259,0.6434,0.6039,0.545,0.4374,0.3715,0.3101,0.22,0.1055,-0.0096,-0.1048,-0.2569,-0.4204,-0.5989,-0.7211,-0.8917,-1.1675,-1.2637,-1.3442,-1.4589,-1.5069,-1.5028,-1.4565,-1.5569,-1.5979,-1.5269,-1.7032,-1.8775,-2.0415,-2.1074,-2.2069,-2.3574,-2.3604,-2.3664,-2.3768,-2.3913,-2.4533,-2.5756,-2.6248,-2.6867,-2.7592,-2.773,-2.78,-2.7817,-2.7783,-2.754,-2.7073,-2.683,-2.6952,-2.7073,-2.6952,-2.6952,-2.6952,-2.7177,-2.7056,-2.6692,-2.6692,-2.6533,-2.6404,-2.5778,-2.5294,-2.4904,-2.5,-2.4922,-2.4487,-2.41,-2.3991,-2.4115,-2.4115,-2.4239,-2.4363,-2.4857,-2.498,-2.5012,-2.5014,-2.517,-2.5294,-2.5542,-2.6886,-2.7881,-2.7654,-2.885,-2.9898,-2.9898,-2.9941,-3.0232,-3.1043,-3.1343,-3.1552,-3.1687,-3.2411,-3.3049,-3.3444,-3.369,-3.3877,-3.3843,-3.4599,-3.4987,-3.4809,-3.6008,-3.6809,-3.7079,-3.7636,-3.7904,-3.8191,-3.8191,-3.8191,-3.8191,-3.903,-3.9509,-3.953,-4.0651,-4.1169,0.7278,0.672,0.593,0.4899,0.4121,0.3318,0.23,0.1328,0.0188,-0.112,-0.2214,-0.3484,-0.5563,-0.6608,-0.8111,-1.0741,-1.1729,-1.2671,-1.3986,-1.472,-1.4932,-1.456,-1.5455,-1.586,-1.5406,-1.6839,-1.8381,-1.9581,-2.0564,-2.1695,-2.2827,-2.2856,-2.3106,-2.3355,-2.3723,-2.4595,-2.57,-2.6183,-2.6677,-2.7159,-2.7159,-2.7159,-2.7297,-2.7297,-2.7297,-2.7177,-2.6935,-2.7056,-2.7435,-2.7194,-2.7194,-2.7435,-2.7418,-2.7297,-2.7073,-2.683,-2.6692,-2.6482,-2.6101,-2.5665,-2.5274,-2.5373,-2.517,-2.4734,-2.4363,-2.4239,-2.4239,-2.4239,-2.4487,-2.4734,-2.498,-2.5103,-2.5103,-2.5103,-2.5103,-2.5151,-2.5525,-2.6788,-2.7781,-2.766,-2.9036,-3.0221,-3.0087,-3.0252,-3.0698,-3.1361,-3.1709,-3.2023,-3.2441,-3.2929,-3.3364,-3.3899,-3.4146,-3.4337,-3.4309,-3.5062,-3.5354,-3.5062,-3.6107,-3.6809,-3.7079,-3.7502,-3.7904,-3.8191,-3.8191,-3.8191,-3.8191,-3.903,-3.9509,-3.9664,-4.0651,-4.1034,0.8137,0.7254,0.6284,0.5663,0.4526,0.3412,0.2676,0.1685,0.0275,-0.188,-0.2227,-0.2847,-0.524,-0.6065,-0.7217,-0.9413,-1.0741,-1.1895,-1.3199,-1.4183,-1.4721,-1.4768,-1.5258,-1.5708,-1.6167,-1.719,-1.8165,-1.912,-2.0372,-2.141,-2.2466,-2.1853,-2.1992,-2.3135,-2.3525,-2.4169,-2.5103,-2.5934,-2.643,-2.6571,-2.6571,-2.6935,-2.7521,-2.7177,-2.7177,-2.7521,-2.7177,-2.7435,-2.802,-2.7435,-2.7539,-2.802,-2.7435,-2.7194,-2.7073,-2.7073,-2.6952,-2.6571,-2.5855,-2.561,-2.561,-2.5242,-2.5103,-2.498,-2.4734,-2.461,-2.461,-2.461,-2.461,-2.4734,-2.498,-2.5103,-2.5103,-2.5103,-2.5103,-2.5214,-2.5564,-2.6824,-2.7847,-2.7734,-2.9526,-3.0819,-3.0531,-3.0995,-3.156,-3.1486,-3.2142,-3.2766,-3.3193,-3.323,-3.3521,-3.4199,-3.4421,-3.4477,-3.4874,-3.5239,-3.547,-3.5451,-3.5879,-3.6287,-3.7079,-3.7079,-3.7502,-3.8191,-3.8191,-3.8191,-3.8191,-3.903,-3.9509,-3.9933,-4.0672,-4.1034,0.8583,0.7738,0.6879,0.563,0.4587,0.3678,0.2948,0.1972,0.0873,-0.0504,-0.2085,-0.3568,-0.4713,-0.5331,-0.6697,-0.9523,-1.0556,-1.1637,-1.3405,-1.4175,-1.4606,-1.4817,-1.5423,-1.5864,-1.5971,-1.713,-1.8139,-1.8452,-1.9362,-2.0526,-2.1839,-2.0969,-2.1316,-2.3076,-2.3184,-2.4049,-2.5842,-2.6561,-2.6793,-2.6571,-2.683,-2.7073,-2.7194,-2.7073,-2.7194,-2.7194,-2.7297,-2.7659,-2.802,-2.814,-2.8241,-2.8361,-2.8157,-2.7779,-2.7401,-2.7401,-2.7177,-2.6952,-2.6449,-2.5978,-2.561,-2.5488,-2.5365,-2.498,-2.4734,-2.4734,-2.4857,-2.461,-2.4734,-2.498,-2.5103,-2.5103,-2.5103,-2.5103,-2.5226,-2.5585,-2.6172,-2.7333,-2.8319,-2.885,-2.9847,-3.0479,-3.0472,-3.102,-3.1513,-3.1432,-3.2175,-3.2618,-3.2753,-3.3558,-3.4221,-3.477,-3.4708,-3.4888,-3.5162,-3.5375,-3.5491,-3.5432,-3.5955,-3.6519,-3.6654,-3.7213,-3.7616,-3.777,-3.8037,-3.8191,-3.8191,-3.8761,-3.9104,-3.953,-4.0401,-4.0629,0.9358,0.8342,0.73,0.6157,0.4859,0.3713,0.2762,0.1938,0.0933,-0.0654,-0.2157,-0.3542,-0.454,-0.4613,-0.5594,-0.8635,-0.9384,-1.0445,-1.2846,-1.3732,-1.4341,-1.4459,-1.5119,-1.5744,-1.6128,-1.6979,-1.7976,-1.8969,-1.9336,-2.0042,-2.0843,-2.0602,-2.1229,-2.3319,-2.3413,-2.4154,-2.5862,-2.6265,-2.6466,-2.6327,-2.6692,-2.7056,-2.7297,-2.7297,-2.7297,-2.7297,0.0,-2.8122,-2.8498,-2.8618,-2.8838,-2.8838,-2.8636,-2.814,-2.7521,-2.7521,-2.7297,-2.7073,-2.683,-2.6449,-2.5961,-2.5733,-2.5488,-2.5242,-2.4857,-2.5103,-2.5242,-2.4857,-2.498,-2.5103,-2.5103,-2.5103,-2.5103,-2.5103,-2.5477,-2.6107,-2.6739,-2.7565,-2.8714,-2.9791,-3.041,-3.0703,-3.0863,-3.1537,-3.188,-3.1366,-3.2266,-3.2991,-3.2643,-3.3292,-3.4046,-3.4627,-3.4646,-3.4827,-3.5143,-3.5335,-3.551,-3.5413,-3.6014,-3.6403,-3.6519,-3.7079,-3.7482,-3.7616,-3.8037,-3.8191,-3.8191,-3.8553,-3.8946,-3.9347,-3.989,-4.027,1.0305,0.8927,0.7535,0.6658,0.5192,0.3586,0.2436,0.1672,0.0667,-0.1376,-0.226,-0.312,-0.4428,-0.3997,-0.4499,-0.7467,-0.7986,-0.9033,-1.1957,-1.3066,-1.3726,-1.4089,-1.4549,-1.5313,-1.6473,-1.6872,-1.7905,-1.9954,-1.9699,-1.9839,-2.0234,-2.0361,-2.1343,-2.3232,-2.3672,-2.432,-2.5548,-2.5633,-2.5839,-2.6205,-2.6571,-2.6935,-2.7521,-2.7521,-2.7521,-2.7521,-2.8241,-2.8719,-2.8975,-2.8975,-2.9213,-2.9431,-2.8755,-2.814,-2.7642,-2.7521,-2.7418,-2.7194,-2.7073,-2.683,-2.6449,-2.5978,-2.5733,-2.561,-2.5349,-2.5349,-2.5488,-2.5242,-2.5103,-2.5103,-2.5103,-2.5103,-2.5119,-2.5167,-2.5778,-2.6449,-2.7182,-2.793,-2.8935,-3.0576,-3.0943,-3.0961,-3.1261,-3.1961,-3.2271,-3.1055,-3.2502,-3.3486,-3.2771,-3.3046,-3.3569,-3.4333,-3.437,-3.4508,-3.4921,-3.5196,-3.547,-3.5489,-3.5743,-3.6152,-3.6384,-3.6809,-3.7213,-3.7482,-3.7904,-3.8191,-3.8191,-3.8437,-3.8814,-3.9078,-3.9494,-3.9909,1.0841,0.9669,0.8219,0.6542,0.5185,0.3849,0.2633,0.132,0.0083,-0.1008,-0.213,-0.3106,-0.3878,-0.3687,-0.4372,-0.7322,-0.755,-0.856,-1.194,-1.2397,-1.2949,-1.4308,-1.4799,-1.5453,-1.6742,-1.7518,-1.8291,-1.9571,-1.9571,-1.9954,-2.0856,-1.9966,-2.0106,-2.1936,-2.3569,-2.4607,-2.4828,-2.5397,-2.61,-2.6952,-2.6952,-2.7315,-2.79,-2.7642,-2.7521,-2.7521,-2.8241,0.0,-2.8975,-2.8975,-2.9331,-2.9804,-2.9094,-2.8636,-2.8277,-2.802,-2.7659,-2.7401,-2.7194,-2.6692,-2.6205,-2.6327,-2.6205,-2.5961,-2.5945,-2.5717,-2.561,-2.5488,-2.5349,-2.5103,-2.5103,-2.5103,-2.5306,-2.5842,-2.633,-2.6826,-2.7827,-2.8871,-2.9761,-3.0083,-3.0275,-3.0412,-3.0187,-3.1283,-3.1903,-3.1114,-3.2313,-3.3266,-3.3138,-3.3468,-3.3882,-3.437,-3.4094,-3.4232,-3.4784,-3.4921,-3.5196,-3.5489,-3.5743,-3.6016,-3.6152,-3.6403,-3.6789,-3.7213,-3.7482,-3.7904,-3.8191,-3.8304,-3.8437,-3.8814,-3.9078,-3.9687,1.1492,1.0107,0.8444,0.6654,0.503,0.3456,0.1977,0.0792,-0.0247,-0.1228,-0.2193,-0.3027,-0.3551,-0.3256,-0.3695,-0.5917,-0.6295,-0.7443,-1.0453,-1.1476,-1.2555,-1.3916,-1.441,-1.5062,-1.6094,-1.7001,-1.7776,-1.8676,-1.906,-1.9711,-2.0475,-2.1001,-2.1256,-2.1614,-2.3933,-2.4953,-2.461,-2.5472,-2.6327,-2.7073,-2.7073,-2.7297,-2.7762,-2.7521,-2.7521,-2.7521,-2.8361,-2.8737,-2.8737,-2.9213,-2.945,-2.945,-2.9331,-2.8993,-2.8397,-2.814,-2.7762,-2.7401,-2.7194,-2.6952,-2.6692,-2.683,-2.6449,-2.5839,-2.5839,-2.5717,-2.561,-2.561,-2.5365,-2.5274,-2.5697,-2.5622,-2.5593,-2.6449,-2.7189,-2.7956,-2.8714,-2.9509,-3.0121,-2.9932,-3.0343,-3.0549,-3.0252,-3.1178,-3.1969,-3.1336,-3.2429,-3.323,-3.323,-3.356,-3.3817,-3.4094,-3.3955,-3.3955,-3.437,-3.4646,-3.4921,-3.5196,-3.5743,-3.6016,-3.6016,-3.6539,-3.6944,-3.7079,-3.7636,-3.8037,-3.8191,-3.8191,-3.8304,-3.8681,-3.9332,-3.9832,1.1907,1.0395,0.8584,0.6771,0.5102,0.3286,0.1423,0.0355,-0.0581,-0.1705,-0.2431,-0.2954,-0.3347,-0.2989,-0.318,-0.462,-0.4994,-0.6121,-0.8899,-1.0661,-1.1987,-1.3335,-1.4003,-1.466,-1.5173,-1.6483,-1.7518,-1.8033,-1.8944,-1.9596,-2.0106,-2.1833,-2.2328,-2.1519,-2.3828,-2.4844,-2.4378,-2.5546,-2.6449,-2.7194,-2.7194,-2.7418,-2.7762,-2.7642,-2.7521,-2.7762,-2.8498,-2.8737,-2.86,-2.945,-2.945,-2.9094,-2.945,-2.9094,-2.8517,-2.814,-2.79,-2.7642,-2.7194,-2.7073,-2.7073,-2.7073,-2.6466,-2.5855,-2.5855,-2.5855,-2.5749,-2.5814,-2.5601,-2.5542,-2.652,-2.6242,-2.6087,-2.7222,-2.8173,-2.9036,-2.9168,-2.9778,-3.0104,-2.983,-3.0378,-3.0789,-3.0415,-3.1396,-3.2141,-3.1727,-3.2502,-3.3248,-3.334,-3.3615,-3.3817,-3.3817,-3.3817,-3.3817,-3.3817,-3.4508,-3.4921,-3.4921,-3.5684,-3.6113,-3.6016,-3.6773,-3.7044,-3.6944,-3.7636,-3.8037,-3.8037,-3.8037,-3.8345,-3.8716,-3.9474,-4.0174,1.1707,1.0501,0.9185,0.7002,0.5575,0.4143,0.1454,0.0091,-0.1019,-0.2223,-0.2614,-0.2971,-0.3422,-0.3139,-0.3297,-0.4543,-0.3982,-0.4806,-0.8652,-1.001,-1.1066,-1.275,-1.3793,-1.453,-1.4912,-1.6732,-1.8033,-1.8547,-1.9711,-2.0361,-2.0106,-2.1136,-2.1519,-2.1204,-2.2616,-2.3499,-2.3657,-2.5294,-2.6554,-2.7401,-2.7401,-2.8002,-2.8856,-2.7882,-2.7779,-2.8397,-2.814,-2.8379,0.0,-2.9094,-2.9213,-2.945,-2.945,-2.9331,-2.8874,-2.8259,-2.814,-2.8277,-2.7435,-2.7073,-2.7073,-2.7073,-2.683,-2.6571,-2.683,-2.6571,-2.6149,-2.6727,-2.6454,-2.6145,-2.6914,-2.6869,-2.684,-2.7972,-2.8765,-2.9316,-2.9316,-2.9367,-2.9402,-2.9367,-3.0235,-3.0781,-2.9996,-3.1336,-3.2503,-3.2088,-3.2666,-3.3358,-3.3707,-3.3798,-3.3817,-3.3817,-3.3817,-3.3817,-3.3817,-3.4508,-3.4921,-3.4921,-3.5973,-3.6426,-3.6035,-3.6818,-3.6955,-3.6519,-3.6944,-3.7348,-3.7616,-3.7616,-3.8109,-3.8792,-3.9509,-4.038,1.2188,1.0965,0.9462,0.6995,0.5708,0.4218,0.1457,-0.0091,-0.1194,-0.1993,-0.2493,-0.2792,-0.2895,-0.2744,-0.285,-0.3336,-0.3316,-0.4254,-0.7426,-0.8885,-1.0364,-1.2369,-1.3178,-1.3877,-1.4772,-1.5982,-1.7052,-1.7943,-1.9083,-1.9714,-1.96,-2.0453,-2.0819,-2.0279,-2.1718,-2.2914,-2.3702,-2.5294,-2.6576,-2.7521,-2.7521,-2.7762,-2.8122,-2.7642,-2.7762,-2.814,-2.8277,-2.8397,0.0,-2.9094,-2.9094,-2.8993,-2.9331,-2.9331,-2.8975,-2.8517,-2.8397,-2.8397,-2.7659,-2.7297,-2.7297,-2.7194,-2.683,-2.6621,-2.6962,-2.6633,-2.6272,-2.6901,-2.6628,-2.6319,-2.747,-2.8017,-2.8387,-2.8555,-2.8952,-2.9316,-2.9316,-2.9316,-2.9316,-2.9316,-3.0183,-3.0728,-2.9944,-3.13,-3.2413,-3.1799,-3.252,-3.3285,-3.3431,-3.367,-3.3817,-3.3817,-3.3817,-3.3955,-3.4094,-3.4646,-3.5059,-3.5196,-3.5898,-3.6211,-3.6035,-3.6717,-3.6989,-3.6519,-3.7348,-3.7636,-3.7348,-3.8036,-3.8532,-3.8854,-4.0214,-4.1092,1.2021,1.0973,0.9379,0.6935,0.5481,0.3868,0.1359,-0.0182,-0.1194,-0.1834,-0.2356,-0.2669,-0.2669,-0.251,-0.2353,-0.2353,-0.2876,-0.4185,-0.656,-0.7805,-0.9327,-1.1653,-1.2113,-1.2679,-1.3879,-1.4798,-1.5918,-1.7303,-1.8042,-1.8517,-1.8939,-1.942,-1.9685,-1.949,-2.111,-2.2184,-2.2797,-2.4817,-2.6202,-2.6713,-2.7071,-2.719,-2.7309,-2.7071,-2.7309,-2.7801,-2.792,-2.8156,0.0,-2.8991,-2.8928,-2.8592,-2.9294,-2.9331,-2.8993,-2.8755,-2.8636,-2.8397,-2.7762,-2.7521,-2.7401,-2.7194,-2.6952,-2.6776,-2.7131,-2.6734,-2.6394,-2.6901,-2.6902,-2.6991,-2.7908,-2.8707,-2.9053,-2.8922,-2.9185,-2.9316,-2.943,-2.9316,-2.9316,-2.943,-3.0229,-3.0723,-3.0075,-3.1389,-3.224,-3.1679,-3.2454,-3.3083,-3.3211,-3.356,-3.3817,-3.3817,-3.3955,-3.4094,-3.437,-3.4646,-3.5059,-3.547,-3.6016,-3.6152,-3.6152,-3.7069,-3.7265,-3.6853,-3.7963,-3.818,-3.7617,-3.8487,-3.9123,-3.9542,-4.0721,-4.1657,1.0808,0.9934,0.8897,0.6798,0.492,0.3135,0.1359,0.0091,-0.1023,-0.1909,-0.2353,-0.2588,-0.2826,-0.2431,-0.2118,-0.2118,-0.2961,-0.4303,-0.6357,-0.6967,-0.8007,-0.9965,-1.0296,-1.0724,-1.196,-1.3446,-1.5172,-1.6786,-1.6651,0.0,-1.8394,-1.7781,-1.7889,-1.8835,-2.0414,-2.1131,-2.0836,-2.3981,-2.5361,-2.501,-2.5925,-2.6637,-2.6867,-2.6174,-2.6406,-2.7326,-2.6982,-2.7211,0.0,-2.8551,-2.8621,-2.856,-2.9536,-2.9568,-2.8975,-2.8975,-2.8755,-2.8397,-2.7762,-2.7521,-2.7401,-2.7194,-2.7073,-2.7141,-2.7501,-2.7102,-2.6655,-2.7025,-2.7664,-2.8219,-2.8219,-2.8521,-2.8939,-2.9185,-2.9316,-2.9447,-2.9691,-2.9561,-2.943,-2.9691,-3.0399,-3.0822,-3.0431,-3.1222,-3.2019,-3.2001,-3.2349,-3.2753,-3.3175,-3.356,-3.3817,-3.3817,-3.4094,-3.437,-3.437,-3.4646,-3.5059,-3.547,-3.6288,-3.6583,-3.6539,-3.7766,-3.8185,-3.7763,-3.86,-3.8963,-3.8963,-3.8963,-3.9626,-4.0759,-4.1177,-4.1989,1.0553,0.9663,0.838,0.6494,0.4854,0.3257,0.1734,0.0261,-0.092,-0.1429,-0.204,-0.2431,-0.2042,-0.1726,-0.1734,-0.2324,-0.3193,-0.4418,-0.6233,-0.6737,-0.7767,-0.9926,-1.1419,-1.2378,-1.2437,-1.3766,-1.4854,-1.5187,-1.5554,-1.6376,-1.7649,-1.7005,-1.7031,-1.8214,-1.8972,-1.9875,-2.1174,-2.3146,-2.4614,-2.5361,-2.6041,-2.6504,-2.6504,-2.6619,-2.6964,-2.7537,-2.7537,-2.7879,-2.837,-2.8436,-2.8602,-2.8756,-2.9399,-2.9568,-2.9331,-2.9331,-2.9213,-2.9094,-2.814,-2.7882,-2.7779,-2.7315,-2.7073,-2.709,-2.6949,-2.6915,-2.7088,-2.7452,-2.7604,-2.7899,-2.842,-2.8652,-2.8878,-2.9248,-2.9316,-2.943,-2.9691,-2.9561,-2.9447,-3.01,-3.068,-3.1025,-3.1163,-3.1865,-3.2404,-3.2404,-3.2753,-3.3065,-3.3211,-3.356,-3.3817,-3.3817,-3.4094,-3.4508,-3.4784,-3.5059,-3.547,-3.5879,-3.6152,-3.6152,-3.6152,-3.7368,-3.7746,-3.7468,-3.8738,-3.9122,-3.8705,-3.9429,-4.0381,-4.1665,-4.2226,-4.2731,1.0058,0.916,0.7883,0.6163,0.4687,0.3362,0.185,0.0594,-0.0493,-0.1029,-0.1649,-0.1963,-0.1808,-0.1571,-0.1655,-0.2481,-0.2945,-0.3978,-0.6097,-0.6288,-0.7044,-0.9219,-1.1237,-1.2155,-1.1438,-1.2717,-1.345,-1.3278,-1.401,-1.5042,-1.6391,-1.6228,-1.656,-1.762,-1.8052,-1.8712,-1.9834,-2.203,-2.3419,-2.4236,-2.5155,-2.5725,-2.5935,-2.6179,-2.6632,-2.7288,-2.7306,-2.7642,0.0,-2.8106,-2.8251,-2.8629,-2.889,-2.917,-2.9313,-2.9263,-2.9201,-2.8975,-2.8259,-2.79,-2.7779,-2.7315,-2.7073,-2.7107,-2.6983,-2.6932,-2.7037,-2.739,-2.7441,-2.756,-2.8426,-2.8707,-2.8854,-2.923,-2.9578,-2.9709,-2.9952,-2.9839,-2.9839,-3.049,-3.0817,-3.1032,-3.1289,-3.1938,-3.2423,-3.2436,-3.2819,-3.323,-3.3366,-3.3716,-3.3955,-3.4232,-3.4508,-3.4784,-3.5059,-3.5333,-3.5606,-3.6016,-3.6016,-3.6016,-3.6132,-3.7408,-3.8004,-3.7846,-3.9306,-3.9754,-3.9332,-4.0323,-4.132,-4.2018,-4.2883,-4.3184,0.0,0.8512,0.7485,0.593,0.461,0.3276,0.1821,0.1005,0.0,-0.0552,-0.1021,-0.1415,-0.1891,-0.1889,-0.1887,-0.2444,-0.2409,-0.3189,-0.5737,-0.5666,-0.6194,-0.8157,-0.9814,-1.0425,-0.955,-1.0529,-1.1232,-1.1232,-1.2141,-1.3342,-1.475,-1.5557,-1.629,-1.6856,-1.7418,-1.7664,-1.7596,-2.0444,-2.1926,-2.204,-2.3391,-2.4394,-2.4965,-2.5075,-2.5643,0.0,-2.6554,-2.6881,-2.746,-2.7565,-2.7847,-2.8182,-2.8219,-2.8473,-2.902,-2.8849,-2.8744,-2.8517,-2.814,-2.7762,-2.7521,-2.7194,-2.7073,-2.7141,-2.7467,-2.7085,-2.6692,-2.7107,-2.7102,-2.73,-2.8083,-2.8443,-2.8785,-2.9179,-2.9822,-3.0378,-3.0378,-3.0396,-3.0414,-3.0879,-3.0915,-3.0947,-3.1043,-3.1643,-3.2052,-3.207,-3.272,-3.3366,-3.3811,-3.3872,-3.4094,-3.4784,-3.4921,-3.5059,-3.5489,-3.5489,-3.5606,-3.6016,-3.6016,-3.6132,-3.6519,-3.7766,-3.8665,-3.8983,-4.0286,-4.0882,-4.0882,-4.1594,-4.2018,-4.2018,-4.2883,-4.3184,0.8931,0.0,0.6643,0.5604,0.4359,0.3125,0.0,0.1214,0.0728,0.0237,-0.0629,-0.1264,-0.1046,-0.1591,-0.2148,-0.2553,-0.2327,-0.2736,-0.4572,-0.5992,-0.7408,-0.9096,-0.9828,-1.0171,-0.9867,-1.0201,-1.0509,-1.0894,-1.1786,-1.2803,-1.3834,-1.4381,-1.4898,-1.5407,-1.5499,-1.6598,-1.8519,-1.9092,-1.9765,-2.0667,-2.0847,-2.1634,-2.2798,-2.3349,-2.4395,-2.5898,-2.6118,-2.6772,-2.7783,-2.7455,-2.7549,-2.7995,-2.7976,-2.8307,-2.8849,-2.8621,-2.8843,-2.9094,-2.8259,-2.79,-2.7779,-2.7315,-2.7073,-2.709,-2.7176,-2.7245,-2.7349,-2.7398,-2.7452,-2.7574,-2.8407,-2.8633,-2.8898,-2.9555,-2.9872,-3.0083,-3.0361,-3.0215,-3.0205,-3.0804,-3.1103,-3.155,-3.2156,-3.2326,-3.2698,-3.3276,-3.3495,-3.3749,-3.4203,-3.4452,-3.4784,-3.4921,-3.5196,-3.5333,-3.547,-3.5743,-3.5879,-3.6016,-3.6016,-3.6132,-3.6519,-3.7465,-3.834,-3.8983,-4.0286,-4.0882,-4.0882,-4.1594,-4.2018,-4.2018,-4.2883,-4.3184,0.8908,0.784,0.6686,0.5712,0.4536,0.3367,0.2324,0.1598,0.0955,0.0311,-0.0,-0.0388,-0.0864,-0.135,-0.1852,-0.2393,-0.2399,-0.2886,-0.4542,-0.6297,-0.7979,-0.9202,-0.9912,-1.0134,-0.9743,-0.998,-0.9945,-0.9759,-1.0841,-1.1853,-1.2588,-1.3336,-1.4093,-1.4891,-1.488,-1.5693,-1.7231,-1.7755,-1.8341,-1.9334,-1.9594,-2.0376,-2.1651,-2.2103,-2.3386,-2.5068,-2.5522,-2.6389,-2.7441,-2.7232,-2.7438,-2.7865,-2.7471,-2.7852,-2.8627,-2.8308,-2.8627,-2.9213,-2.8498,-2.814,-2.7935,-2.7505,-2.7314,-2.7332,-2.7261,-2.7436,-2.7556,-2.7522,-2.7453,-2.747,-2.8515,-2.8689,-2.8937,-2.9626,-3.0065,-3.0346,-3.0889,-3.0928,-3.0972,-3.1353,-3.1625,-3.1799,-3.2047,-3.2198,-3.2606,-3.312,-3.3632,-3.4059,-3.459,-3.4784,-3.5059,-3.5333,-3.547,-3.5606,-3.5743,-3.5879,-3.6016,-3.6268,-3.6268,-3.6403,-3.6789,-3.7637,-3.8377,-3.924,-4.0079,-4.0468,-4.0261,-4.1383,-4.1912,-4.1699,-4.2774,-4.3184,0.8907,0.8154,0.7206,0.6065,0.4915,0.3806,0.2831,0.1991,0.1171,0.0382,0.0609,0.0611,-0.0846,-0.1112,-0.1388,-0.2144,-0.248,-0.3164,-0.4755,-0.645,-0.7814,-0.8743,-0.9724,-0.998,-0.9361,-0.958,-0.9483,-0.8517,-0.9887,-1.0906,-1.126,-1.2325,-1.3448,-1.4435,-1.466,-1.4896,-1.5233,-1.6375,-1.7154,-1.7721,-1.8536,-1.9505,-2.0647,-2.0986,-2.2269,-2.4179,0.0,0.0,-2.6989,-2.6989,-2.7179,-2.7545,-2.6933,-2.738,-2.83,-2.8011,-2.8274,-2.8993,-2.8636,-2.8277,-2.7953,-2.7852,-2.7626,-2.754,-2.7641,-2.766,-2.7678,-2.7626,-2.7384,-2.7435,-2.8321,-2.8689,-2.8933,-2.9707,-3.046,-3.106,-3.1457,-3.1817,-3.2016,-3.1961,-3.2034,-3.2089,-3.1511,-3.2034,-3.2459,-3.2603,-3.3502,-3.4233,-3.4789,-3.5021,-3.5333,-3.5879,-3.5743,-3.5743,-3.6016,-3.6016,-3.6152,-3.6519,-3.6384,-3.6654,-3.7079,-3.7854,-3.8712,-3.9537,-3.9914,-3.9997,-3.9744,-4.1215,-4.1805,-4.1422,-4.2688,-4.3184,0.8846,0.8355,0.7712,0.6251,0.5042,0.3955,0.3011,0.2439,0.1881,0.1251,0.086,0.0474,-0.0165,-0.0903,-0.1494,-0.2016,-0.2427,-0.2994,-0.4082,-0.5575,-0.6764,-0.7718,-0.8457,-0.8768,-0.8863,-0.8641,-0.8577,-0.8497,-0.966,-1.0281,-1.009,-1.1355,-1.2274,-1.276,-1.3307,-1.3961,-1.4722,-1.513,-1.5684,-1.6246,-1.5898,-1.6547,-1.8198,-1.9048,-2.0755,-2.3217,0.0,-2.5415,-2.6989,-2.6791,-2.6865,-2.7085,-2.6511,-2.7037,-2.787,-2.7678,-2.8156,-2.8993,-2.8636,-2.8277,-2.8091,-2.8341,-2.8307,-2.8027,-2.7973,-2.8288,-2.8428,-2.8114,-2.8027,-2.7939,-2.8184,-2.8689,-2.934,-3.0102,-3.0544,-3.106,-3.1457,-3.1765,-3.1933,-3.1637,-3.244,-3.2802,-3.2052,-3.3132,-3.3749,-3.3155,-3.4237,-3.5141,-3.4835,-3.5375,-3.5879,-3.6016,-3.5879,-3.5879,-3.6016,-3.6016,-3.6152,-3.6519,-3.6268,-3.6423,-3.7079,-3.7863,-3.8763,-3.9537,-4.0083,-4.0473,-4.0675,-4.1509,-4.1975,-4.1912,-4.284,-4.3184,0.8542,0.7956,0.7331,0.6396,0.5421,0.4519,0.3531,0.2642,0.1932,0.1557,0.1212,0.0729,-0.0084,-0.0506,-0.1133,-0.2302,-0.2933,-0.3413,-0.3846,-0.4804,-0.5784,-0.6724,-0.7601,-0.8082,-0.8022,-0.8363,-0.8533,-0.8497,-0.9174,-0.9749,-1.0264,-1.0548,-1.133,-1.2663,-1.2772,-1.3315,-1.4396,-1.4505,-1.4886,-1.5658,-1.5206,-1.5743,-1.7141,-1.7889,-1.9391,-2.1372,0.0,-2.4326,-2.5576,-2.6264,-2.6701,-2.6811,-2.6893,-2.7164,-2.7591,-2.7875,-2.8392,-2.8993,-2.8636,-2.8517,-2.8535,-2.8353,-2.8428,-2.8605,-2.8237,-2.8236,-2.834,-2.7902,-2.8114,-2.8448,-2.8619,-2.8846,-2.92,-3.0134,-3.0538,-3.0999,-3.186,-3.2232,-3.233,-3.2175,-3.252,-3.271,-3.1836,-3.2578,-3.3252,-3.2842,-3.4165,-3.5047,-3.4854,-3.5491,-3.6016,-3.6016,-3.6016,-3.6016,-3.6016,-3.6016,-3.6152,-3.6519,-3.6539,-3.6809,-3.7348,-3.7733,-3.835,-3.9164,-3.9688,-4.0018,-4.0158,-4.1341,-4.189,-4.1635,-4.2753,-4.3184,0.8379,0.7641,0.6987,0.643,0.5712,0.4862,0.4021,0.2978,0.2034,0.1816,0.1359,0.0844,0.0172,-0.0175,-0.0828,-0.2335,-0.3144,-0.3567,-0.3535,-0.4324,-0.5142,-0.6056,-0.7048,-0.7561,-0.7567,-0.8106,-0.8495,-0.8491,-0.8602,-0.9154,-1.0139,-0.9919,-1.0578,-1.2327,-1.2436,-1.298,-1.4191,-1.4299,-1.4622,-1.5267,-1.5148,-1.5672,-1.6723,-1.7371,-1.859,-2.0059,-2.1793,-2.3235,-2.4447,-2.5757,-2.6445,-2.6734,-2.7019,-2.7236,-2.738,-2.8126,-2.859,-2.8865,-2.8719,-2.8755,-2.8874,-2.8367,-2.8599,-2.899,-2.8465,-2.8447,-2.8517,-2.8127,-2.8499,-2.9101,-2.9112,-2.9055,-2.9379,-3.0236,-3.0531,-3.1034,-3.2253,-3.2502,-3.2512,-3.2533,-3.2533,-3.2331,-3.1653,-3.2283,-3.288,-3.2805,-3.4108,-3.5085,-3.4989,-3.5626,-3.6016,-3.6016,-3.6016,-3.6016,-3.6152,-3.6152,-3.6268,-3.6654,-3.6809,-3.7079,-3.7482,-3.7685,-3.8106,-3.8999,-3.9419,-3.9708,-3.9847,-4.1236,-4.1826,-4.1486,-4.2709,-4.3184,0.8468,0.7923,0.7211,0.6358,0.5537,0.4743,0.4158,0.3534,0.2903,0.2098,0.1101,0.0642,0.1102,0.0187,-0.0865,-0.1606,-0.2388,-0.2898,-0.2781,-0.4073,-0.5252,-0.561,-0.6412,-0.7334,-0.8136,-0.7915,-0.7949,-0.8484,-0.8263,-0.8263,-0.8595,-0.914,-0.9911,-1.0781,-1.1882,-1.298,-1.4169,-1.4493,-1.46,-1.4708,-1.5244,-1.5885,-1.6736,-1.7595,-1.8907,-2.068,-2.1344,-2.2805,-2.4645,-2.5129,-2.5811,-2.6664,-2.6716,-2.6983,-2.738,-2.8126,-2.8407,-2.848,-2.8865,-2.8975,-2.9048,-2.9053,-2.9076,-2.9044,-2.9173,-2.9547,-2.9958,-2.9322,-2.9941,-3.0374,-2.9045,-2.9502,-3.0437,-3.0732,-3.1186,-3.1493,-3.1906,-3.2368,-3.2514,-3.2129,-3.2349,-3.2464,-3.193,-3.3143,-3.4051,-3.3551,-3.489,-3.584,-3.5449,-3.5762,-3.6016,-3.6016,-3.6016,-3.6152,-3.6384,-3.6519,-3.6654,-3.7079,-3.6789,-3.6654,-3.7079,-3.7863,-3.8743,-3.9495,-3.9921,-4.0371,-4.0779,-4.1551,-4.1997,-4.1954,-4.2861,-4.3184,0.7994,0.7516,0.6957,0.6244,0.5675,0.5073,0.4116,0.3362,0.2647,0.2043,0.1272,0.0679,0.0852,-0.0,-0.0795,-0.1108,-0.1856,-0.2547,-0.2639,-0.344,-0.4359,-0.4856,-0.5535,-0.6322,-0.7225,-0.7187,-0.7348,-0.8035,-0.7889,-0.8011,-0.858,-0.8769,-0.9361,-1.0688,-1.1455,-1.2545,-1.3835,-1.4385,-1.4708,-1.4826,-1.5458,-1.6205,-1.7067,-1.7701,-1.8597,-1.9672,-2.0919,-2.2323,-2.3657,-2.4773,-2.5775,-2.6609,-2.6408,-2.6861,-2.7555,-2.7719,-2.8168,-2.8658,-2.8965,-2.9094,-2.9231,-2.8799,-2.9016,-2.941,-2.9208,-2.9547,-2.9834,-2.945,-2.9903,-3.0302,-2.9626,-2.9824,-3.0462,-3.0825,-3.0988,-3.1317,-3.1815,-3.2313,-3.2551,-3.2404,-3.2629,-3.2895,-3.273,-3.3577,-3.4183,-3.3989,-3.5084,-3.5859,-3.5449,-3.5762,-3.6016,-3.6016,-3.6016,-3.6152,-3.6519,-3.6519,-3.6654,-3.7079,-3.6944,-3.7079,-3.7348,-3.7935,-3.8677,-3.9537,-4.0018,-4.0613,-4.1331,-4.1735,-4.2159,-4.2441,-4.2883,-4.3184,0.7904,0.7343,0.688,0.6308,0.5785,0.5079,0.4051,0.3189,0.2553,0.1836,0.0815,-0.0,-0.0097,-0.0391,-0.0699,-0.132,-0.1955,-0.2416,-0.2504,-0.2939,-0.3594,-0.4073,-0.4761,-0.5541,-0.6394,-0.6669,-0.7105,-0.7744,-0.7494,-0.7743,-0.8458,-0.8349,-0.8941,-1.0359,-1.1076,-1.2045,-1.3403,-1.4169,-1.4815,-1.5137,-1.5779,-1.643,-1.7173,-1.7806,-1.8492,-1.9237,-2.0481,-2.1618,-2.2601,-2.4153,-2.5433,-2.6464,-2.6354,-2.6682,-2.7304,-2.7446,-2.7948,-2.8607,-2.891,-2.9213,-2.945,-2.8755,-2.8937,-2.9368,-2.9403,-2.9564,-2.9654,-2.9811,-3.0099,-3.0409,-3.0272,-3.0406,-3.0665,-3.0936,-3.1009,-3.1211,-3.1744,-3.2151,-3.2353,-3.2353,-3.2617,-3.2861,-3.3143,-3.3745,-3.4181,-3.4313,-3.5449,-3.6034,-3.574,-3.5955,-3.6152,-3.6016,-3.6152,-3.6268,-3.6654,-3.6789,-3.7119,-3.755,-3.7705,-3.7705,-3.784,-3.8548,-3.9158,-3.9744,-4.036,-4.0876,-4.1473,-4.2018,-4.23,-4.2581,-4.3023,-4.3184,0.83,0.748,0.6824,0.651,0.5612,0.4669,0.3833,0.3286,0.2533,0.1365,-0.0311,-0.1607,-0.1577,-0.0676,-0.0583,-0.226,-0.2488,-0.2311,-0.2176,-0.2694,-0.309,-0.3406,-0.432,-0.5206,-0.5965,-0.6686,-0.7216,-0.7528,-0.7197,-0.7253,-0.7925,-0.7791,-0.8308,-0.9801,-1.0509,-1.1585,-1.2871,-1.4062,-1.4922,-1.5458,-1.5992,-1.663,-1.7252,-1.8003,-1.8907,-1.9847,-2.003,-2.0678,-2.1742,-2.3134,-2.4648,-2.6136,-2.6482,-2.6373,-2.6226,-2.7359,-2.7992,-2.8236,-2.8818,-2.9213,-2.945,-2.8755,-2.8755,-2.914,-2.956,-2.9671,-2.9851,-3.0645,-3.0879,-3.0879,-3.0879,-3.112,-3.1377,-3.1377,-3.1377,-3.1377,-3.1377,-3.1653,-3.1929,-3.1929,-3.2185,-3.2549,-3.2804,-3.3623,-3.4313,-3.4707,-3.5697,-3.6519,-3.6519,-3.6519,-3.6384,-3.6016,-3.6268,-3.6654,-3.7079,-3.7348,-3.7954,-3.8677,-3.8854,-3.8718,-3.831,-3.9466,-4.022,-4.022,-4.1101,-4.1473,-4.1473,-4.23,-4.2581,-4.2581,-4.3023,-4.3184,0.7815,0.7231,0.6734,0.5984,0.5469,0.4836,0.3964,0.3589,0.278,0.0764,-0.0105,-0.0506,-0.051,-0.0604,-0.0796,-0.1397,-0.1716,-0.1951,-0.2206,-0.2307,-0.2416,-0.2549,-0.3526,-0.4603,-0.5638,-0.5687,-0.6003,-0.684,-0.6701,-0.6866,-0.7654,-0.81,-0.879,-0.9522,-1.0659,-1.162,-1.2646,-1.3604,-1.4434,-1.5137,-1.5897,-1.6736,-1.7477,-1.7687,-1.8268,-1.9208,-1.9628,-2.0435,-2.173,-2.3836,-2.5451,-2.65,-2.6664,-2.6773,-2.6975,-2.7664,-2.8187,-2.8607,-2.891,-2.9213,-2.945,-2.8755,-2.8517,-2.8781,-2.9436,-2.9671,-2.9851,-3.0645,-3.1138,-3.1249,-3.1009,-3.112,-3.1377,-3.1377,-3.1377,-3.1377,-3.1377,-3.1875,-3.2339,-3.2339,-3.2728,-3.3321,-3.3777,-3.4037,-3.4342,-3.5098,-3.5544,-3.5818,-3.6093,-3.6403,-3.6519,-3.6403,-3.6674,-3.7079,-3.7482,-3.7482,-3.7811,-3.8378,-3.8978,-3.9192,-3.9192,-3.977,-4.022,-4.022,-4.1101,-4.1615,-4.1877,-4.23,-4.2861,-4.3419,-4.3302,-4.3463,0.7785,0.7258,0.6699,0.6183,0.5556,0.4689,0.3714,0.2976,0.2199,0.0649,-0.0209,-0.0711,-0.0725,-0.0712,-0.0902,-0.1722,-0.1923,-0.2134,-0.2275,-0.2371,-0.2369,-0.2392,-0.3357,-0.4306,-0.5209,-0.5588,-0.6018,-0.6524,-0.6687,-0.7165,-0.7855,-0.8302,-0.8899,-0.9877,-1.0732,-1.1629,-1.2675,-1.3326,-1.4147,-1.5041,-1.5791,-1.663,-1.7582,-1.7793,-1.8492,-1.9477,-2.0091,-2.1034,-2.2215,-2.3963,-2.5219,-2.6064,-2.6607,-2.6936,-2.7046,-2.7846,-2.837,-2.8774,-2.8947,-2.9213,-2.945,-2.8874,-2.8755,-2.8901,-2.9701,-2.9813,-2.9851,-3.0773,-3.112,-3.112,-3.112,-3.1249,-3.1377,-3.1377,-3.1506,-3.1525,-3.1377,-3.2096,-3.2652,-3.2542,-3.3173,-3.3714,-3.3811,-3.4148,-3.4512,-3.5039,-3.5544,-3.5992,-3.6112,-3.6384,-3.6519,-3.6539,-3.6944,-3.7213,-3.7616,-3.777,-3.7986,-3.844,-3.8957,-3.9433,-3.9924,-4.0542,-4.0771,-4.0912,-4.1439,-4.1848,-4.23,-4.2387,-4.2944,-4.3719,-4.3302,-4.358,0.8068,0.7446,0.6783,0.6911,0.5679,0.4189,0.3148,0.1885,0.1035,0.0832,-0.0512,-0.1525,-0.1656,-0.1112,-0.1103,-0.2527,-0.2686,-0.2644,-0.2581,-0.2651,-0.2826,-0.2927,-0.3687,-0.4314,-0.4742,-0.5916,-0.6725,-0.6611,-0.7118,-0.7692,-0.8367,-0.8453,-0.9027,-1.0404,-1.0741,-1.1567,-1.2822,-1.3038,-1.3793,-1.4866,-1.5388,-1.6355,-1.7542,-1.8094,-1.9103,-2.0242,-2.1012,-2.2094,-2.3203,-2.3562,-2.4367,-2.5343,-2.6645,-2.7085,-2.697,-2.798,-2.8523,-2.883,-2.8965,-2.9213,-2.9331,-2.9094,-2.8975,-2.9002,-2.991,-2.9883,-2.9922,-3.0975,-3.1065,-3.0954,-3.1377,-3.1377,-3.1377,-3.1377,-3.1653,-3.1782,-3.1506,-3.2147,-3.2804,-3.2422,-3.3239,-3.3887,-3.3496,-3.4062,-3.4609,-3.4687,-3.5658,-3.6479,-3.6519,-3.6519,-3.6519,-3.6519,-3.6944,-3.7213,-3.7616,-3.8037,-3.8357,-3.8771,-3.8833,-3.9363,-4.0612,-4.1137,-4.1573,-4.2018,-4.2032,-4.215,-4.2581,-4.2566,-4.298,-4.3697,-4.3397,-4.3675,0.7281,0.6861,0.6461,0.6216,0.5049,0.3684,0.2757,0.1934,0.1127,-0.0211,-0.0413,-0.0406,-0.0725,-0.1443,-0.1946,-0.1839,-0.2053,-0.2466,-0.2949,-0.2732,-0.2725,-0.3534,-0.3849,-0.4253,-0.4734,-0.5477,-0.6103,-0.6687,-0.7083,-0.7693,-0.8779,-0.9183,-0.9886,-1.0741,-1.1283,-1.1654,-1.2059,-1.2372,-1.2893,-1.3527,-1.4034,-1.5263,-1.7028,-1.7998,-1.9182,-2.0416,-2.0888,-2.1998,-2.358,-2.3973,-2.4893,-2.5936,-2.6865,-2.7361,-2.7578,-2.8205,-2.859,-2.8983,-2.8957,-2.8874,-2.8755,-2.8993,-2.8618,-2.8349,-2.9441,-2.9465,-2.9523,-3.0555,-3.0919,-3.0865,-3.1304,-3.1377,-3.1359,-3.1451,-3.1616,-3.1929,-3.1782,-3.2166,-3.2549,-3.2422,-3.2861,-3.3154,-3.3311,-3.3574,-3.3926,-3.4609,-3.5402,-3.6008,-3.6093,-3.6674,-3.6944,-3.6944,-3.7348,-3.7616,-3.8037,-3.8171,-3.8233,-3.8316,-3.8916,-3.9479,-4.0074,-4.0625,-4.1236,-4.1997,-4.2333,-4.2473,-4.2581,-4.3171,-4.347,-4.3697,-4.3459,-4.3892,0.6951,0.6622,0.6169,0.5188,0.4303,0.3468,0.2429,0.192,0.1219,0.0104,-0.0512,-0.0813,-0.1035,-0.1868,-0.2379,-0.2048,-0.2268,-0.2577,-0.2934,-0.2927,-0.3027,-0.3632,-0.3833,-0.4232,-0.4939,-0.5684,-0.6321,-0.6929,-0.7598,-0.8316,-0.91,-0.9715,-1.029,-1.0721,-1.1434,-1.1815,-1.1822,-1.2239,-1.2655,-1.307,-1.3868,-1.5515,-1.7858,-1.889,-1.9864,-2.0719,-2.1378,-2.2281,-2.3233,-2.4008,-2.4785,-2.5684,-2.6607,-2.7176,-2.7526,-2.7948,-2.8352,-2.87,-2.87,-2.871,-2.8755,-2.8975,-2.8737,-2.8571,-2.9331,-2.9587,-2.9756,-3.0607,-3.0919,-3.1121,-3.1322,-3.1377,-3.1506,-3.1854,-3.2019,-3.2166,-3.2075,-3.2422,-3.2804,-3.2422,-3.2957,-3.3417,-3.3457,-3.3594,-3.3945,-3.4609,-3.5343,-3.5909,-3.5957,-3.6539,-3.6944,-3.7079,-3.7213,-3.7616,-3.8191,-3.8191,-3.8325,-3.8437,-3.8779,-3.9411,-4.018,-4.0537,-4.1113,-4.2214,-4.2137,-4.2275,-4.2514,-4.3068,-4.3481,-4.3618,-4.3755,-4.43,0.6756,0.6449,0.5855,0.4438,0.382,0.3327,0.2324,0.192,0.1516,0.0606,-0.0707,-0.1625,-0.165,-0.2279,-0.2695,-0.2583,-0.2794,-0.2888,-0.2833,-0.3027,-0.333,-0.3629,-0.393,-0.4336,-0.514,-0.6022,-0.6697,-0.7021,-0.8163,-0.8989,-0.9369,-1.0126,-1.0567,-1.0732,-1.1567,-1.1977,-1.1981,-1.2258,-1.2655,-1.2944,-1.4185,-1.615,-1.8686,-1.9827,-2.0538,-2.1043,-2.181,-2.2424,-2.2854,-2.3849,-2.4607,-2.5271,-2.6242,-2.677,-2.7215,-2.7545,-2.7967,-2.8272,-2.8388,-2.8663,-2.8874,-2.8975,-2.8975,-2.9048,-2.9379,-2.9709,-3.0094,-3.0552,-3.0919,-3.1212,-3.1341,-3.1377,-3.1506,-3.2147,-3.2294,-3.2422,-3.2204,-3.2804,-3.3165,-3.2549,-3.3405,-3.3945,-3.3496,-3.3789,-3.4199,-3.4531,-3.5356,-3.5944,-3.5975,-3.6364,-3.6789,-3.7213,-3.7213,-3.7482,-3.8191,-3.8325,-3.8437,-3.8681,-3.8814,-3.9247,-4.0317,-4.0472,-4.1017,-4.2158,-4.1852,-4.1939,-4.2557,-4.2967,-4.3284,-4.3623,-4.4118,-4.4732,0.616,0.5895,0.5393,0.4477,0.3884,0.3428,0.2725,0.2425,0.192,0.0404,-0.0808,-0.1618,-0.1622,-0.226,-0.2787,-0.2743,-0.2876,-0.2991,-0.3136,-0.3131,-0.343,-0.3934,-0.4135,-0.4537,-0.514,-0.5756,-0.6406,-0.7015,-0.7866,-0.8709,-0.9518,-1.019,-1.0839,-1.146,-1.1833,-1.2192,-1.2274,-1.2294,-1.2394,-1.2464,-1.4323,-1.5952,-1.7441,-1.9089,-2.0319,-2.1248,-2.1723,-2.2468,-2.3313,-2.3951,-2.4763,-2.5626,-2.6044,-2.6406,-2.6825,-2.7121,-2.7614,-2.802,-2.8272,-2.8428,-2.8636,-2.8874,-2.8755,-2.8654,-2.8929,-2.9104,-2.9305,-3.0057,-3.0314,-3.0516,-3.1194,-3.1377,-3.1359,-3.1451,-3.2001,-3.2422,-3.2804,-3.2931,-3.2931,-3.2804,-3.3514,-3.3945,-3.3496,-3.3789,-3.4082,-3.4141,-3.5052,-3.5882,-3.5924,-3.6837,-3.7482,-3.7482,-3.7482,-3.777,-3.8191,-3.8437,-3.8681,-3.8681,-3.921,-3.9647,-3.9843,-4.0105,-4.0629,-4.1175,-4.1524,-4.2075,-4.2967,-4.3217,-4.3713,-4.4161,-4.4482,-4.4663,0.5777,0.5241,0.4714,0.3864,0.3454,0.3185,0.2519,0.2223,0.1718,0.1011,-0.0404,-0.1617,-0.1617,-0.2359,-0.2888,-0.2631,-0.2871,-0.3197,-0.3442,-0.3332,-0.3433,-0.4135,-0.4236,-0.4437,-0.4939,-0.5694,-0.639,-0.6922,-0.8144,-0.9097,-0.977,-1.0527,-1.0974,-1.107,-1.1689,-1.1859,-1.1737,-1.2054,-1.26,-1.3232,-1.4362,-1.5716,-1.72,-1.8412,-1.9872,-2.145,-2.2103,-2.2782,-2.3378,-2.4073,-2.4769,-2.5459,-2.5789,-2.6116,-2.6388,-2.6738,-2.7231,-2.7925,-2.804,-2.8345,-2.8755,-2.8993,-2.8874,-2.8755,-2.8993,-2.914,-2.9434,-3.0039,-3.0369,-3.0662,-3.1231,-3.1377,-3.1506,-3.1873,-3.2147,-3.2549,-3.3038,-3.3038,-3.2912,-3.2912,-3.3386,-3.3747,-3.3828,-3.3945,-3.4367,-3.4969,-3.5531,-3.6012,-3.6563,-3.7226,-3.7616,-3.7616,-3.7616,-3.7883,-3.8437,-3.8549,-3.8814,-3.921,-3.9494,-3.9757,-4.0018,-4.0409,-4.0627,-4.0847,-4.1439,-4.179,-4.2148,-4.3375,-4.3894,-4.3714,-4.4595,-4.514,0.524,0.4695,0.4116,0.3266,0.3057,0.2902,0.2292,0.1807,0.1304,0.1103,-0.0403,-0.1614,-0.1708,-0.2443,-0.2871,-0.2528,-0.2961,-0.338,-0.3519,-0.3422,-0.3525,-0.431,-0.4124,-0.4232,-0.4734,-0.5611,-0.6318,-0.6851,-0.8216,-0.9246,-0.9709,-1.0576,-1.1063,-1.0822,-1.1355,-1.1668,-1.1492,-1.2152,-1.2931,-1.3908,-1.446,-1.548,-1.7103,-1.8182,-1.9538,-2.1254,-2.2136,-2.2848,-2.3485,-2.4014,-2.4624,-2.5221,-2.5569,-2.5789,-2.6026,-2.6464,-2.7086,-2.7633,-2.7655,-2.8223,-2.8975,-2.8865,-2.8902,-2.8975,-2.8975,-2.9195,-2.9507,-2.9929,-3.0332,-3.0736,-3.1121,-3.1304,-3.1506,-3.2038,-3.2294,-3.2549,-3.3292,-3.3262,-3.3212,-3.3212,-3.3656,-3.4115,-3.4258,-3.4446,-3.4831,-3.5495,-3.5841,-3.6183,-3.6817,-3.7319,-3.7627,-3.775,-3.775,-3.8017,-3.8549,-3.8681,-3.9078,-3.9494,-3.9757,-4.0018,-4.0279,-4.0647,-4.0777,-4.0777,-4.1485,-4.175,-4.1792,-4.3287,-4.3962,-4.3773,-4.4933,-4.5685,0.4161,0.4036,0.3822,0.3248,0.2928,0.2744,0.2331,0.1475,0.059,-0.0197,-0.0998,-0.1709,-0.1975,-0.2196,-0.2526,-0.2725,-0.3234,-0.3516,-0.3549,-0.3595,-0.371,-0.423,-0.409,-0.4232,-0.4734,-0.534,-0.5891,-0.6622,-0.7763,-0.8653,-0.9332,-1.0176,-1.081,-1.1024,-1.1327,-1.1825,-1.237,-1.277,-1.3352,-1.3908,-1.446,-1.5379,-1.6787,-1.8467,-1.9846,-2.0801,-2.1409,-2.249,-2.3779,-2.3764,-2.436,-2.5221,-2.5569,-2.5679,-2.5789,-2.6354,-2.6864,-2.7272,-2.7231,-2.7985,-2.892,-2.8553,-2.8682,-2.8975,-2.8975,-2.8993,-2.9104,-2.9489,-2.991,-3.0314,-3.0717,-3.1102,-3.1377,-3.1377,-3.1891,-3.2549,-3.3292,-3.375,-3.4043,-3.4043,-3.4726,-3.5176,-3.4746,-3.5264,-3.5554,-3.4916,-3.5641,-3.6322,-3.6374,-3.7115,-3.7695,-3.8129,-3.8191,-3.8191,-3.8191,-3.8835,-3.921,-3.921,-3.9888,-4.0279,-4.0279,-4.0647,-4.0777,-4.0777,-4.1547,-4.2208,-4.2577,-4.3122,-4.3864,-4.4966,-4.5634,-4.5768,0.3444,0.3315,0.2941,0.2317,0.2203,0.2219,0.184,0.153,0.0785,-0.0884,-0.1695,-0.2009,-0.1774,-0.2172,-0.2589,-0.272,-0.3166,-0.3509,-0.3723,-0.3651,-0.3759,-0.4516,-0.4189,-0.4232,-0.4939,-0.5541,-0.6189,-0.7129,-0.8057,-0.8896,-0.9571,-1.0502,-1.1078,-1.1409,-1.1676,-1.2061,-1.2662,-1.3147,-1.3727,-1.44,-1.496,-1.5686,-1.6481,-1.8182,-1.9641,-2.0801,-2.1723,-2.2805,-2.3928,-2.4234,-2.4775,-2.5221,-2.5569,-2.5789,-2.6026,-2.6482,-2.6811,-2.7304,-2.7508,-2.8022,-2.8627,-2.8737,-2.8865,-2.8975,-2.8975,-2.8975,-2.9067,-2.9452,-2.9874,-3.0296,-3.0681,-3.1212,-3.1782,-3.2038,-3.2294,-3.2625,-3.3405,-3.3708,-3.3824,-3.3824,-3.4502,-3.5045,-3.5004,-3.5309,-3.5579,-3.5929,-3.601,-3.6345,-3.7044,-3.7657,-3.8005,-3.8171,-3.8191,-3.8304,-3.8835,-3.9099,-3.9341,-3.9888,-4.0388,-4.0647,-4.0647,-4.1164,-4.1421,-4.1421,-4.1987,-4.223,-4.2078,-4.2895,-4.3631,-4.4147,-4.4658,-4.5248,0.2883,0.2645,0.233,0.1857,0.1885,0.1979,0.1825,0.1369,0.0662,-0.0761,-0.1558,-0.1971,-0.1837,-0.212,-0.252,-0.2569,-0.312,-0.3559,-0.3844,-0.3794,-0.4013,-0.4861,-0.4638,-0.4802,-0.5436,-0.5942,-0.6575,-0.7471,-0.8187,-0.8895,-0.9694,-1.0406,-1.1107,-1.1596,-1.2221,-1.2779,-1.3171,-1.3935,-1.4765,-1.5544,-1.6124,-1.6612,-1.7036,-1.8642,-1.9952,-2.1012,-2.2192,-2.3335,-2.4351,-2.4675,-2.4913,-2.5221,-2.5569,-2.5789,-2.6008,-2.6354,-2.6719,-2.7196,-2.7325,-2.7728,-2.8223,-2.8498,-2.8663,-2.881,-2.8938,-2.9094,-2.9149,-2.9425,-2.9794,-3.0217,-3.0604,-3.1373,-3.191,-3.2294,-3.2422,-3.2625,-3.3405,-3.3695,-3.3777,-3.3888,-3.4599,-3.5103,-3.5237,-3.5426,-3.5811,-3.6479,-3.6463,-3.6719,-3.7554,-3.8037,-3.8304,-3.8191,-3.8583,-3.887,-3.8967,-3.921,-3.9625,-4.0018,-4.0388,-4.0647,-4.0647,-4.1293,-4.1678,-4.1678,-4.2189,-4.2316,-4.2189,-4.2906,-4.3395,-4.3718,-4.4254,-4.5089,0.0,0.0,0.0,0.1981,0.2028,0.2174,0.2126,0.1025,0.0,0.0,-0.0833,-0.1704,-0.2138,-0.2222,-0.2237,-0.2279,-0.2999,-0.3671,-0.3992,-0.4204,-0.4566,-0.5246,-0.5417,-0.5615,-0.5932,-0.6542,-0.7042,-0.7627,-0.8131,-0.8832,-0.9624,-1.0126,-1.0824,-1.1609,-1.2908,-1.3723,-1.4097,-1.5345,-1.6386,-1.72,-1.7705,-1.811,-1.8434,-1.9867,-2.0669,-2.1223,-2.2967,-2.4291,-2.5186,-2.4837,-2.4907,-2.5221,-2.5569,-2.5679,-2.5789,-2.6026,-2.6591,-2.7105,-2.6738,-2.7123,-2.7765,-2.7783,-2.8077,-2.848,-2.8865,-2.9213,-2.945,-2.9094,-2.9527,-3.0195,-3.0605,-3.1313,-3.2057,-3.2294,-3.2422,-3.2549,-3.3311,-3.3843,-3.4293,-3.4687,-3.5059,-3.5371,-3.5391,-3.5904,-3.6423,-3.6459,-3.7116,-3.7542,-3.7554,-3.8283,-3.8549,-3.8325,-3.9235,-3.9587,-3.8856,-3.9341,-3.9757,-3.9757,-4.0149,-4.0279,-4.0279,-4.0928,-4.1338,-4.1338,-4.2339,-4.2846,-4.2846,-4.2949,-4.3437,-4.4078,-4.4619,-4.5266,0.0974,0.0,0.0,0.0,0.0,0.0,0.073,0.031,-0.0164,-0.1128,-0.1792,-0.2198,-0.2493,-0.2775,-0.2951,-0.2924,-0.3389,-0.3864,-0.397,-0.4386,-0.481,-0.5228,-0.5417,-0.5713,-0.6226,-0.6936,-0.7733,0.0,-0.8924,-0.9525,-1.0117,-1.118,-1.2253,-1.3265,-1.4004,-1.4765,-1.547,-1.5846,-1.65,-1.7512,-1.7596,-1.7996,-1.8419,-1.9436,-2.0209,-2.0877,-2.2429,-2.3725,-2.482,-2.4994,-2.5243,-2.5569,-2.5459,-2.5789,-2.6354,-2.6136,-2.619,-2.6426,-2.6847,-2.7231,-2.7477,-2.8016,-2.8498,-2.8847,-2.8957,-2.9094,-2.9094,-2.8975,-2.961,-3.0433,-3.164,-3.187,-3.2038,-3.2676,-3.2422,-3.2241,-3.3315,-3.3695,-3.3869,-3.4238,-3.459,-3.5,-3.5179,-3.6037,-3.6616,-3.6634,-3.74,-3.7893,-3.7616,-3.8283,-3.8681,-3.8549,-3.9073,-3.9359,-3.9363,-3.9625,-3.9757,-4.0149,-4.0669,-4.1057,-4.1057,-4.204,-4.2632,-4.2632,-4.3124,-4.338,-4.338,-4.3275,-4.3411,-4.3915,-4.4714,-4.5103,0.0107,0.0,-0.0058,0.0057,0.0,0.0,-0.034,-0.0582,-0.0931,-0.1649,-0.2138,-0.2456,-0.2748,-0.3022,-0.3374,-0.3537,-0.4005,-0.4328,-0.4143,-0.4593,-0.5043,-0.5676,-0.6026,-0.6399,-0.7024,-0.7633,-0.823,-0.8931,-0.9229,-0.9723,-1.0413,-1.1325,-1.2264,-1.3068,-1.431,-1.5246,-1.5985,-1.6839,-1.7687,-1.86,-1.86,-1.8903,-1.9421,-2.0023,-2.0594,-2.1163,-2.2461,-2.3567,-2.4356,-2.4954,-2.5459,-2.5789,-2.5331,-2.5679,-2.6354,-2.6026,-2.6136,-2.6391,-2.6609,-2.6973,-2.7373,-2.7773,-2.8407,-2.8873,-2.892,-2.9213,-2.9331,-2.9213,-2.9795,-3.0691,-3.1596,-3.2024,-3.2213,-3.2746,-3.2549,-3.2478,-3.3367,-3.3553,-3.3591,-3.4043,-3.4277,-3.4512,-3.4766,-3.55,-3.6053,-3.6343,-3.7248,-3.7881,-3.7728,-3.8591,-3.9178,-3.8967,-3.9533,-3.984,-3.9778,-3.9888,-4.0149,-4.0517,-4.0906,-4.1164,-4.1315,-4.2101,-4.2518,-4.2518,-4.3136,-4.3646,-4.3899,-4.3467,-4.3428,-4.3826,-4.4511,-4.4804,-0.0501,-0.095,-0.1133,-0.0406,-0.0763,0.0,-0.1108,-0.152,-0.1891,-0.1761,-0.2079,-0.247,-0.2976,-0.3151,-0.351,-0.4006,-0.455,-0.4853,-0.4606,-0.4961,-0.5562,-0.6246,-0.6822,-0.7356,-0.7898,-0.8209,-0.8612,-0.9137,-0.9351,-0.9764,-1.0474,-1.1067,-1.1658,-1.2149,-1.4136,-1.5506,-1.6137,-1.7867,-1.9199,-2.0086,-2.004,-2.0364,-2.0925,-2.0822,-2.1203,-2.1836,-2.2861,-2.3426,-2.3762,-2.4827,-2.5569,-2.6008,-2.5348,-2.5569,-2.6026,-2.5789,-2.6026,-2.6482,-2.6299,-2.6682,-2.7194,-2.7368,-2.7998,-2.8849,-2.8983,-2.9331,-2.9823,-2.9624,-3.0244,-3.0983,-3.118,-3.1741,-3.2392,-3.2758,-3.2892,-3.3038,-3.3292,-3.3418,-3.3535,-3.3926,-3.4004,-3.4023,-3.4062,-3.4704,-3.5268,-3.5771,-3.6828,-3.7639,-3.8052,-3.9184,-3.9678,-3.9273,-4.0255,-4.0628,-3.98,-4.0149,-4.0409,-4.0777,-4.0777,-4.1035,-4.1293,-4.1723,-4.2048,-4.2093,-4.2985,-4.382,-4.4347,-4.3701,-4.3576,-4.3802,-4.4199,-4.4347,-0.1544,-0.1536,-0.1557,-0.1431,-0.1559,0.0,-0.1696,-0.1927,-0.2144,-0.2199,-0.2243,-0.2503,-0.3205,-0.3282,-0.3484,-0.4042,-0.449,-0.4956,-0.5319,-0.5837,-0.6306,-0.6691,-0.6969,-0.7311,-0.7459,-0.8153,-0.8691,-0.9122,-1.0162,-1.0923,-1.1485,-1.2006,-1.271,-1.3521,-1.4332,-1.5503,-1.6959,-1.7259,-1.8354,-2.0071,-1.9607,-1.9928,-2.0925,-2.0719,-2.0751,-2.1171,-2.2639,-2.3398,-2.3516,-2.4723,-2.5459,-2.5679,-2.5145,-2.5366,-2.6026,-2.5789,-2.5789,-2.5952,-2.6718,-2.6988,-2.7043,-2.79,-2.8319,-2.8646,-2.8957,-2.9094,-2.9287,-2.986,-3.0471,-3.1103,-3.1424,-3.1865,-3.2459,-3.2786,-3.2807,-3.3038,-3.3292,-3.3418,-3.3437,-3.3535,-3.3788,-3.3906,-3.4132,-3.4832,-3.5625,-3.6153,-3.7274,-3.8115,-3.8492,-3.9231,-3.9733,-3.9625,-4.0105,-4.0388,-4.0149,-4.0279,-4.0409,-4.0777,-4.1035,-4.1293,-4.1678,-4.2706,-4.3507,-4.3924,-4.4572,-4.4809,-4.4347,-4.4223,-4.4099,-4.4223,-4.4223,-4.447,-0.2571,-0.243,-0.2341,-0.2583,-0.2466,0.0,0.0,-0.2559,-0.2693,-0.2788,-0.2958,-0.3199,-0.3754,-0.3822,-0.4017,-0.4509,-0.4857,-0.5157,-0.5786,-0.6037,-0.6367,-0.6555,-0.7026,-0.753,-0.7787,-0.8534,-0.9235,-0.9715,-1.041,-1.0952,-1.1457,-1.1769,-1.2264,-1.3084,-1.3993,-1.5056,-1.5998,-1.715,-1.821,-1.9179,-1.9664,-2.0147,-2.067,-2.0641,-2.0822,-2.0956,-2.2215,-2.2967,-2.3185,-2.4282,-2.5064,-2.5679,-2.5128,-2.5569,-2.6354,-2.6026,-2.6026,-2.619,-2.6809,-2.7096,-2.7495,-2.801,-2.8527,-2.8975,-2.8975,-2.9213,-2.9605,-3.0068,-3.06,-3.1052,-3.1479,-3.1924,-3.2293,-3.2754,-3.3,-3.3165,-3.3418,-3.3418,-3.3418,-3.3418,-3.3796,-3.4127,-3.3965,-3.4765,-3.5285,-3.5605,-3.6639,-3.7592,-3.8206,-3.885,-3.9498,-3.9997,-4.0149,-4.0409,-4.0517,-4.0409,-4.0539,-4.1293,-4.1539,-4.1949,-4.2316,-4.3183,-4.3834,-4.4478,-4.4626,-4.4618,-4.4732,-4.4591,-4.4739,-4.4981,-4.4715,-4.5008,-0.3478,-0.3386,-0.3313,0.0,0.0,-0.3083,0.0,0.0,0.0,-0.3412,-0.3651,-0.3891,-0.4177,-0.4282,-0.4535,-0.4914,-0.511,-0.543,-0.5879,-0.6008,-0.6133,-0.6362,-0.7085,-0.7681,-0.8107,-0.8816,-0.9619,-1.0448,-1.036,-1.0618,-1.1199,-1.1487,-1.1875,-1.2515,-1.3857,-1.4676,-1.4973,-1.7109,-1.8283,-1.8493,-1.975,-2.0413,-2.0496,-2.0696,-2.0822,-2.0941,-2.1914,-2.259,-2.2955,-2.386,-2.4889,-2.5679,-2.5331,-2.5679,-2.6464,-2.6245,-2.6281,-2.6646,-2.6807,-2.7318,-2.7833,-2.8002,-2.87,-2.9331,-2.9213,-2.945,-2.9922,-3.0274,-3.0684,-3.0957,-3.1328,-3.1777,-3.2246,-3.2598,-3.2988,-3.332,-3.3398,-3.3418,-3.3418,-3.3418,-3.3922,-3.4298,-3.3922,-3.4548,-3.4942,-3.5044,-3.5998,-3.7044,-3.7763,-3.8616,-3.9454,-4.0105,-4.0236,-4.0409,-4.0777,-4.0517,-4.0777,-4.1806,-4.1933,-4.2282,-4.2985,-4.3694,-4.4266,-4.457,-4.4451,-4.4577,-4.4972,-4.5033,-4.5157,-4.5473,-4.5256,-4.5697,-0.3954,-0.414,0.0,0.0,-0.4065,0.0,0.0,0.0,-0.3931,-0.3504,0.0,-0.4,-0.4011,0.0,0.0,-0.4634,-0.5059,-0.5427,-0.544,-0.5908,-0.623,-0.6485,-0.7211,-0.776,-0.7699,-0.836,-0.9351,-1.0615,-1.0386,-1.0705,-1.1783,-1.2486,-1.3004,-1.3314,-1.443,-1.5254,-1.5758,-1.7027,-1.8067,-1.9134,-1.9527,-2.0101,-2.0861,-2.0601,-2.0719,-2.0941,-2.2105,-2.2783,-2.2955,-2.4201,-2.5016,-2.5679,-2.5331,-2.5569,-2.6136,-2.6118,-2.6334,-2.6807,-2.745,-2.7737,-2.802,-2.8655,-2.8938,-2.9094,-2.9331,-2.945,-2.9686,-3.0274,-3.0642,-3.0992,-3.0918,-3.1562,-3.2187,-3.2226,-3.2559,-3.2969,-3.334,-3.3418,-3.3418,-3.3418,-3.3922,-3.4298,-3.3922,-3.4673,-3.5438,-3.5473,-3.6436,-3.7252,-3.7742,-3.8849,-3.958,-3.9624,-4.0017,-4.0409,-4.0777,-4.0777,-4.1035,-4.1806,-4.1851,-4.2312,-4.3496,-4.5102,-4.5348,-4.4343,-4.5614,-4.5917,-4.4814,-4.5351,-4.5327,-4.4938,-4.5575,-4.6217,0.0,0.0,0.0,0.0,0.0,0.0,-0.4636,0.0,-0.4565,0.0,0.0,0.0,0.0,0.0,0.0,0.0,-0.5142,-0.5205,-0.5375,-0.5747,-0.6072,-0.6395,-0.6935,0.0,-0.8328,-0.8966,-0.9696,-1.0724,-1.081,-1.1313,-1.2274,-1.301,-1.3645,-1.4231,-1.5023,-1.5506,-1.5708,-1.6975,-1.7837,-1.8496,-1.9385,-2.0163,-2.0623,-2.0727,-2.0822,-2.0941,-2.2018,-2.259,-2.2955,-2.3968,-2.478,-2.5459,-2.5459,-2.5898,-2.6354,-2.6354,-2.6609,-2.7103,-2.7618,-2.7925,-2.8327,-2.8847,-2.9094,-2.9331,-2.9686,-2.9686,-2.9861,-3.0818,-3.113,-3.1404,-3.1601,-3.1894,-3.2226,-3.248,-3.2656,-3.291,-3.332,-3.3544,-3.367,-3.367,-3.4173,-3.4673,-3.4548,-3.5046,-3.548,-3.5687,-3.6329,-3.6993,-3.7588,-3.8564,-3.9253,-3.9515,-3.9995,-4.0539,-4.1035,-4.0906,-4.1164,-4.2061,-4.2443,-4.3182,-4.4102,-4.4753,-4.5038,-4.4804,-4.5164,-4.529,-4.5302,-4.5329,-4.5429,-4.5331,-4.5797,-4.6488,-0.6183,0.0,0.0,0.0,0.0,0.0,0.0,0.0,0.0,0.0,0.0,0.0,0.0,0.0,-0.521,-0.5632,0.0,-0.5513,-0.573,-0.5895,-0.6089,-0.6242,-0.6872,-0.7804,0.0,-0.9452,-0.9962,-1.1069,-1.1141,-1.1683,-1.2851,-1.3579,-1.4207,-1.4955,-1.5688,-1.61,-1.6011,-1.7422,-1.8136,-1.8224,-1.9607,-2.0374,-2.0543,-2.0899,-2.0925,-2.0941,-2.1914,-2.259,-2.2955,-2.386,-2.4562,-2.5221,-2.5569,-2.6026,-2.6464,-2.6591,-2.6903,-2.738,-2.7673,-2.804,-2.8443,-2.8718,-2.9046,-2.9418,-2.9766,-2.9861,-3.0111,-3.1169,-3.156,-3.1774,-3.2109,-3.2246,-3.2383,-3.2578,-3.2715,-3.2871,-3.3184,-3.3591,-3.3922,-3.3922,-3.4423,-3.4922,-3.4922,-3.5294,-3.5665,-3.5911,-3.63,-3.6796,-3.7363,-3.8087,-3.8816,-3.9296,-3.9927,-4.0515,-4.1293,-4.1164,-4.1421,-4.2339,-4.3215,-4.3884,-4.4397,-4.4577,-4.4828,-4.4924,-4.4828,-4.4953,-4.5548,-4.5552,-4.5723,-4.6084,-4.6088,-4.6709,0.0,0.0,0.0,-0.6216,0.0,0.0,0.0,0.0,-0.6351,0.0,0.0,0.0,0.0,-0.6203,-0.6329,-0.6337,-0.6526,0.0,0.0,-0.6599,-0.648,-0.5998,-0.7207,-0.8646,-0.9731,-0.9498,-0.9989,-1.1577,-1.1065,-1.154,-1.3424,-1.424,-1.5017,-1.5487,-1.6781,-1.7422,-1.7025,-1.8462,-1.9199,-1.9164,-2.0036,-2.0617,-2.0909,-2.1113,-2.113,-2.0941,-2.2121,-2.28,-2.2955,-2.386,-2.4562,-2.5221,-2.5569,-2.5898,-2.6136,-2.6482,-2.7086,-2.7746,-2.7765,-2.804,-2.8388,-2.8407,-2.8639,-2.8928,-2.9672,-2.9755,-2.986,-3.1107,-3.1725,-3.1999,-3.2144,-3.248,-3.2676,-3.2285,-3.25,-3.2793,-3.2812,-3.3375,-3.3922,-3.3922,-3.4423,-3.4922,-3.4922,-3.5418,-3.5932,-3.5932,-3.6423,-3.6932,-3.6932,-3.7588,-3.8313,-3.8816,-3.955,-4.0418,-4.1271,-4.155,-4.2061,-4.2696,-4.3923,-4.4349,-4.385,-4.5079,-4.5405,-4.4395,-4.5357,-4.5634,-4.5355,-4.5871,-4.6339,-4.6806,-4.6975,-4.7227,0.0,0.0,-0.8717,-0.783,0.0,0.0,0.0,0.0,0.0,0.0,0.0,0.0,0.0,-0.6657,-0.6687,-0.7072,-0.6917,-0.6719,0.0,-0.6694,-0.6926,-0.7333,-0.7775,-0.8297,-0.8815,-0.9479,-1.0105,-1.0731,-1.1574,-1.2586,-1.3796,-1.4959,-1.5894,-1.6863,-1.753,-1.7952,-1.8047,-1.8478,-1.9005,-1.9508,-1.9834,-2.0416,-2.1274,-2.1274,-2.1595,-2.1925,-2.2461,-2.3045,-2.3519,-2.3962,-2.4453,-2.5034,-2.5459,-2.5789,-2.5916,-2.6354,-2.6921,-2.7453,-2.7985,-2.856,-2.9127,-2.9127,-2.9362,-2.9615,-3.0119,-3.0405,-3.0768,-3.1956,-3.2466,-3.2688,-3.3198,-3.3015,-3.2832,-3.2969,-3.2676,-3.2662,-3.3336,-3.3729,-3.3957,-3.4487,-3.4922,-3.517,-3.517,-3.5809,-3.6178,-3.6178,-3.6423,-3.6667,-3.7154,-3.7972,-3.8788,-3.9192,-4.0047,-4.0857,-4.1527,-4.2189,-4.2696,-4.3075,-4.3718,-4.4117,-4.4099,-4.4808,-4.4957,-4.4594,-4.5205,-4.5576,-4.5574,-4.5747,-4.6234,-4.6806,-4.6863,-4.706,-1.0972,-1.0814,0.0,-0.9343,-0.9006,0.0,-0.7793,0.0,0.0,0.0,0.0,0.0,0.0,-0.7481,-0.7328,-0.7608,-0.734,-0.7021,0.0,-0.705,-0.7326,-0.8076,-0.8235,-0.8492,-0.8804,-0.9574,-1.0261,-1.076,-1.1736,-1.2803,-1.4052,-1.5208,-1.6202,-1.7277,-1.7847,-1.8218,-1.8411,-1.864,-1.9049,-1.9879,-1.9776,-2.0269,-2.1449,-2.1322,-2.1618,-2.228,-2.2815,-2.3228,-2.3704,-2.4166,-2.459,-2.483,-2.5617,-2.5892,-2.5985,-2.6409,-2.7032,-2.7584,-2.7985,-2.8774,-2.946,-2.9343,-2.9442,-2.983,-3.0217,-3.0895,-3.1537,-3.2332,-3.2701,-3.3047,-3.3414,-3.323,-3.3008,-3.2988,-3.2917,-3.2922,-3.3406,-3.3857,-3.4288,-3.4656,-3.5067,-3.5418,-3.5541,-3.5932,-3.63,-3.6423,-3.6545,-3.6889,-3.7374,-3.792,-3.8569,-3.9294,-4.0018,-4.0912,-4.2038,-4.2696,-4.3075,-4.3451,-4.3826,-4.4075,-4.4347,-4.4594,-4.484,-4.484,-4.5086,-4.5453,-4.5817,-4.5939,-4.6301,-4.69,-4.69,-4.7112]}]]